Date StartTime U_cm/s V_cm/s W_cm/s Ustd_cm/s Vstd_cm/s Wstd_cm/s Uvar_(cm/s)^2 Vvar_(cm/s)^2 Wvar_(cm/s)^2 KE_(m/s)^2 TurbulentKE_(m/s)^2 HorizWindSpeed_cm/s FrictionSpeec_cm/s DragCoef SpeedOfSound_m/s SonicTemperature_C Pressure_mb 
07/15/2014  00:00:00      -19.358       -6.226        8.704       27.292        9.005       11.141      744.875       81.097      124.128        0.072        0.048       20.334       11.019        0.294      348.045       27.454      863.798
07/15/2014  00:01:00       -2.992      -11.477        7.463       14.922       16.317       11.679      222.678      266.242      136.392        0.041        0.031       11.860        6.454        0.296      347.915       27.229      863.800
07/15/2014  00:02:00      -25.174        0.262        6.959       23.905       12.327       13.533      571.428      151.962      183.142        0.079        0.045       25.176       12.966        0.265      347.970       27.321      863.804
07/15/2014  00:03:00      -14.044      -21.313        1.453       21.189       18.753       13.760      448.969      351.689      189.349        0.082        0.050       25.524       13.566        0.283      347.906       27.215      863.805
07/15/2014  00:04:00      -10.289      -23.398       -1.392       17.538       20.284       13.408      307.581      411.455      179.769        0.078        0.045       25.560       10.780        0.178      347.967       27.320      863.805
07/15/2014  00:05:00       11.380      -20.552       10.225       21.862       23.519       18.434      477.932      553.124      339.799        0.101        0.069       23.492       10.442        0.198      347.972       27.328      863.809
07/15/2014  00:06:00      -15.838      -59.926        7.534       24.761       26.644       16.815      613.089      709.928      282.731        0.275        0.080       61.984       11.018        0.032      347.988       27.358      863.812
07/15/2014  00:07:00      -35.444      -38.623       14.296       45.877       29.300       23.602     2104.689      858.491      557.077        0.324        0.176       52.422       22.801        0.189      347.983       27.347      863.816
07/15/2014  00:08:00      -67.336      -46.146       -2.776       31.268       21.455       19.559      977.717      460.297      382.539        0.425        0.091       81.631       12.762        0.024      347.908       27.218      863.811
07/15/2014  00:09:00      -91.503      -26.761       -3.044       44.344       27.116       17.924     1966.408      735.295      321.276        0.606        0.151       95.336       22.661        0.057      347.869       27.150      863.811
07/15/2014  00:10:00     -114.468       -4.758       -7.083       30.072       22.994       15.293      904.315      528.744      233.866        0.742        0.083      114.567       15.552        0.018      347.864       27.142      863.816
07/15/2014  00:11:00      -77.966      -15.895       -1.535       37.070       29.910       18.893     1374.213      894.591      356.957        0.448        0.131       79.570       20.597        0.067      347.852       27.120      863.811
07/15/2014  00:12:00     -147.446       18.125       -8.210       34.763       18.862       17.740     1208.437      355.793      314.691        1.201        0.094      148.556       21.454        0.021      347.882       27.172      863.813
07/15/2014  00:13:00     -142.906       29.222       -6.445       20.351       26.124       11.494      414.148      682.456      132.105        1.127        0.061      145.863        7.152        0.002      347.805       27.040      863.804
07/15/2014  00:14:00     -118.868        6.627      -11.797       26.990       23.967       17.443      728.485      574.402      304.263        0.796        0.080      119.053       14.138        0.014      347.766       26.975      863.803
07/15/2014  00:15:00      -97.332       30.372       -7.329       33.447       24.515       21.441     1118.688      600.961      459.736        0.631        0.109      101.961       18.503        0.033      347.796       27.025      863.798
07/15/2014  00:16:00      -70.597       25.876       -6.413       30.337       23.041       19.748      920.340      530.870      389.973        0.377        0.092       75.190       11.416        0.023      347.804       27.040      863.784
07/15/2014  00:17:00      -97.157       26.260      -12.553       23.677       35.950       17.453      560.582     1292.413      304.598        0.622        0.108      100.643       10.528        0.011      347.852       27.119      863.776
07/15/2014  00:18:00      -98.744       33.963      -13.993       23.259       24.354       19.242      540.987      593.127      370.256        0.630        0.075      104.422       14.228        0.019      347.854       27.124      863.768
07/15/2014  00:19:00      -77.418        4.662       -7.420       23.275       42.042       16.013      541.740     1767.544      256.430        0.432        0.128       77.558        8.465        0.012      347.850       27.118      863.761
07/15/2014  00:20:00      -53.402        9.726       -5.629       27.581       24.267       12.783      760.693      588.883      163.402        0.225        0.076       54.280       11.517        0.045      347.759       26.960      863.761
07/15/2014  00:21:00      -45.023       26.135        1.959       22.271       29.559       20.751      496.012      873.727      430.594        0.226        0.090       52.059       11.133        0.046      347.870       27.152      863.768
07/15/2014  00:22:00      -45.162       -3.976       -7.414       32.471       17.367       12.568     1054.365      301.619      157.956        0.181        0.076       45.336       11.742        0.067      347.878       27.166      863.792
07/15/2014  00:23:00      -22.828      -12.759        7.284       25.340       14.592       11.156      642.136      212.928      124.452        0.086        0.049       26.152        7.741        0.088      347.808       27.046      863.812
07/15/2014  00:24:00      -40.906        0.490       -4.778       16.841       15.147       11.280      283.626      229.434      127.245        0.117        0.032       40.909       10.991        0.072      347.840       27.100      863.827
07/15/2014  00:25:00      -40.134       -5.641       -0.925       25.686       24.424       15.737      659.792      596.553      247.642        0.157        0.075       40.528       16.367        0.163      347.894       27.195      863.831
07/15/2014  00:26:00      -70.676      -13.209      -11.848       18.496       16.597       13.187      342.090      275.453      173.886        0.305        0.040       71.899       11.189        0.024      347.822       27.068      863.847
07/15/2014  00:27:00      -74.206       -4.598       -4.725       14.497       25.112       13.278      210.171      630.595      176.318        0.328        0.051       74.348       12.391        0.028      347.831       27.086      863.840
07/15/2014  00:28:00      -76.018       22.326       -8.798       18.681       13.237        7.913      348.968      175.217       62.621        0.347        0.029       79.229        5.842        0.005      347.824       27.074      863.831
07/15/2014  00:29:00      -73.334       28.275       -2.694       31.999       16.819       19.533     1023.950      282.877      381.552        0.394        0.084       78.596       15.176        0.037      347.802       27.035      863.827
07/15/2014  00:30:00      -66.167       24.316       -1.671       26.513       16.122       20.769      702.925      259.907      431.336        0.318        0.070       70.493       14.999        0.045      347.803       27.039      863.808
07/15/2014  00:31:00      -63.261       46.624       -3.652       31.810       35.230       23.368     1011.882     1241.139      546.041        0.449        0.140       78.586       22.592        0.083      347.791       27.016      863.778
07/15/2014  00:32:00      -93.901      104.517      -11.133       22.027       29.149       21.374      485.171      849.654      456.840        1.083        0.090      140.503       16.698        0.014      348.053       27.470      863.739
07/15/2014  00:33:00      -93.544       22.832       -7.474       28.684       36.814       20.878      822.771     1355.251      435.881        0.597        0.131       96.290       18.264        0.036      347.771       26.983      863.710
07/15/2014  00:34:00      -88.653       -6.506      -15.136       23.473       24.407       19.656      550.990      595.724      386.371        0.483        0.077       88.891       16.833        0.036      347.567       26.629      863.684
07/15/2014  00:35:00     -134.611       40.836      -18.707       37.610       30.337       22.888     1414.549      920.361      523.864        1.150        0.143      140.669       14.407        0.010      347.735       26.917      863.669
07/15/2014  00:36:00     -100.613       50.434      -11.561       41.651       28.199       18.299     1734.834      795.204      334.866        0.783        0.143      112.546       19.845        0.031      347.760       26.964      863.670
07/15/2014  00:37:00      -85.148      -16.390      -14.952       14.414       25.882       16.583      207.775      669.858      275.011        0.445        0.058       86.711       14.706        0.029      347.700       26.858      863.676
07/15/2014  00:38:00      -46.742      -14.932       -0.759       28.726       20.461       17.004      825.196      418.672      289.153        0.197        0.077       49.069        8.773        0.032      347.674       26.817      863.685
07/15/2014  00:39:00      -14.661       10.806       13.120       18.689       14.728       12.738      349.279      216.915      162.257        0.062        0.036       18.213       11.415        0.393      347.719       26.892      863.683
07/15/2014  00:40:00       17.428       -1.073       16.187       24.355       15.137       10.510      593.183      229.140      110.467        0.075        0.047       17.461        6.617        0.144      347.338       26.233      863.684
07/15/2014  00:41:00       -4.380      -12.984        1.623       17.967        8.494       11.326      322.803       72.156      128.286        0.036        0.026       13.703       11.692        0.728      347.388       26.323      863.701
07/15/2014  00:42:00      -26.665      -23.450       -2.068       17.210       10.034        7.346      296.168      100.674       53.969        0.086        0.023       35.510        5.335        0.023      347.681       26.827      863.715
07/15/2014  00:43:00       -7.779      -33.168        0.517       13.025        7.668        8.678      169.640       58.803       75.313        0.073        0.015       34.068        7.364        0.047      347.624       26.729      863.726
07/15/2014  00:44:00       16.804      -32.017       10.657       10.405       15.125       13.874      108.263      228.773      192.487        0.098        0.026       36.159       10.953        0.092      347.645       26.765      863.741
07/15/2014  00:45:00        7.857      -25.721        2.261       11.823       15.352       10.266      139.773      235.690      105.395        0.060        0.024       26.894        9.525        0.125      347.714       26.885      863.743
07/15/2014  00:46:00       17.709      -21.436       12.726       16.767       17.376       16.712      281.135      301.913      279.282        0.090        0.043       27.805       14.537        0.273      347.516       26.543      863.736
07/15/2014  00:47:00       38.307      -25.397       -2.883       21.190       16.122       14.880      449.027      259.925      221.410        0.153        0.047       45.961       12.511        0.074      347.422       26.380      863.728
07/15/2014  00:48:00       29.444       -6.612      -12.885       18.964       12.941        9.306      359.625      167.458       86.598        0.085        0.031       30.177        6.276        0.043      347.352       26.258      863.732
07/15/2014  00:49:00       13.943        6.389       19.318       12.868       14.570       15.627      165.598      212.288      244.209        0.062        0.031       15.337       13.094        0.729      347.293       26.157      863.714
07/15/2014  00:50:00       23.656       -4.131       14.419       18.113       13.925       14.783      328.073      193.900      218.544        0.076        0.037       24.014       10.630        0.196      347.436       26.404      863.705
07/15/2014  00:51:00      -35.419        6.836        4.755       22.509       17.417       11.738      506.670      303.363      137.775        0.114        0.047       36.073       14.121        0.153      347.521       26.551      863.701
07/15/2014  00:52:00      -29.529       23.762       -2.080       13.195        9.186        9.822      174.108       84.386       96.466        0.090        0.018       37.903        8.211        0.047      347.640       26.756      863.697
07/15/2014  00:53:00       -4.995       17.102        5.534       11.201       14.421        9.337      125.470      207.960       87.171        0.038        0.021       17.817        6.160        0.120      347.717       26.889      863.692
07/15/2014  00:54:00      -17.173       10.161       -0.053       17.188       12.976        6.742      295.424      168.364       45.460        0.045        0.025       19.954        3.146        0.025      347.481       26.482      863.706
07/15/2014  00:55:00       -1.748       37.948        9.984       11.064       26.073        9.354      122.412      679.788       87.495        0.122        0.044       37.988        8.533        0.050      347.624       26.727      863.709
07/15/2014  00:56:00       -2.167       70.030       -4.784        5.014       10.830        9.522       25.144      117.286       90.667        0.258        0.012       70.063        6.797        0.009      347.751       26.946      863.714
07/15/2014  00:57:00        9.519       79.465       -8.232        7.094        9.936        7.173       50.321       98.729       51.454        0.334        0.010       80.033        6.781        0.007      347.854       27.124      863.724
07/15/2014  00:58:00       27.914       30.073        4.670       17.842       16.318       11.678      318.348      266.287      136.381        0.121        0.036       41.031        6.948        0.029      347.461       26.445      863.723
07/15/2014  00:59:00       26.513       82.707      -10.055       18.450       48.605       18.219      340.407     2362.475      331.929        0.534        0.152       86.852       22.785        0.069      347.310       26.188      863.724
07/15/2014  01:00:00       22.292       71.210        1.671       29.109       34.851       21.927      847.339     1214.582      480.795        0.406        0.127       74.618       21.086        0.080      347.195       25.987      863.722
07/15/2014  01:01:00       41.799       40.789        3.856       25.510       19.530       16.550      650.780      381.425      273.897        0.237        0.065       58.403       12.011        0.042      347.345       26.247      863.724
07/15/2014  01:02:00       37.925       24.998        3.648       21.969       18.355        7.722      482.622      336.922       59.624        0.148        0.044       45.423       10.329        0.052      347.446       26.421      863.722
07/15/2014  01:03:00       22.479       26.664       -0.935        9.504       12.511        8.273       90.328      156.520       68.445        0.077        0.016       34.875        8.442        0.059      347.352       26.259      863.709
07/15/2014  01:04:00       23.760       54.550       -5.956       13.637       16.472        9.402      185.980      271.319       88.405        0.206        0.027       59.499        7.782        0.017      347.474       26.470      863.693
07/15/2014  01:05:00       -6.768      101.898      -12.530       19.365       16.835        7.937      374.985      283.413       62.988        0.565        0.036      102.122        8.416        0.007      347.686       26.835      863.677
07/15/2014  01:06:00      -46.280       76.443       -8.358       17.801       35.615       13.234      316.880     1268.443      175.134        0.491        0.088       89.361       10.049        0.013      347.502       26.518      863.671
07/15/2014  01:07:00      -76.399        9.050       -4.862       18.476       12.892        7.920      341.376      166.205       62.734        0.326        0.029       76.934        6.296        0.007      347.156       25.921      863.674
07/15/2014  01:08:00      -84.647       11.300      -10.839       28.672       16.260       15.857      822.064      264.394      251.447        0.437        0.067       85.398       13.819        0.026      347.120       25.860      863.667
07/15/2014  01:09:00      -62.129       44.004      -14.827       22.120       33.867       15.778      489.302     1146.990      248.943        0.395        0.094       76.134       19.401        0.065      347.535       26.575      863.650
07/15/2014  01:10:00      -61.062       58.413       -4.583       26.672       31.497       22.377      711.418      992.059      500.728        0.468        0.110       84.502       17.794        0.044      347.537       26.578      863.634
07/15/2014  01:11:00      -54.125       84.493       -6.736       37.879       35.877       22.628     1434.812     1287.166      512.042        0.667        0.162      100.343       23.264        0.054      347.748       26.942      863.631
07/15/2014  01:12:00     -132.219       22.270      -14.170       59.868       28.961       16.584     3584.137      838.766      275.042        1.144        0.235      134.082       18.808        0.020      347.646       26.766      863.609
07/15/2014  01:13:00     -179.432       33.780      -16.968       63.194       49.006       22.569     3993.420     2401.547      509.341        2.026        0.345      182.584       21.753        0.014      348.354       27.989      863.590
07/15/2014  01:14:00      -88.190       -6.241       -8.102       40.749       53.070       24.668     1660.472     2816.476      608.525        0.648        0.254       88.411       20.191        0.052      347.939       27.271      863.578
07/15/2014  01:15:00     -108.407       15.002       -3.963       62.718       50.696       25.953     3933.552     2570.041      673.544        0.958        0.359      109.440       19.364        0.031      347.952       27.293      863.565
07/15/2014  01:16:00     -104.301      -46.534        3.667       66.321       37.515       29.215     4398.462     1407.392      853.511        0.986        0.333      114.211       32.312        0.080      347.705       26.868      863.559
07/15/2014  01:17:00      -97.968      -29.508       -8.990       37.504       33.616       20.227     1406.523     1130.008      409.119        0.675        0.147      102.316       20.000        0.038      347.688       26.840      863.546
07/15/2014  01:18:00     -198.937       59.442      -14.003       74.774       29.294       18.743     5591.177      858.135      351.313        2.505        0.340      207.628       19.685        0.009      347.427       26.387      863.553
07/15/2014  01:19:00     -192.570      -12.294      -17.210       55.094       56.085       27.380     3035.403     3145.499      749.682        2.223        0.347      192.962       28.665        0.022      347.234       26.052      863.548
07/15/2014  01:20:00      -90.321       -1.634       -5.067       39.771       48.646       20.524     1581.752     2366.461      421.231        0.628        0.218       90.336       11.328        0.016      347.162       25.932      863.541
07/15/2014  01:21:00      -47.648        5.768        2.344       27.095       33.624       16.179      734.132     1130.590      261.763        0.222        0.106       47.996       10.590        0.049      347.259       26.099      863.528
07/15/2014  01:22:00      -64.579       -1.317       -8.601       21.895       15.869       12.603      479.373      251.840      158.840        0.257        0.045       64.592       12.115        0.035      347.457       26.442      863.541
07/15/2014  01:23:00      -55.290      -12.454       -6.202       14.999       24.197       13.316      224.982      585.475      177.328        0.212        0.049       56.675       10.975        0.038      347.380       26.307      863.524
07/15/2014  01:24:00      -55.578       25.722       -5.958       25.064       18.659        8.648      628.191      348.149       74.788        0.242        0.053       61.242        9.711        0.025      347.553       26.606      863.514
07/15/2014  01:25:00      -39.971       43.549       -5.091       23.744       26.440       12.734      563.791      699.060      162.158        0.247        0.071       59.111       10.942        0.034      347.547       26.595      863.504
07/15/2014  01:26:00       -2.007       98.358       -6.684       24.613       26.134       15.265      605.813      682.979      233.009        0.562        0.076       98.378       11.955        0.015      347.666       26.800      863.496
07/15/2014  01:27:00      -16.939       29.083       -8.959       25.936       40.859       14.354      672.700     1669.478      206.035        0.188        0.127       33.656       11.321        0.113      347.656       26.785      863.487
07/15/2014  01:28:00      -52.444      -10.305       -4.568       25.189       24.841       14.226      634.498      617.068      202.384        0.217        0.073       53.447        8.581        0.026      347.375       26.298      863.489
07/15/2014  01:29:00     -111.171       11.448       -9.182       54.449       48.256       23.019     2964.678     2328.611      529.862        0.920        0.291      111.759       23.925        0.046      347.365       26.281      863.488
07/15/2014  01:30:00      -55.792       54.430      -13.301       22.384       21.800       13.470      501.026      475.228      181.437        0.370        0.058       77.945       13.429        0.030      347.632       26.742      863.475
07/15/2014  01:31:00       14.419       59.306       -3.196       25.056       24.968       20.482      627.780      623.389      419.508        0.270        0.084       61.034       13.297        0.047      347.944       27.281      863.445
07/15/2014  01:32:00      -58.270       11.680      -15.676       24.743       25.668       23.951      612.203      658.849      573.651        0.281        0.092       59.429       19.647        0.109      347.526       26.560      863.432
07/15/2014  01:33:00      -90.199       -2.790      -10.276       44.232       23.035       15.264     1956.444      530.605      232.979        0.548        0.136       90.242       11.718        0.017      347.384       26.313      863.436
07/15/2014  01:34:00      -54.418       -1.800       -9.943       66.131       31.148       16.951     4373.327      970.227      287.351        0.435        0.282       54.448       23.304        0.183      347.389       26.323      863.423
07/15/2014  01:35:00     -113.544       34.254       -2.484       63.757       46.325       29.366     4064.975     2145.976      862.363        1.057        0.354      118.598       32.307        0.074      347.714       26.885      863.425
07/15/2014  01:36:00      -83.128      -14.150       -2.753       35.303       48.049       17.068     1246.313     2308.699      291.317        0.548        0.192       84.324       18.075        0.046      347.343       26.244      863.429
07/15/2014  01:37:00      -83.686        3.084       -4.924       40.078       29.353       17.504     1606.252      861.576      306.381        0.491        0.139       83.743       20.041        0.057      347.293       26.158      863.432
07/15/2014  01:38:00      -54.720       72.535      -19.516       23.442       42.859       23.644      549.541     1836.852      559.031        0.579        0.147       90.860       24.640        0.074      347.633       26.745      863.421
07/15/2014  01:39:00      -22.783       47.442        0.978       21.531       14.941       14.650      463.602      223.242      214.631        0.184        0.045       52.629        9.697        0.034      347.705       26.867      863.395
07/15/2014  01:40:00      -50.921       -0.672       -5.355       25.152       23.970        8.592      632.613      574.567       73.830        0.195        0.064       50.925        5.589        0.012      347.487       26.492      863.402
07/15/2014  01:41:00      -34.423        3.145       -3.890       17.718       18.006       10.221      313.942      324.206      104.463        0.098        0.037       34.566        6.746        0.038      347.397       26.336      863.418
07/15/2014  01:42:00      -57.769       -2.358       -3.109       19.022       18.328       13.972      361.823      335.929      195.215        0.212        0.045       57.817        8.037        0.019      347.292       26.157      863.419
07/15/2014  01:43:00      -27.935       27.124       -8.900       30.991       30.350       22.867      960.454      921.107      522.915        0.200        0.120       38.936       14.780        0.144      347.525       26.557      863.403
07/15/2014  01:44:00      -84.755      -27.793       -2.043       36.728       35.789       14.250     1348.961     1280.861      203.062        0.540        0.142       89.195       15.547        0.030      347.371       26.292      863.400
07/15/2014  01:45:00      -76.582      -29.613       -3.638       18.610       12.831       10.009      346.346      164.637      100.175        0.368        0.031       82.108       10.566        0.017      347.328       26.217      863.387
07/15/2014  01:46:00      -62.389      -43.797        1.919       39.186       22.151       14.203     1535.516      490.652      201.734        0.402        0.111       76.227       15.040        0.039      347.360       26.273      863.380
07/15/2014  01:47:00      -56.486      -25.053       -7.747       32.551       15.477       12.963     1059.543      239.540      168.038        0.267        0.073       61.792       13.937        0.051      347.418       26.373      863.375
07/15/2014  01:48:00      -15.499      -22.570        4.422       29.841       22.728       14.651      890.477      516.575      214.666        0.120        0.081       27.379       16.478        0.362      347.381       26.309      863.349
07/15/2014  01:49:00      -77.734      -26.205       -4.765       23.276       23.531       14.585      541.756      553.696      212.721        0.403        0.065       82.032       11.683        0.020      347.421       26.376      863.353
07/15/2014  01:50:00      -77.229       -4.149      -20.632       21.388       40.189       15.730      457.464     1615.147      247.442        0.436        0.116       77.340       11.386        0.022      347.272       26.121      863.363
07/15/2014  01:51:00     -139.821      -44.338       -2.299       34.706       31.576       17.221     1204.528      997.031      296.551        1.201        0.125      146.683       13.664        0.009      347.208       26.011      863.363
07/15/2014  01:52:00     -115.616       -3.610       -8.899       61.071       59.941       28.400     3729.703     3592.887      806.580        1.079        0.406      115.672       28.338        0.060      347.238       26.061      863.381
07/15/2014  01:53:00     -144.194       61.065      -21.466       61.136       44.981       28.416     3737.575     2023.311      807.480        1.577        0.328      156.591       28.438        0.033      347.459       26.444      863.367
07/15/2014  01:54:00     -211.870      130.765      -36.036       58.051       75.774       42.085     3369.945     5741.734     1771.162        3.708        0.544      248.975       36.466        0.021      347.867       27.144      863.358
07/15/2014  01:55:00     -140.132       24.916      -27.883       67.681       85.220       34.434     4580.698     7262.483     1185.733        1.703        0.651      142.330       31.392        0.049      347.698       26.856      863.358
07/15/2014  01:56:00     -135.154       25.447      -19.947       56.800       43.156       33.910     3226.262     1862.427     1149.898        1.277        0.312      137.529       25.940        0.036      347.517       26.543      863.356
07/15/2014  01:57:00     -136.607       16.512      -24.234       59.053       61.557       30.375     3487.235     3789.288      922.621        1.386        0.410      137.602       29.728        0.047      347.513       26.535      863.335
07/15/2014  01:58:00     -109.915      117.502      -26.268       51.697       49.692       31.029     2672.618     2469.297      962.802        1.634        0.305      160.897       28.189        0.031      347.534       26.572      863.319
07/15/2014  01:59:00     -121.521      161.878      -29.307       54.487       51.848       29.691     2968.811     2688.179      881.563        2.418        0.327      202.415       28.138        0.019      347.567       26.626      863.302
07/15/2014  02:00:00     -176.963      118.423      -38.736       62.908       66.296       43.856     3957.400     4395.216     1923.322        2.856        0.514      212.932       40.193        0.036      347.553       26.601      863.293
07/15/2014  02:01:00     -161.138       99.169      -24.010       51.799       57.409       31.280     2683.167     3295.819      978.434        2.167        0.348      189.209       28.444        0.023      347.416       26.365      863.289
07/15/2014  02:02:00     -131.890       59.537      -25.039       64.626       31.087       26.745     4176.469      966.424      715.319        1.371        0.293      144.706       28.934        0.040      347.339       26.234      863.283
07/15/2014  02:03:00      -76.786       87.655      -15.178       48.264       56.958       31.906     2329.438     3244.167     1017.979        1.020        0.330      116.532       30.778        0.070      347.325       26.212      863.285
07/15/2014  02:04:00      -71.391      109.951      -12.262       55.234       47.966       27.501     3050.771     2300.710      756.284        1.172        0.305      131.095       28.183        0.046      347.408       26.356      863.289
07/15/2014  02:05:00      -66.130      113.140      -13.534       37.824       46.084       26.989     1430.659     2123.759      728.395        1.082        0.214      131.049       21.011        0.026      347.302       26.172      863.302
07/15/2014  02:06:00      -47.075       35.066       -4.255       27.581       23.581       20.571      760.705      556.053      423.149        0.260        0.087       58.700        8.037        0.019      347.275       26.126      863.312
07/15/2014  02:07:00      -91.706       65.826      -22.128       29.856       50.926       20.846      891.363     2593.480      434.575        0.858        0.196      112.885       18.780        0.028      347.393       26.330      863.322
07/15/2014  02:08:00     -105.892       69.105      -20.583       33.140       60.563       30.127     1098.282     3667.890      907.659        1.104        0.284      126.446       19.558        0.024      347.458       26.443      863.330
07/15/2014  02:09:00      -71.840       62.678      -18.304       38.327       32.793       19.950     1468.995     1075.372      398.020        0.618        0.147       95.339       17.919        0.035      347.467       26.458      863.338
07/15/2014  02:10:00        9.387       49.922       -4.091       15.623       39.921       17.115      244.084     1593.675      292.938        0.236        0.107       50.797       22.462        0.196      347.468       26.460      863.345
07/15/2014  02:11:00       -1.722      -40.022       -8.324       26.992       31.579       15.501      728.575      997.224      240.281        0.182        0.098       40.059       15.374        0.147      347.112       25.846      863.344
07/15/2014  02:12:00        5.342      -81.519      -13.046       30.347       19.388       14.217      920.971      375.889      202.119        0.417        0.075       81.694       17.041        0.044      347.337       26.235      863.352
07/15/2014  02:13:00      -33.435      -70.086       -4.096       23.663       23.853       15.051      559.924      568.979      226.546        0.370        0.068       77.653        8.473        0.012      347.253       26.088      863.360
07/15/2014  02:14:00      -52.423     -117.023        0.050       37.771       35.497       21.570     1426.661     1260.046      465.253        0.980        0.158      128.228       19.258        0.023      347.281       26.136      863.358
07/15/2014  02:15:00      -48.743     -174.727       -7.017       38.216       51.623       32.241     1460.431     2664.917     1039.497        1.906        0.258      181.398       27.850        0.024      347.201       25.996      863.369
07/15/2014  02:16:00      -29.919     -187.080        1.632       37.115       49.438       32.419     1377.552     2444.136     1050.976        2.038        0.244      189.457       20.104        0.011      347.113       25.847      863.372
07/15/2014  02:17:00      -72.322     -174.337       -4.359       47.101       62.329       37.356     2218.543     3884.861     1395.485        2.157        0.375      188.743       27.817        0.022      347.100       25.822      863.379
07/15/2014  02:18:00      -69.334     -199.417       -4.852       35.082       42.445       21.704     1230.753     1801.589      471.047        2.405        0.175      211.126       15.130        0.005      347.269       26.113      863.377
07/15/2014  02:19:00      -50.809     -196.485       -1.562       37.597       34.318       25.844     1413.546     1177.698      667.893        2.222        0.163      202.948       13.753        0.005      347.282       26.137      863.380
07/15/2014  02:20:00      -22.818     -107.770        3.069       33.863       47.267       19.811     1146.701     2234.163      392.486        0.796        0.189      110.159       11.832        0.012      347.240       26.067      863.394
07/15/2014  02:21:00      -57.038      -89.426        2.901       37.040       27.092       18.997     1371.961      733.986      360.883        0.686        0.123      106.068       15.668        0.022      347.205       26.007      863.408
07/15/2014  02:22:00      -35.534      -46.625        1.078       21.208       33.402       16.208      449.764     1115.678      262.703        0.263        0.091       58.622       16.537        0.080      347.128       25.873      863.426
07/15/2014  02:23:00      -16.027      -51.142        3.763       22.083       21.457       15.513      487.675      460.422      240.644        0.204        0.059       53.594        4.956        0.009      347.205       26.007      863.431
07/15/2014  02:24:00        5.265      -15.356        5.685       15.470       23.196        9.166      239.326      538.073       84.009        0.058        0.043       16.234        5.409        0.111      347.117       25.856      863.428
07/15/2014  02:25:00       22.832       20.021       12.305       16.958       11.742       10.470      287.561      137.866      109.628        0.080        0.027       30.367        8.111        0.071      346.858       25.406      863.428
07/15/2014  02:26:00       55.916       27.386        1.496       16.894       11.203       10.148      285.421      125.504      102.972        0.220        0.026       62.262        3.439        0.003      346.913       25.500      863.434
07/15/2014  02:27:00       43.659       17.813        1.869       16.119       13.356       10.018      259.835      178.391      100.360        0.138        0.027       47.153        5.892        0.016      346.858       25.409      863.431
07/15/2014  02:28:00       24.382        7.424        9.748       16.330       12.261       11.731      266.681      150.328      137.627        0.065        0.028       25.487        8.113        0.101      346.777       25.269      863.440
07/15/2014  02:29:00        1.046       14.562        4.128       12.672       17.436        6.435      160.569      304.021       41.406        0.037        0.025       14.599        5.890        0.163      346.698       25.133      863.452
07/15/2014  02:30:00       15.749       63.180       -1.977       15.674       22.095       13.789      245.674      488.169      190.146        0.258        0.046       65.114       12.574        0.037      346.747       25.216      863.466
07/15/2014  02:31:00        3.999       88.407       -8.970       15.130       16.865        6.562      228.909      284.434       43.057        0.423        0.028       88.497        6.914        0.006      346.895       25.472      863.485
07/15/2014  02:32:00      -13.487       88.170      -13.057       18.309       15.829        9.641      335.223      250.566       92.940        0.440        0.034       89.196        8.055        0.008      346.814       25.333      863.511
07/15/2014  02:33:00      -59.007       51.313      -15.342       16.804       17.257       12.325      282.378      297.820      151.902        0.354        0.037       78.197        9.647        0.015      346.634       25.022      863.509
07/15/2014  02:34:00      -59.150       37.862      -11.904       15.393       16.869        8.654      236.950      284.551       74.899        0.284        0.030       70.230        7.078        0.010      346.672       25.089      863.498
07/15/2014  02:35:00      -48.414       49.434      -10.916       16.042       16.404       12.499      257.335      269.096      156.216        0.279        0.034       69.192       10.689        0.024      346.707       25.148      863.483
07/15/2014  02:36:00      -38.540       55.922       -9.912       15.043       14.961       11.215      226.289      223.821      125.777        0.264        0.029       67.916       10.360        0.023      346.751       25.224      863.470
07/15/2014  02:37:00      -46.520       42.264      -12.937       15.069       21.876       10.048      227.062      478.568      100.962        0.246        0.040       62.852        9.027        0.021      346.745       25.214      863.458
07/15/2014  02:38:00      -55.568        0.540       -2.829       20.101       11.896       11.471      404.041      141.508      131.576        0.189        0.034       55.570       11.836        0.045      346.706       25.145      863.448
07/15/2014  02:39:00      -39.112      -27.764        7.199       29.697       24.360       16.499      881.908      593.393      272.223        0.205        0.087       47.964       16.354        0.116      346.568       24.910      863.447
07/15/2014  02:40:00      -48.604      -29.337       -7.520       23.989       20.993       10.579      575.494      440.699      111.909        0.220        0.056       56.771       10.388        0.033      346.447       24.701      863.448
07/15/2014  02:41:00      -14.038       -6.365        3.362       16.732       22.018       12.345      279.965      484.790      152.397        0.058        0.046       15.414        9.032        0.343      346.446       24.701      863.457
07/15/2014  02:42:00       10.472        8.063       10.827       11.279       14.960        7.826      127.209      223.797       61.250        0.035        0.021       13.216        6.367        0.232      346.548       24.875      863.466
07/15/2014  02:43:00       44.877       29.668        1.917       21.608       19.452       16.789      466.926      378.389      281.855        0.201        0.056       53.797        8.310        0.024      346.333       24.508      863.483
07/15/2014  02:44:00       28.307       17.326       -3.817       14.758       12.874       10.034      217.805      165.738      100.684        0.080        0.024       33.188        6.854        0.043      346.349       24.530      863.512
07/15/2014  02:45:00       24.009       14.426        5.007       13.276       13.005        8.634      176.254      169.133       74.539        0.061        0.021       28.009        5.960        0.045      346.391       24.604      863.527
07/15/2014  02:46:00        7.290        6.622        1.911       11.581        6.498        7.459      134.122       42.225       55.641        0.017        0.012        9.849        4.954        0.253      346.349       24.533      863.545
07/15/2014  02:47:00      -24.371        0.067       -5.446       12.580        9.807        5.162      158.256       96.177       26.645        0.045        0.014       24.371        3.614        0.022      346.452       24.707      863.565
07/15/2014  02:48:00      -69.517      -11.724       -9.468       10.232       10.789        5.211      104.686      116.395       27.159        0.265        0.012       70.499        2.186        0.001      346.309       24.463      863.582
07/15/2014  02:49:00     -123.877      -29.823       -6.789       32.440       32.626       18.599     1052.346     1064.486      345.910        0.937        0.123      127.416       14.363        0.013      346.165       24.216      863.601
07/15/2014  02:50:00     -126.980      -48.161       -7.596       42.319       38.342       23.304     1790.870     1470.089      543.083        1.115        0.190      135.807       15.978        0.014      346.042       24.004      863.612
07/15/2014  02:51:00     -109.582      -58.163       -9.579       36.728       31.483       24.328     1348.980      991.154      591.876        0.921        0.147      124.061       19.423        0.025      345.997       23.928      863.612
07/15/2014  02:52:00      -96.908      -43.216       -7.884       28.516       29.730       18.802      813.159      883.902      353.521        0.669        0.103      106.108       11.398        0.012      345.967       23.876      863.607
07/15/2014  02:53:00      -60.178      -22.923       -5.863       23.849       18.753       14.425      568.779      351.656      208.091        0.265        0.056       64.396       13.674        0.045      346.001       23.937      863.594
07/15/2014  02:54:00      -64.370      -11.695       -3.988       22.978       18.346       12.802      527.976      336.577      163.886        0.266        0.051       65.424        9.680        0.022      345.983       23.904      863.579
07/15/2014  02:55:00      -54.600      -35.877        1.856       20.317       15.794       12.223      412.792      249.458      149.393        0.254        0.041       65.333       12.423        0.036      346.093       24.094      863.555
07/15/2014  02:56:00      -82.487      -18.678      -10.463       13.064       10.897        7.501      170.677      118.747       56.265        0.380        0.017       84.575        4.035        0.002      346.295       24.439      863.535
07/15/2014  02:57:00      -79.528      -15.672      -11.897       21.295       11.885        8.152      453.491      141.242       66.450        0.369        0.033       81.058        7.604        0.009      346.235       24.336      863.526
07/15/2014  02:58:00      -94.755      -26.249      -14.913       12.382       15.334        7.946      153.309      235.142       63.136        0.517        0.023       98.323        6.738        0.005      346.141       24.176      863.531
07/15/2014  02:59:00      -96.474      -12.382      -14.060       14.533       14.667        8.938      211.200      215.120       79.896        0.508        0.025       97.265        6.480        0.004      346.126       24.148      863.527
07/15/2014  03:00:00     -107.584      -27.606      -11.829       13.052       11.947       12.814      170.354      142.719      164.200        0.648        0.024      111.069        7.140        0.004      346.106       24.115      863.511
07/15/2014  03:01:00      -84.066      -23.499      -15.759       14.355       21.506       12.387      206.079      462.508      153.447        0.434        0.041       87.288        9.196        0.011      346.024       23.973      863.517
07/15/2014  03:02:00      -99.763      -31.579      -12.272       26.023       21.220       14.330      677.173      450.309      205.362        0.622        0.067      104.642       10.960        0.011      345.882       23.729      863.526
07/15/2014  03:03:00     -102.444      -28.342       -7.445       37.322       33.139       23.931     1392.932     1098.216      572.681        0.721        0.153      106.292       23.233        0.048      345.716       23.446      863.528
07/15/2014  03:04:00        4.532       -3.087        6.297       37.544       14.297       20.816     1409.556      204.405      433.314        0.106        0.102        5.484       13.849        6.377      345.685       23.391      863.517
07/15/2014  03:05:00       -3.661      -15.382       -3.321        8.205       12.208       10.961       67.329      149.044      120.151        0.030        0.017       15.811        3.059        0.037      345.890       23.745      863.522
07/15/2014  03:06:00      -27.437      -17.816      -10.750       24.634       11.940       10.001      606.826      142.570      100.012        0.102        0.042       32.714        5.961        0.033      345.912       23.783      863.527
07/15/2014  03:07:00      -54.668      -35.220       -8.034       19.496       13.683        8.839      380.105      187.212       78.135        0.247        0.032       65.031        8.260        0.016      346.336       24.511      863.535
07/15/2014  03:08:00      -28.792      -27.664       -5.188       16.331        7.345        7.268      266.710       53.943       52.830        0.100        0.019       39.928        7.544        0.036      346.135       24.163      863.548
07/15/2014  03:09:00      -84.649       -6.886      -12.613       18.995       10.037        8.651      360.813      100.744       74.837        0.395        0.027       84.929        5.064        0.004      345.895       23.754      863.563
07/15/2014  03:10:00      -99.961        2.335       -9.047       39.314       30.328       19.651     1545.563      919.768      386.162        0.646        0.143       99.988       17.478        0.031      345.703       23.423      863.570
07/15/2014  03:11:00      -83.560       -5.146      -10.273       53.369       29.781       20.668     2848.296      886.882      427.185        0.564        0.208       83.718       25.736        0.095      345.589       23.227      863.568
07/15/2014  03:12:00      -68.791       -4.837      -10.945       19.871       33.225       15.206      394.870     1103.910      231.210        0.330        0.086       68.961       10.743        0.024      345.475       23.031      863.561
07/15/2014  03:13:00     -103.661      -50.069       -5.778       43.297       37.260       22.987     1874.665     1388.325      528.390        0.854        0.190      115.120       17.168        0.022      345.432       22.959      863.563
07/15/2014  03:14:00     -136.444      -12.743      -14.853       47.118       38.112       23.306     2220.124     1452.521      543.155        1.161        0.211      137.037       17.636        0.017      345.513       23.097      863.551
07/15/2014  03:15:00     -105.041      -21.431       -6.379       25.543       32.387       21.112      652.434     1048.895      445.698        0.684        0.107      107.205       10.861        0.010      345.505       23.083      863.535
07/15/2014  03:16:00     -108.809      -15.839      -23.111       23.235       24.463       14.412      539.843      598.448      207.704        0.698        0.067      109.955        6.493        0.003      345.526       23.118      863.539
07/15/2014  03:17:00     -123.203      -39.316      -12.158       23.712       22.885       13.949      562.237      523.746      194.563        0.908        0.064      129.324        6.634        0.003      345.487       23.052      863.537
07/15/2014  03:18:00     -110.953      -37.505       -3.644       46.105       56.128       26.976     2125.687     3150.323      727.696        0.987        0.300      117.120       23.742        0.041      345.389       22.884      863.522
07/15/2014  03:19:00     -105.389       -8.947      -22.677       29.930       26.361       13.921      895.776      694.900      193.797        0.674        0.089      105.768       10.249        0.009      345.413       22.926      863.519
07/15/2014  03:20:00      -74.535      -17.526       -9.005       26.175       24.473       16.524      685.124      598.932      273.027        0.375        0.078       76.568        9.900        0.017      345.534       23.131      863.515
07/15/2014  03:21:00      -73.905      -20.884      -11.530       17.188       18.930       12.397      295.426      358.331      153.675        0.342        0.040       76.799       11.814        0.024      345.499       23.074      863.498
07/15/2014  03:22:00     -100.529       18.739      -10.811       63.569       43.436       24.625     4040.979     1886.673      606.380        0.855        0.327      102.261       20.934        0.042      345.490       23.058      863.492
07/15/2014  03:23:00     -112.152       23.927      -10.734       49.115       31.761       21.516     2412.267     1008.740      462.921        0.857        0.194      114.676       16.960        0.022      345.539       23.141      863.511
07/15/2014  03:24:00      -88.049       -1.640      -19.259       32.082       28.832       15.769     1029.283      831.260      248.666        0.512        0.105       88.065       14.165        0.026      345.515       23.099      863.520
07/15/2014  03:25:00      -56.782       -5.411       -8.369       35.081       36.928       19.153     1230.678     1363.713      366.834        0.314        0.148       57.040       16.639        0.085      345.430       22.952      863.529
07/15/2014  03:26:00      -83.561       19.705        0.830       94.179       44.194       27.966     8869.681     1953.123      782.089        0.949        0.580       85.853       29.533        0.118      345.486       23.047      863.556
07/15/2014  03:27:00     -119.999       38.292       -1.811       48.012       32.290       25.210     2305.118     1042.621      635.564        0.993        0.199      125.960       19.416        0.024      345.467       23.017      863.576
07/15/2014  03:28:00      -53.919        9.128        9.523       50.783       25.541       18.385     2578.866      652.320      337.998        0.332        0.178       54.686       17.642        0.104      345.479       23.038      863.588
07/15/2014  03:29:00      -27.322       -2.603        0.057       34.346       16.433       18.691     1179.680      270.059      349.367        0.128        0.090       27.445       12.425        0.205      345.467       23.017      863.604
07/15/2014  03:30:00      -51.661      -44.808       -6.254       41.804       23.130       11.428     1747.573      535.009      130.599        0.356        0.121       68.385        5.984        0.008      345.403       22.908      863.625
07/15/2014  03:31:00     -103.724      -37.239       -2.092       36.197       20.197       15.548     1310.227      407.938      241.745        0.705        0.098      110.206       14.059        0.016      345.397       22.899      863.636
07/15/2014  03:32:00      -84.419      -44.334       -2.418       29.818       22.435       15.745      889.099      503.334      247.911        0.537        0.082       95.353       14.973        0.025      345.515       23.100      863.651
07/15/2014  03:33:00      -97.145      -40.608        0.039       19.986       24.427       14.704      399.451      596.675      216.193        0.615        0.061      105.290       11.765        0.012      345.559       23.174      863.666
07/15/2014  03:34:00     -105.372      -47.232       -8.406       15.099       16.719       10.624      227.982      279.539      112.874        0.701        0.031      115.474        6.344        0.003      345.606       23.255      863.656
07/15/2014  03:35:00      -87.135      -57.469       -1.315       30.393       19.777       16.403      923.735      391.136      269.070        0.624        0.079      104.380       14.228        0.019      345.570       23.196      863.655
07/15/2014  03:36:00      -83.225      -54.305        3.365       31.796       22.187       19.768     1011.011      492.242      390.793        0.589        0.095       99.375       18.728        0.036      345.591       23.230      863.651
07/15/2014  03:37:00      -73.487      -67.936       -0.499       33.733       30.319       15.798     1137.941      919.257      249.566        0.616        0.115      100.078       16.485        0.027      345.627       23.292      863.637
07/15/2014  03:38:00      -77.156      -55.442        1.640       42.907       20.056       18.070     1840.974      402.241      326.512        0.580        0.128       95.010       18.509        0.038      345.612       23.267      863.627
07/15/2014  03:39:00     -129.382      -65.537        1.238       32.999       19.920       20.359     1088.944      396.803      414.484        1.147        0.095      145.034       18.305        0.016      345.583       23.217      863.609
07/15/2014  03:40:00     -111.718      -19.557       -2.676       36.522       30.940       21.029     1333.847      957.293      442.238        0.780        0.137      113.417       18.603        0.027      345.496       23.067      863.587
07/15/2014  03:41:00     -128.415      -43.578       -3.853       34.654       23.151       14.655     1200.920      535.970      214.769        1.018        0.098      135.608       13.737        0.010      345.486       23.050      863.557
07/15/2014  03:42:00      -93.834      -39.614        0.155       36.130       28.028       16.439     1305.395      785.564      270.249        0.637        0.118      101.853       10.392        0.010      345.508       23.088      863.545
07/15/2014  03:43:00     -116.589      -33.844       -5.886       33.543       48.698       21.302     1125.107     2371.476      453.792        0.936        0.198      121.402       21.989        0.033      345.503       23.079      863.524
07/15/2014  03:44:00     -115.924       -4.000       -4.391       43.137       25.076       15.972     1860.777      628.811      255.095        0.811        0.137      115.993       19.972        0.030      345.449       22.987      863.517
07/15/2014  03:45:00     -114.236      -11.318       -4.742       33.519       26.723       22.383     1123.547      714.111      501.018        0.777        0.117      114.795       20.062        0.031      345.404       22.909      863.523
07/15/2014  03:46:00      -91.300      -29.410       -4.419       29.634       33.213       19.785      878.203     1103.111      391.441        0.580        0.119       95.920        9.494        0.010      345.365       22.844      863.531
07/15/2014  03:47:00      -76.086      -10.252        1.009       36.572       32.071       17.107     1337.502     1028.532      292.651        0.428        0.133       76.774       15.603        0.041      345.300       22.731      863.545
07/15/2014  03:48:00      -84.322       -1.920       -6.125       48.886       33.701       21.780     2389.868     1135.763      474.376        0.557        0.200       84.344       26.232        0.097      345.278       22.694      863.548
07/15/2014  03:49:00     -100.079       -7.270       -3.289       36.458       37.188       22.540     1329.214     1382.915      508.047        0.665        0.161      100.343       22.506        0.050      345.328       22.779      863.555
07/15/2014  03:50:00      -75.415       -9.663       -0.353       31.288       32.237       16.870      978.954     1039.193      284.596        0.404        0.115       76.032       18.139        0.057      345.311       22.750      863.567
07/15/2014  03:51:00      -63.039      -14.878        3.884       39.500       27.221       18.915     1560.250      740.966      357.788        0.343        0.133       64.771       17.731        0.075      345.356       22.826      863.558
07/15/2014  03:52:00      -74.990       20.375        0.673       30.428       21.351       16.693      925.835      455.849      278.649        0.385        0.083       77.709       11.703        0.023      345.333       22.787      863.553
07/15/2014  03:53:00      -51.024        3.143       -0.762       31.166       21.585       13.114      971.343      465.894      171.984        0.211        0.080       51.121       10.085        0.039      345.350       22.817      863.549
07/15/2014  03:54:00      -47.469       11.195       -2.397       40.819       21.012       17.929     1666.213      441.494      321.443        0.241        0.121       48.772       12.515        0.066      345.489       23.055      863.549
07/15/2014  03:55:00     -118.825       30.915       -8.846       34.826       25.951       21.715     1212.830      673.433      471.526        0.876        0.118      122.781       14.430        0.014      345.500       23.075      863.539
07/15/2014  03:56:00      -85.403       26.503      -11.990       24.287       30.171       13.563      589.872      910.307      183.943        0.491        0.084       89.421       11.874        0.018      345.479       23.039      863.524
07/15/2014  03:57:00      -82.738      -25.095       -7.629       19.408       16.589       12.408      376.688      275.192      153.964        0.417        0.040       86.460        9.072        0.011      345.342       22.804      863.516
07/15/2014  03:58:00      -49.173      -12.161       -7.048       43.126       24.990       13.971     1859.885      624.493      195.200        0.265        0.134       50.655       15.453        0.093      345.312       22.751      863.508
07/15/2014  03:59:00      -36.656      -19.401       -1.072       61.659       30.421       30.147     3801.829      925.439      908.859        0.368        0.282       41.474       33.437        0.650      345.291       22.716      863.496
07/15/2014  04:00:00      -61.823      -46.717       -3.252       36.911       21.866       18.788     1362.456      478.138      352.998        0.410        0.110       77.489       16.988        0.048      345.195       22.552      863.476
07/15/2014  04:01:00      -99.119      -40.768       -8.212       18.605       28.291       12.744      346.161      800.385      162.417        0.643        0.065      107.175        9.225        0.007      345.228       22.607      863.441
07/15/2014  04:02:00      -83.651      -19.319       -5.276       21.293       22.406       15.640      453.377      502.016      244.603        0.430        0.060       85.853        9.604        0.013      345.239       22.624      863.427
07/15/2014  04:03:00      -72.895        2.038       -1.166       39.122       30.799       18.960     1530.501      948.578      359.463        0.408        0.142       72.924       19.531        0.072      345.133       22.445      863.435
07/15/2014  04:04:00      -89.935        9.360       -4.966       30.849       16.642       14.527      951.650      276.955      211.044        0.482        0.072       90.421       17.112        0.036      345.181       22.528      863.429
07/15/2014  04:05:00      -94.111      -22.154      -10.295       18.093       20.238       13.080      327.362      409.595      171.080        0.518        0.045       96.684       10.576        0.012      345.172       22.512      863.434
07/15/2014  04:06:00     -100.788      -23.008      -10.562       24.985       22.694       13.542      624.248      515.039      183.381        0.606        0.066      103.381       13.350        0.017      345.111       22.410      863.446
07/15/2014  04:07:00      -91.371      -20.628       -3.969       22.793       23.866       12.974      519.504      569.567      168.316        0.502        0.063       93.670       10.463        0.012      345.084       22.363      863.443
07/15/2014  04:08:00      -85.097      -42.829        2.804       28.419       25.592       15.390      807.666      654.973      236.838        0.539        0.085       95.267       14.785        0.024      345.243       22.633      863.426
07/15/2014  04:09:00      -88.991      -36.627        2.415       42.977       28.264       17.387     1847.061      798.855      302.311        0.611        0.147       96.234       17.162        0.032      345.222       22.598      863.414
07/15/2014  04:10:00     -101.994      -38.225        2.987       34.411       29.989       16.013     1184.146      899.337      256.405        0.711        0.117      108.922       14.368        0.017      345.221       22.597      863.418
07/15/2014  04:11:00      -83.680      -27.603        6.197       43.602       32.800       20.580     1901.116     1075.827      423.523        0.560        0.170       88.115       19.876        0.051      345.315       22.758      863.419
07/15/2014  04:12:00      -70.103      -17.431        6.122       43.060       26.730       18.248     1854.139      714.481      332.989        0.408        0.145       72.237       21.588        0.089      345.248       22.642      863.430
07/15/2014  04:13:00      -94.640       14.810       -7.870       35.005       26.235       15.685     1225.380      688.280      246.022        0.570        0.108       95.792        6.551        0.005      345.009       22.233      863.455
07/15/2014  04:14:00     -119.280       12.585       -6.130       34.124       30.998       20.933     1164.437      960.872      438.211        0.849        0.128      119.942       17.243        0.021      345.049       22.301      863.485
07/15/2014  04:15:00     -148.038       38.213      -15.078       25.525       25.428       18.494      651.506      646.564      342.029        1.262        0.082      152.890        8.921        0.003      345.096       22.382      863.506
07/15/2014  04:16:00     -105.162       -4.085       -8.517       43.010       42.922       20.434     1849.885     1842.306      417.537        0.763        0.205      105.242       22.565        0.046      345.049       22.302      863.522
07/15/2014  04:17:00      -37.134      -16.998       -4.251       50.456       23.721       22.988     2545.779      562.673      528.441        0.266        0.182       40.839       28.219        0.477      345.034       22.279      863.529
07/15/2014  04:18:00      -51.677      -28.428       -1.328       43.892       24.847       16.078     1926.475      617.392      258.501        0.314        0.140       58.980       20.288        0.118      345.000       22.219      863.545
07/15/2014  04:19:00      -73.887      -28.005       -1.230       19.245       20.889       11.557      370.358      436.369      133.568        0.359        0.047       79.016        8.028        0.010      344.978       22.181      863.551
07/15/2014  04:20:00      -77.575      -19.643        0.687       24.287       25.719       15.688      589.881      661.445      246.123        0.395        0.075       80.023       12.451        0.024      344.976       22.178      863.550
07/15/2014  04:21:00      -81.373      -33.051        2.027       25.394       18.774       10.007      644.873      352.481      100.135        0.441        0.055       87.829       12.191        0.019      344.987       22.195      863.550
07/15/2014  04:22:00      -56.286      -24.186        0.486       20.708       15.618       16.164      428.831      243.928      261.269        0.234        0.047       61.263       10.155        0.027      345.021       22.255      863.561
07/15/2014  04:23:00      -52.409      -28.913        0.440       28.790       21.930        9.978      828.840      480.921       99.554        0.250        0.070       59.855        8.090        0.018      345.048       22.301      863.587
07/15/2014  04:24:00      -45.285      -56.440        0.347       17.221       20.188       10.319      296.546      407.553      106.489        0.302        0.041       72.362        8.666        0.014      345.159       22.493      863.607
07/15/2014  04:25:00      -80.228       -5.934       -4.222       18.720       28.888       14.744      350.443      834.517      217.371        0.395        0.070       80.447        4.782        0.004      345.057       22.316      863.612
07/15/2014  04:26:00      -86.927        0.772       -4.976       33.445       22.160       14.470     1118.597      491.071      209.367        0.470        0.091       86.930       13.475        0.024      344.966       22.161      863.634
07/15/2014  04:27:00     -122.459        4.495      -12.529       35.872       33.598       18.184     1286.803     1128.794      330.659        0.896        0.137      122.542       13.477        0.012      344.963       22.154      863.630
07/15/2014  04:28:00     -119.093      -22.663       -3.383       39.311       34.877       22.224     1545.331     1216.398      493.901        0.898        0.163      121.230       22.029        0.033      344.928       22.094      863.620
07/15/2014  04:29:00      -87.256      -29.403        1.050       40.891       40.144       16.803     1672.058     1611.548      282.331        0.602        0.178       92.077       17.417        0.036      344.919       22.080      863.609
07/15/2014  04:30:00      -87.825      -38.739        2.150       28.551       36.220       19.269      815.151     1311.885      371.279        0.586        0.125       95.989       15.545        0.026      344.959       22.148      863.584
07/15/2014  04:31:00     -104.819      -52.783       -2.598       56.291       40.149       21.530     3168.665     1611.953      463.521        0.951        0.262      117.359       21.289        0.033      345.045       22.295      863.564
07/15/2014  04:32:00     -160.757      -25.345       -3.041       37.653       37.523       24.053     1417.771     1407.996      578.570        1.495        0.170      162.742       10.733        0.004      345.108       22.404      863.552
07/15/2014  04:33:00     -120.513      -36.468        0.316       38.484       38.764       23.512     1481.028     1502.634      552.820        0.969        0.177      125.910       19.195        0.023      345.097       22.384      863.547
07/15/2014  04:34:00     -116.027      -40.659       -0.526       47.672       41.443       24.739     2272.588     1717.484      612.019        0.986        0.230      122.945       22.891        0.035      345.158       22.488      863.546
07/15/2014  04:35:00     -156.728      -43.954        1.062       52.941       45.504       29.491     2802.776     2070.577      869.712        1.612        0.287      162.775       24.753        0.023      345.236       22.620      863.542
07/15/2014  04:36:00     -119.996      -28.976       -1.807       63.517       57.341       28.118     4034.394     3288.037      790.644        1.168        0.406      123.445       32.152        0.068      345.096       22.383      863.550
07/15/2014  04:37:00     -143.512       19.399       -7.498       42.491       28.562       29.870     1805.520      815.797      892.218        1.227        0.176      144.817       24.338        0.028      344.984       22.190      863.558
07/15/2014  04:38:00     -169.238       40.657       -7.371       41.384       27.068       25.186     1712.629      732.686      634.330        1.671        0.154      174.053       25.327        0.021      344.874       22.004      863.569
07/15/2014  04:39:00     -102.606       -9.770       -7.854       47.330       26.020       13.207     2240.117      677.046      174.412        0.689        0.155      103.070        9.993        0.009      344.923       22.088      863.568
07/15/2014  04:40:00     -109.474      -31.304      -12.092       27.958       22.743       18.123      781.628      517.240      328.438        0.737        0.081      113.862       11.739        0.011      344.870       21.994      863.567
07/15/2014  04:41:00     -108.706      -51.701      -10.832       45.451       26.117       23.836     2065.827      682.118      568.144        0.896        0.166      120.374       19.442        0.026      344.801       21.877      863.576
07/15/2014  04:42:00     -142.944      -41.702      -15.576       40.134       29.516       24.557     1610.716      871.203      603.061        1.275        0.154      148.903       22.662        0.023      344.807       21.887      863.587
07/15/2014  04:43:00     -163.510      -28.516       -9.590       31.799       29.099       22.877     1011.178      846.743      523.369        1.501        0.119      165.978       20.863        0.016      344.653       21.624      863.599
07/15/2014  04:44:00     -119.653      -47.391       -4.327       33.973       26.436       19.944     1154.166      698.886      397.778        0.942        0.113      128.696       12.109        0.009      344.592       21.520      863.612
07/15/2014  04:45:00     -123.210      -38.458        0.594       53.499       37.770       23.885     2862.149     1426.541      570.496        1.076        0.243      129.072       25.026        0.038      344.559       21.464      863.640
07/15/2014  04:46:00      -23.921        3.624        3.263       30.338       20.505       16.134      920.402      420.449      260.308        0.110        0.080       24.194        3.498        0.021      344.557       21.461      863.649
07/15/2014  04:47:00      -67.004       16.731       -2.217       23.830       19.783       13.998      567.868      391.375      195.954        0.296        0.058       69.061       10.863        0.025      344.527       21.410      863.666
07/15/2014  04:48:00     -112.616        4.670      -13.369       22.433       15.089       14.522      503.261      227.684      210.882        0.691        0.047      112.713       13.011        0.013      344.581       21.502      863.685
07/15/2014  04:49:00     -107.079      -24.341      -15.241       22.348       19.406       13.305      499.428      376.574      177.017        0.667        0.053      109.811       13.320        0.015      344.573       21.485      863.683
07/15/2014  04:50:00      -94.760      -26.639       -8.749       20.218       23.201       12.329      408.761      538.301      152.003        0.543        0.055       98.434       10.453        0.011      344.615       21.561      863.685
07/15/2014  04:51:00     -106.446      -41.711      -10.330       20.257       16.183        9.632      410.350      261.905       92.776        0.697        0.038      114.327        9.364        0.007      344.631       21.588      863.691
07/15/2014  04:52:00      -88.967      -24.850       -8.674       18.723       26.506       16.951      350.552      702.542      287.348        0.497        0.067       92.373       12.395        0.018      344.690       21.686      863.686
07/15/2014  04:53:00      -93.895      -39.675       -3.040       24.472       21.983       15.005      598.885      483.247      225.148        0.585        0.065      101.934       15.607        0.023      344.688       21.684      863.683
07/15/2014  04:54:00      -93.548      -60.495       -2.727       31.824       20.111       18.802     1012.788      404.464      353.522        0.709        0.089      111.404       17.657        0.025      344.685       21.679      863.697
07/15/2014  04:55:00      -76.558      -45.865        1.223       30.278       31.524       18.650      916.762      993.793      347.823        0.511        0.113       89.245       17.607        0.039      344.680       21.670      863.707
07/15/2014  04:56:00      -85.091      -27.946       -2.560       31.636       20.653       10.185     1000.843      426.565      103.730        0.478        0.077       89.562       11.093        0.015      344.714       21.729      863.707
07/15/2014  04:57:00      -79.317      -40.292       -0.046       18.124       20.401       14.597      328.494      416.208      213.075        0.444        0.048       88.965        8.715        0.010      344.727       21.750      863.707
07/15/2014  04:58:00      -69.343      -40.081       -0.597       18.513       17.883       12.600      342.718      319.815      158.767        0.362        0.041       80.093       11.322        0.020      344.776       21.835      863.712
07/15/2014  04:59:00     -104.493      -38.731        0.675       30.767       21.255       14.377      946.599      451.773      206.693        0.701        0.080      111.439       11.422        0.011      344.848       21.959      863.700
07/15/2014  05:00:00     -119.190      -23.216       -4.178       19.810       23.268       12.714      392.418      541.397      161.647        0.793        0.055      121.430        9.914        0.007      344.762       21.811      863.691
07/15/2014  05:01:00     -102.936      -26.135        0.383       35.622       31.213       22.245     1268.894      974.228      494.842        0.701        0.137      106.202       14.571        0.019      344.681       21.670      863.681
07/15/2014  05:02:00     -170.541      -60.396       -3.116       33.671       30.295       22.755     1133.769      917.817      517.786        1.765        0.128      180.919       20.622        0.013      344.633       21.590      863.684
07/15/2014  05:03:00     -158.376      -37.405      -14.169       33.157       24.829       17.781     1099.360      616.468      316.159        1.436        0.102      162.733       13.678        0.007      344.564       21.474      863.677
07/15/2014  05:04:00     -115.475       -6.632       -9.403       48.634       29.481       22.976     2365.286      869.118      527.877        0.861        0.188      115.665       22.757        0.039      344.488       21.343      863.667
07/15/2014  05:05:00     -179.498      -27.531      -16.207       46.519       33.646       29.313     2164.048     1132.030      859.227        1.870        0.208      181.597       25.154        0.019      344.510       21.380      863.663
07/15/2014  05:06:00     -157.399      -15.565      -10.994       45.010       36.423       24.242     2025.924     1326.659      587.678        1.454        0.197      158.167       24.359        0.024      344.535       21.423      863.665
07/15/2014  05:07:00     -209.474      -18.800      -21.078       59.910       45.591       33.014     3589.151     2078.572     1089.895        2.572        0.338      210.316       32.856        0.024      344.553       21.452      863.663
07/15/2014  05:08:00     -205.063      -46.198      -24.829       43.859       50.257       29.077     1923.572     2525.718      845.466        2.505        0.265      210.202       20.722        0.010      344.577       21.490      863.652
07/15/2014  05:09:00     -203.187      -30.799      -11.025       41.229       48.076       27.011     1699.832     2311.272      729.570        2.355        0.237      205.508       17.776        0.007      344.564       21.472      863.659
07/15/2014  05:10:00     -144.956      -14.794      -10.835       56.142       51.262       24.098     3151.923     2627.801      580.708        1.385        0.318      145.709       27.359        0.035      344.623       21.572      863.665
07/15/2014  05:11:00     -109.296      -31.154       -8.904       51.481       35.923       24.355     2650.320     1290.487      593.154        0.876        0.227      113.650       26.073        0.053      344.617       21.563      863.664
07/15/2014  05:12:00     -118.892        9.677      -10.092       38.079       31.431       20.701     1450.013      987.911      428.547        0.860        0.143      119.285       19.185        0.026      344.662       21.639      863.670
07/15/2014  05:13:00     -113.424       -5.305      -13.042       35.353       31.923       22.748     1249.835     1019.088      517.493        0.792        0.139      113.548       21.691        0.036      344.785       21.849      863.678
07/15/2014  05:14:00     -148.184       38.177       -7.173       21.102       20.801       14.266      445.289      432.695      203.530        1.227        0.054      153.023       10.164        0.004      344.776       21.834      863.696
07/15/2014  05:15:00     -161.725       52.013      -17.103       46.681       22.092       22.454     2179.104      488.051      504.188        1.616        0.159      169.884       16.653        0.010      344.908       22.059      863.695
07/15/2014  05:16:00     -114.097       12.285      -12.509       59.044       39.317       20.529     3486.248     1545.806      421.431        0.939        0.273      114.756       13.251        0.013      344.887       22.025      863.719
07/15/2014  05:17:00      -42.953      -14.243        3.006       45.415       39.847       26.360     2062.484     1587.768      694.845        0.320        0.217       45.253       31.425        0.482      344.781       21.842      863.751
07/15/2014  05:18:00      -34.050       11.879        1.881       27.889       22.653       16.327      777.785      513.170      266.557        0.143        0.078       36.062       13.886        0.148      344.782       21.844      863.767
07/15/2014  05:19:00      -58.461      -11.551       -7.547       20.000       22.606       13.448      400.019      511.024      180.858        0.235        0.055       59.592       11.167        0.035      344.806       21.886      863.782
07/15/2014  05:20:00      -27.679      -19.407        1.449       22.914       20.286       14.830      525.055      411.532      219.927        0.115        0.058       33.804       13.643        0.163      344.798       21.873      863.797
07/15/2014  05:21:00      -46.849      -31.451      -12.954       13.024       16.501       10.967      169.623      272.291      120.286        0.196        0.028       56.427        3.452        0.004      344.826       21.919      863.794
07/15/2014  05:22:00      -83.645      -20.934       -6.251       29.410       28.038       16.705      864.928      786.118      279.061        0.470        0.097       86.224       19.447        0.051      344.745       21.780      863.785
07/15/2014  05:23:00      -95.257      -53.851       -7.086       19.334       17.404       11.218      373.799      302.891      125.845        0.641        0.040      109.425        9.214        0.007      344.779       21.841      863.792
07/15/2014  05:24:00     -102.391      -64.792       -0.383       29.705       19.956       14.892      882.404      398.239      221.766        0.809        0.075      121.169        6.419        0.003      344.755       21.799      863.792
07/15/2014  05:25:00     -101.609      -71.577       -0.001       30.693       24.814       17.447      942.066      615.744      304.384        0.865        0.093      124.288       18.092        0.021      344.818       21.907      863.790
07/15/2014  05:26:00      -83.547      -61.563        0.576       34.268       24.877       18.388     1174.281      618.845      338.119        0.645        0.107      103.779       12.890        0.015      344.776       21.834      863.798
07/15/2014  05:27:00      -96.806      -58.357       -2.680       27.904       15.119       15.054      778.634      228.582      226.616        0.701        0.062      113.035       10.113        0.008      344.864       21.984      863.799
07/15/2014  05:28:00     -101.364      -47.397       -9.340       35.005       20.571       14.264     1225.365      423.174      203.451        0.723        0.093      111.898       13.408        0.014      344.805       21.884      863.799
07/15/2014  05:29:00     -102.744      -29.725       -2.160       26.361       19.166       13.788      694.894      367.346      190.117        0.635        0.063      106.957       14.093        0.017      344.758       21.804      863.804
07/15/2014  05:30:00     -104.536      -33.496       -6.275       21.159       16.312       10.977      447.684      266.073      120.491        0.646        0.042      109.771        8.788        0.006      344.742       21.776      863.811
07/15/2014  05:31:00     -130.359      -49.609       -4.880       15.667       19.769       12.120      245.442      390.807      146.887        1.013        0.039      139.479        8.687        0.004      344.768       21.821      863.817
07/15/2014  05:32:00     -107.625      -52.134        0.056       22.369       20.028       12.964      500.371      401.107      168.072        0.769        0.053      119.587        9.764        0.007      344.689       21.686      863.815
07/15/2014  05:33:00     -118.218      -26.885       -6.963       26.599       25.860       16.074      707.511      668.738      258.368        0.819        0.082      121.236       14.283        0.014      344.639       21.600      863.815
07/15/2014  05:34:00      -96.920      -23.888       -1.038       33.511       26.869       20.362     1122.997      721.932      414.601        0.611        0.113       99.821       18.818        0.036      344.513       21.385      863.818
07/15/2014  05:35:00      -99.997      -16.556      -10.460       28.493       21.486       19.175      811.829      461.649      367.690        0.601        0.082      101.358       18.901        0.035      344.580       21.500      863.829
07/15/2014  05:36:00     -125.396       -5.485      -10.495       34.691       25.415       18.406     1203.454      645.938      338.770        0.903        0.109      125.516       11.561        0.008      344.605       21.542      863.852
07/15/2014  05:37:00     -119.367       -2.172       -9.438       27.719       27.220       17.951      768.360      740.950      322.250        0.809        0.092      119.386       15.680        0.017      344.581       21.502      863.864
07/15/2014  05:38:00     -116.273       11.787       -5.484       40.602       32.016       20.154     1648.492     1025.045      406.187        0.838        0.154      116.869       14.776        0.016      344.561       21.467      863.869
07/15/2014  05:39:00      -53.203        2.474        0.368       35.534       53.433       23.379     1262.664     2855.052      546.592        0.375        0.233       53.261       15.156        0.081      344.558       21.462      863.875
07/15/2014  05:40:00     -133.470      -16.433        0.237       60.196       40.168       25.663     3623.614     1613.498      658.577        1.199        0.295      134.478       27.980        0.043      344.535       21.423      863.879
07/15/2014  05:41:00     -128.872      -37.724       -5.876       34.738       29.809       23.984     1206.699      888.553      575.253        1.037        0.134      134.280       22.079        0.027      344.528       21.411      863.882
07/15/2014  05:42:00     -152.863       -3.829       -9.771       45.403       24.074       23.009     2061.441      579.545      529.436        1.332        0.159      152.910       26.714        0.031      344.487       21.341      863.891
07/15/2014  05:43:00     -169.525       16.622      -14.074       25.780       22.447       15.144      664.585      503.856      229.349        1.531        0.070      170.338       11.577        0.005      344.491       21.347      863.885
07/15/2014  05:44:00     -157.210        2.439      -12.913       29.488       24.939       17.146      869.539      621.970      293.988        1.334        0.089      157.229       13.741        0.008      344.485       21.337      863.872
07/15/2014  05:45:00     -181.179       -7.423      -17.851       26.099       30.261       16.061      681.156      915.745      257.959        1.753        0.093      181.331       12.172        0.005      344.525       21.406      863.859
07/15/2014  05:46:00     -174.897      -22.222      -10.682       43.754       24.781       19.890     1914.424      614.096      395.607        1.706        0.146      176.303       21.637        0.015      344.581       21.502      863.855
07/15/2014  05:47:00     -152.774      -29.722      -14.111       39.635       30.342       21.078     1570.907      920.621      444.295        1.368        0.147      155.638       18.124        0.014      344.646       21.614      863.854
07/15/2014  05:48:00     -107.536       -2.607       -7.289       41.833       30.530       20.774     1750.031      932.090      431.575        0.737        0.156      107.567       21.253        0.039      344.602       21.537      863.833
07/15/2014  05:49:00     -123.173      -29.616       -3.103       43.327       36.080       26.357     1877.263     1301.789      694.715        0.997        0.194      126.683       18.383        0.021      344.636       21.596      863.822
07/15/2014  05:50:00     -119.061      -31.998        1.985       49.865       41.603       29.040     2486.545     1730.847      843.337        1.013        0.253      123.285       23.466        0.036      344.596       21.527      863.818
07/15/2014  05:51:00      -92.967      -23.628        5.371       55.292       49.295       25.574     3057.156     2429.963      654.035        0.768        0.307       95.922       29.969        0.098      344.572       21.485      863.826
07/15/2014  05:52:00     -130.394      -19.491       -4.459       38.640       27.975       18.865     1493.012      782.608      355.892        1.002        0.132      131.843       18.693        0.020      344.614       21.560      863.830
07/15/2014  05:53:00     -107.524      -32.126        3.391       52.082       40.105       26.526     2712.506     1608.425      703.618        0.881        0.251      112.221       27.917        0.062      344.545       21.439      863.825
07/15/2014  05:54:00     -105.295      -36.666       -0.552       39.995       27.165       19.418     1599.605      737.958      377.063        0.757        0.136      111.497       17.001        0.023      344.530       21.415      863.822
07/15/2014  05:55:00     -117.558      -59.584       -7.165       38.223       28.507       17.910     1461.008      812.643      320.783        1.001        0.130      131.796       10.716        0.007      344.568       21.479      863.817
07/15/2014  05:56:00      -80.784      -55.069        5.342       42.158       42.567       23.578     1777.302     1811.969      555.926        0.687        0.207       97.768       19.600        0.040      344.591       21.518      863.816
07/15/2014  05:57:00      -96.989      -18.377        1.914       49.417       40.725       26.516     2442.016     1658.548      703.084        0.728        0.240       98.715       22.568        0.052      344.627       21.581      863.811
07/15/2014  05:58:00     -104.187      -28.945       -4.526       33.564       26.527       21.335     1126.564      703.683      455.184        0.700        0.114      108.133       21.271        0.039      344.602       21.538      863.811
07/15/2014  05:59:00     -103.909      -38.227       -6.407       19.430       16.495       12.251      377.511      272.071      150.094        0.655        0.040      110.717        2.621        0.001      344.643       21.608      863.811
07/15/2014  06:00:00     -113.479      -51.084       -5.983       22.985       28.584       17.977      528.295      817.026      323.175        0.860        0.083      124.447       11.151        0.008      344.659       21.634      863.819
07/15/2014  06:01:00      -76.955      -74.717        6.739       65.978       53.146       29.577     4353.059     2824.474      874.782        0.980        0.403      107.260       33.455        0.097      344.615       21.558      863.833
07/15/2014  06:02:00     -147.080      -99.985       -0.529       52.829       33.610       25.228     2790.955     1129.643      636.475        1.809        0.228      177.847       19.016        0.011      344.652       21.621      863.843
07/15/2014  06:03:00     -109.393      -62.942       -0.902       52.572       43.743       26.053     2763.843     1913.448      678.739        1.064        0.268      126.208       27.860        0.049      344.694       21.695      863.843
07/15/2014  06:04:00     -146.806     -104.485       -8.849       43.534       32.684       23.443     1895.183     1068.255      549.553        1.803        0.176      180.192       20.264        0.013      344.764       21.813      863.826
07/15/2014  06:05:00     -114.041      -88.021        4.459       36.840       36.855       25.836     1357.180     1358.290      667.491        1.208        0.169      144.059       22.309        0.024      344.681       21.670      863.817
07/15/2014  06:06:00     -120.450      -85.679        5.386       55.249       50.192       27.846     3052.502     2519.269      775.375        1.411        0.317      147.815       30.943        0.044      344.761       21.810      863.815
07/15/2014  06:07:00     -126.438     -103.082       -6.195       42.466       33.150       23.640     1803.400     1098.920      558.840        1.506        0.173      163.133       23.273        0.020      344.729       21.755      863.804
07/15/2014  06:08:00     -126.529      -96.672       -9.777       44.889       42.404       27.305     2014.988     1798.106      745.565        1.500        0.228      159.232       26.813        0.028      344.737       21.767      863.802
07/15/2014  06:09:00      -86.167      -39.867       -1.110       35.991       26.357       26.741     1295.368      694.716      715.101        0.586        0.135       94.942       16.991        0.032      344.666       21.645      863.800
07/15/2014  06:10:00      -98.712      -80.096      -11.504       27.711       31.525       21.185      767.880      993.822      448.817        0.925        0.111      127.120       13.311        0.011      344.697       21.698      863.805
07/15/2014  06:11:00     -140.827      -55.666       -9.100       36.314       28.070       15.347     1318.698      787.906      235.517        1.268        0.117      151.430       11.577        0.006      344.695       21.696      863.802
07/15/2014  06:12:00     -121.377      -26.696        2.248       50.330       32.455       22.321     2533.118     1053.329      498.245        0.977        0.204      124.278       23.593        0.036      344.669       21.652      863.792
07/15/2014  06:13:00     -107.999      -20.737        2.508       42.389       28.886       20.627     1796.807      834.397      425.463        0.758        0.153      109.972       24.027        0.048      344.631       21.586      863.788
07/15/2014  06:14:00      -67.334       -5.742        2.772       44.236       25.318       16.260     1956.847      641.024      264.391        0.372        0.143       67.578       17.912        0.070      344.555       21.457      863.792
07/15/2014  06:15:00     -131.300      -10.754      -11.906       30.657       32.733       18.838      939.852     1071.440      354.880        0.993        0.118      131.740       15.981        0.015      344.547       21.443      863.793
07/15/2014  06:16:00      -91.883      -51.294       -4.065       34.205       27.893       19.406     1169.968      778.024      376.609        0.671        0.116      105.231       14.142        0.018      344.540       21.431      863.789
07/15/2014  06:17:00      -60.098        2.953       -3.040       26.320       24.393       15.915      692.730      595.014      253.282        0.259        0.077       60.171       11.297        0.035      344.470       21.311      863.791
07/15/2014  06:18:00      -57.093        5.696       -2.041       25.527       18.159       15.213      651.629      329.751      231.427        0.225        0.061       57.377       14.384        0.063      344.410       21.208      863.806
07/15/2014  06:19:00      -33.967       17.796       -4.128       10.127       12.273        9.653      102.561      150.632       93.189        0.092        0.017       38.347        5.264        0.019      344.426       21.236      863.826
07/15/2014  06:20:00        5.491        5.826       -1.206        7.930        9.374        8.241       62.892       87.872       67.911        0.014        0.011        8.006        3.988        0.248      344.477       21.325      863.838
07/15/2014  06:21:00       19.531       16.762        3.418        9.087       11.489        7.711       82.575      132.007       59.464        0.047        0.014       25.738        5.871        0.052      344.429       21.238      863.848
07/15/2014  06:22:00        5.217        5.822        6.038        9.991        8.187        8.103       99.815       67.035       65.652        0.016        0.012        7.818        5.054        0.418      344.462       21.298      863.852
07/15/2014  06:23:00       10.913        9.766       -3.529        7.933       10.771        8.575       62.931      116.014       73.522        0.024        0.013       14.645        7.718        0.278      344.428       21.238      863.840
07/15/2014  06:24:00        3.752       15.270       -0.557        6.885       14.363        5.463       47.409      206.302       29.840        0.027        0.014       15.724        6.998        0.198      344.476       21.323      863.825
07/15/2014  06:25:00       -9.837       56.150       -6.915        9.283       12.308        5.521       86.168      151.487       30.485        0.178        0.013       57.005        3.901        0.005      344.579       21.497      863.810
07/15/2014  06:26:00       -0.814       74.255        0.074       16.057       30.255       13.715      257.817      915.351      188.098        0.344        0.068       74.260       16.256        0.048      344.515       21.390      863.805
07/15/2014  06:27:00       30.942      131.683      -19.276       14.744       22.159       16.287      217.389      491.035      265.261        0.982        0.049      135.270       13.855        0.010      344.397       21.187      863.800
07/15/2014  06:28:00       16.831       81.849       -5.630       21.899       37.853       22.874      479.546     1432.879      523.235        0.472        0.122       83.561       22.614        0.073      344.297       21.017      863.788
07/15/2014  06:29:00       26.897       63.867       -8.212       21.471       33.247       18.771      460.995     1105.362      352.365        0.339        0.096       69.299       17.760        0.066      344.320       21.055      863.779
07/15/2014  06:30:00       33.225       36.826       -2.512       19.678       24.826       16.865      387.221      616.308      284.422        0.188        0.064       49.599        3.417        0.005      344.387       21.170      863.771
07/15/2014  06:31:00        2.955       -9.135        5.483       13.064       22.094       10.028      170.659      488.125      100.560        0.044        0.038        9.601        7.931        0.682      344.489       21.343      863.766
07/15/2014  06:32:00        5.492      -31.599       -6.057       11.543       17.865       13.364      133.244      319.171      178.588        0.085        0.032       32.072       12.332        0.148      344.524       21.404      863.772
07/15/2014  06:33:00        1.328      -14.311        7.067       12.892       16.658       14.081      166.202      277.503      198.267        0.045        0.032       14.372       12.520        0.759      344.573       21.486      863.793
07/15/2014  06:34:00      -23.973      -24.055       -1.366       27.237       21.144       12.744      741.835      447.068      162.400        0.125        0.068       33.960       10.663        0.099      344.550       21.448      863.820
07/15/2014  06:35:00       -7.294      -30.566        6.071       23.378       22.253       15.118      546.548      495.198      228.563        0.115        0.064       31.424       11.517        0.134      344.627       21.579      863.853
07/15/2014  06:36:00      -43.442      -99.161        2.171       25.250       29.731       17.469      637.550      883.934      305.174        0.678        0.091      108.259       12.567        0.013      344.673       21.659      863.875
07/15/2014  06:37:00      -34.683      -69.654        1.569       32.796       33.005       22.246     1075.597     1089.302      494.883        0.436        0.133       77.811       17.531        0.051      344.689       21.687      863.889
07/15/2014  06:38:00      -52.103      -48.424      -11.905       32.035       32.496       16.730     1026.225     1056.016      279.890        0.378        0.118       71.131        6.334        0.008      344.706       21.715      863.903
07/15/2014  06:39:00      -27.290       -7.298        9.595       23.483       26.515       15.385      551.455      703.048      236.708        0.119        0.075       28.249       11.712        0.172      344.689       21.687      863.901
07/15/2014  06:40:00      -45.576       -9.676       -0.627       21.008       10.008       12.035      441.351      100.159      144.847        0.143        0.034       46.591        5.857        0.016      344.732       21.760      863.894
07/15/2014  06:41:00      -56.412      -21.030       -7.917       15.372       10.365        8.542      236.313      107.427       72.960        0.205        0.021       60.205        5.248        0.008      344.824       21.915      863.896
07/15/2014  06:42:00      -46.532      -20.273       -2.876        5.857        8.337        4.832       34.304       69.501       23.349        0.136        0.006       50.757        3.863        0.006      344.810       21.891      863.891
07/15/2014  06:43:00      -60.125        0.244       -7.618       11.298        9.813        6.625      127.642       96.289       43.887        0.197        0.013       60.125        5.231        0.008      344.778       21.837      863.887
07/15/2014  06:44:00      -66.757      -29.317       -8.066       14.141        9.811        7.659      199.970       96.262       58.666        0.287        0.018       72.911        5.857        0.006      344.769       21.822      863.877
07/15/2014  06:45:00      -61.354       -5.175       -6.990        8.421       11.559        6.928       70.908      133.615       48.002        0.205        0.013       61.572        3.228        0.003      344.796       21.866      863.882
07/15/2014  06:46:00      -73.480      -14.241       -8.881       14.471       11.913        7.558      209.406      141.908       57.121        0.304        0.020       74.847        6.488        0.008      344.765       21.813      863.889
07/15/2014  06:47:00      -88.153      -21.350      -10.617       16.968       13.478        9.570      287.905      181.655       91.577        0.445        0.028       90.702        9.138        0.010      344.691       21.689      863.889
07/15/2014  06:48:00      -64.535      -17.490       -8.982        9.391       10.691        6.651       88.198      114.302       44.239        0.240        0.012       66.862        4.311        0.004      344.723       21.745      863.889
07/15/2014  06:49:00      -44.654      -23.873       -3.096        9.735        5.662        5.319       94.774       32.062       28.293        0.136        0.008       50.635        5.204        0.011      344.778       21.842      863.896
07/15/2014  06:50:00      -15.791      -31.051       -4.965       10.666       10.164        6.595      113.770      103.312       43.497        0.075        0.013       34.836        5.120        0.022      344.923       22.085      863.896
07/15/2014  06:51:00      -29.372      -20.663       -8.097        9.198        8.924        6.503       84.612       79.642       42.284        0.078        0.010       35.912        5.646        0.025      344.916       22.073      863.903
07/15/2014  06:52:00      -13.791      -19.971        1.040       12.267        8.469       10.813      150.490       71.717      116.910        0.046        0.017       24.270        6.345        0.068      344.964       22.154      863.900
07/15/2014  06:53:00      -20.508       -7.900        2.288       15.013        9.837        6.439      225.384       96.758       41.459        0.043        0.018       21.977        6.300        0.082      344.862       21.982      863.900
07/15/2014  06:54:00        2.069       -2.949       -1.256       10.241        5.723        6.154      104.877       32.757       37.873        0.009        0.009        3.602        2.745        0.581      345.003       22.221      863.911
07/15/2014  06:55:00      -42.780       -8.100        0.576       17.108       11.691        7.037      292.678      136.679       49.514        0.119        0.024       43.540        6.455        0.022      344.916       22.072      863.931
07/15/2014  06:56:00      -69.473       11.448       -3.831       15.362       11.633        8.186      236.006      135.324       67.008        0.271        0.022       70.410        3.207        0.002      344.869       21.996      863.947
07/15/2014  06:57:00      -58.914       22.866       -8.699       11.539        9.644        6.879      133.146       93.003       47.324        0.217        0.014       63.196        3.891        0.004      344.780       21.842      863.952
07/15/2014  06:58:00      -34.788       23.697       -3.320       16.517       12.026        9.565      272.797      144.634       91.490        0.115        0.025       42.092        8.320        0.039      344.678       21.668      863.958
07/15/2014  06:59:00       -4.449       19.284        3.974       16.710       11.219        9.488      279.209      125.871       90.014        0.045        0.025       19.790        7.903        0.159      344.846       21.954      863.967
07/15/2014  07:00:00       27.602       48.789      -12.577       12.884       11.280        9.245      165.988      127.245       85.469        0.184        0.019       56.056        6.489        0.013      344.698       21.703      863.966
07/15/2014  07:01:00       11.788       33.696       -3.967       10.480        7.868        9.948      109.827       61.898       98.966        0.078        0.014       35.699        5.045        0.020      344.800       21.875      863.953
07/15/2014  07:02:00       26.519       19.033       -3.552       15.582       10.642       10.073      242.788      113.261      101.475        0.077        0.023       32.642        4.770        0.021      344.761       21.808      863.952
07/15/2014  07:03:00       22.479        9.016       -1.526       11.244        9.652        6.571      126.424       93.154       43.178        0.043        0.013       24.219        2.156        0.008      344.718       21.734      863.960
07/15/2014  07:04:00        6.916        4.293        1.035        5.836        3.792        7.114       34.063       14.380       50.612        0.008        0.005        8.140        3.938        0.234      344.779       21.841      863.967
07/15/2014  07:05:00        8.213       -0.171        0.541        7.514        9.076        6.744       56.461       82.369       45.485        0.013        0.009        8.215        4.788        0.340      344.820       21.908      863.982
07/15/2014  07:06:00        3.393        0.375       -0.204        6.315       11.728        8.902       39.875      137.543       79.240        0.013        0.013        3.413        4.634        1.843      345.182       22.530      863.989
07/15/2014  07:07:00       -3.291       -8.584        7.644       15.153       17.258       14.043      229.621      297.829      197.219        0.043        0.036        9.193       12.050        1.718      345.138       22.455      864.007
07/15/2014  07:08:00       16.639       25.827        5.206        6.737        8.602        8.460       45.384       74.002       71.579        0.058        0.010       30.723        5.955        0.038      345.026       22.262      864.018
07/15/2014  07:09:00       13.671       25.239       -1.849        6.727        5.472        4.017       45.253       29.945       16.139        0.046        0.005       28.704        2.332        0.007      345.079       22.355      864.032
07/15/2014  07:10:00       29.324       27.117        7.681       16.847       10.496        6.801      283.822      110.171       46.256        0.105        0.022       39.941        7.303        0.033      345.135       22.450      864.040
07/15/2014  07:11:00       45.150       37.284        9.452       13.189       15.605       10.822      173.942      243.507      117.121        0.203        0.027       58.555        7.631        0.017      345.109       22.405      864.057
07/15/2014  07:12:00       75.881       37.148        8.054       10.758       12.501       13.822      115.726      156.280      191.039        0.383        0.023       84.486        7.706        0.008      345.161       22.494      864.064
07/15/2014  07:13:00       75.535       36.588        9.231       19.781       18.619       16.100      391.274      346.665      259.218        0.406        0.050       83.930       11.698        0.019      345.250       22.646      864.071
07/15/2014  07:14:00       10.977      -14.270       14.685       22.161       31.104       14.297      491.125      967.433      204.407        0.110        0.083       18.003       16.874        0.878      345.517       23.103      864.077
07/15/2014  07:15:00       -5.619       25.294        9.786       14.947       22.540       11.886      223.406      508.034      141.273        0.082        0.044       25.911       10.887        0.177      345.480       23.040      864.075
07/15/2014  07:16:00       -8.121       15.259        8.342       12.435       17.502       12.916      154.641      306.327      166.829        0.050        0.031       17.286       12.859        0.553      345.484       23.048      864.089
07/15/2014  07:17:00      -22.924        6.703        6.964       12.003       11.221        7.024      144.078      125.910       49.338        0.047        0.016       23.884        7.045        0.087      345.441       22.975      864.081
07/15/2014  07:18:00      -22.993       -5.829       -4.865        8.489        8.658        8.931       72.063       74.961       79.759        0.041        0.011       23.720        5.957        0.063      345.304       22.737      864.078
07/15/2014  07:19:00      -10.742       -5.674       14.218       14.903       11.733        9.390      222.100      137.668       88.170        0.040        0.022       12.148        7.197        0.351      345.701       23.420      864.080
07/15/2014  07:20:00       -6.341      -17.849        9.209       13.877       15.673       12.864      192.580      245.628      165.475        0.052        0.030       18.942        6.391        0.114      345.680       23.381      864.084
07/15/2014  07:21:00       21.508      -54.213        6.028       23.195       32.982       22.395      538.026     1087.782      501.557        0.278        0.106       58.324       20.113        0.119      345.701       23.420      864.090
07/15/2014  07:22:00       28.792      -34.742        6.751       25.461       32.827       20.781      648.240     1077.615      431.859        0.212        0.108       45.122       19.798        0.193      345.833       23.646      864.090
07/15/2014  07:23:00       20.694      -22.115       14.857       20.916       33.302       24.754      437.480     1109.038      612.752        0.165        0.108       30.287       18.176        0.360      345.952       23.849      864.092
07/15/2014  07:24:00       24.277      -27.151        9.529       24.968       32.883       25.824      623.400     1081.317      666.895        0.189        0.119       36.422       19.929        0.299      345.989       23.913      864.095
07/15/2014  07:25:00        1.801       -5.774       20.535       11.351       17.364       14.812      128.845      301.509      219.406        0.055        0.032        6.049        7.384        1.490      346.337       24.512      864.080
07/15/2014  07:26:00        4.857      -33.632       10.314       24.349       25.842       15.710      592.882      667.802      246.798        0.138        0.075       33.980       14.185        0.174      345.839       23.656      864.072
07/15/2014  07:27:00      -39.630       -5.109       -1.018       11.948       11.775        9.054      142.766      138.642       81.983        0.098        0.018       39.958        4.448        0.012      345.548       23.155      864.048
07/15/2014  07:28:00      -52.967      -21.932       -2.579       21.241       12.230        7.963      451.187      149.567       63.411        0.198        0.033       57.328        5.675        0.010      345.615       23.274      864.035
07/15/2014  07:29:00      -62.601      -34.310        1.809       16.080       15.523       13.653      258.568      240.967      186.409        0.289        0.034       71.387        8.148        0.013      345.671       23.368      863.996
07/15/2014  07:30:00      -39.226      -33.322       -2.543       16.343       15.784       12.738      267.102      249.121      162.267        0.167        0.034       51.469       10.062        0.038      345.782       23.558      863.977
07/15/2014  07:31:00      -56.737      -38.386        0.770       20.895       14.866       10.308      436.608      220.995      106.253        0.273        0.038       68.503        6.216        0.008      345.776       23.547      863.954
07/15/2014  07:32:00      -63.987      -42.324        0.037       21.265       25.160       15.694      452.185      633.038      246.315        0.361        0.067       76.718       16.880        0.048      345.860       23.693      863.934
07/15/2014  07:33:00      -20.015      -47.203       -3.008        9.233        8.608        7.790       85.252       74.100       60.680        0.143        0.011       51.271        5.100        0.010      345.937       23.824      863.930
07/15/2014  07:34:00      -30.957      -37.895       -2.438        7.616       10.188        5.765       58.009      103.795       33.232        0.130        0.010       48.932        2.320        0.002      345.974       23.889      863.918
07/15/2014  07:35:00      -40.518       -9.486        9.649        7.965       12.407        8.804       63.448      153.926       77.509        0.106        0.015       41.613        7.779        0.035      345.968       23.878      863.929
07/15/2014  07:36:00      -17.304      -14.015       12.829       13.857       19.158       13.987      192.012      367.029      195.625        0.071        0.038       22.268        8.202        0.136      346.310       24.466      863.928
07/15/2014  07:37:00       19.556       -9.145       11.907       26.964       24.827       23.953      727.083      616.375      573.731        0.126        0.096       21.588       18.385        0.725      346.439       24.687      863.943
07/15/2014  07:38:00       -5.126       -8.399       26.007       10.366       17.469       14.367      107.459      305.165      206.405        0.070        0.031        9.840        8.025        0.665      346.752       25.226      863.957
07/15/2014  07:39:00       -8.961       -4.755       11.212       11.480       14.894       14.807      131.791      221.837      219.245        0.040        0.029       10.144       12.231        1.454      346.419       24.652      863.976
07/15/2014  07:40:00      -16.970      -19.779       -9.846       12.369       19.574        9.321      152.991      383.124       86.877        0.070        0.031       26.061        8.727        0.112      346.082       24.073      863.998
07/15/2014  07:41:00      -16.182       -8.194       -2.482       11.071       12.473       12.260      122.567      155.587      150.315        0.038        0.021       18.139        8.949        0.243      346.241       24.347      864.003
07/15/2014  07:42:00      -35.743      -46.348        1.872       35.361       28.275       16.742     1250.411      799.491      280.311        0.288        0.117       58.529       18.765        0.103      346.087       24.083      864.004
07/15/2014  07:43:00      -38.393      -17.388        2.151       27.036       21.938       14.054      730.936      481.280      197.525        0.160        0.070       42.147       12.875        0.093      346.078       24.067      863.999
07/15/2014  07:44:00      -37.976      -35.708        6.046       25.289       29.284       14.833      639.555      857.565      220.025        0.224        0.086       52.127       14.356        0.076      346.061       24.038      863.989
07/15/2014  07:45:00      -51.642      -38.285       -3.200       35.187       40.290       15.832     1238.133     1623.251      250.642        0.363        0.156       64.285       18.921        0.087      346.043       24.007      863.992
07/15/2014  07:46:00      -42.442      -24.795        8.285       37.795       30.274       21.982     1428.482      916.520      483.202        0.266        0.141       49.154       18.216        0.137      346.188       24.257      863.981
07/15/2014  07:47:00      -26.883      -98.407       -2.397       23.584       29.365       18.739      556.212      862.329      351.135        0.609        0.088      102.013        9.769        0.009      345.989       23.914      863.972
07/15/2014  07:48:00      -44.199      -75.525        0.916       32.146       54.348       17.321     1033.348     2953.721      300.011        0.597        0.214       87.507       14.675        0.028      345.924       23.803      863.980
07/15/2014  07:49:00      -49.606      -82.342        7.304       40.035       56.544       23.780     1602.831     3197.211      565.497        0.733        0.268       96.130       27.626        0.083      345.965       23.873      863.990
07/15/2014  07:50:00      -63.872     -112.056       -3.301       30.062       32.984       27.827      903.703     1087.943      774.364        0.971        0.138      128.982       21.230        0.027      345.904       23.770      864.007
07/15/2014  07:51:00      -39.594      -77.083        1.320       43.511       41.678       20.195     1893.204     1737.016      407.853        0.577        0.202       86.657       21.920        0.064      345.897       23.755      864.035
07/15/2014  07:52:00      -32.552     -105.116       -6.867       26.455       39.483       16.487      699.862     1558.947      271.807        0.734        0.127      110.041       14.038        0.016      345.873       23.713      864.056
07/15/2014  07:53:00      -52.174      -81.183        4.558       52.609       36.777       27.095     2767.715     1352.554      734.153        0.709        0.243       96.503       28.284        0.086      345.874       23.716      864.081
07/15/2014  07:54:00      -79.155      -90.986        4.062       32.092       68.018       23.904     1029.907     4626.396      571.382        1.039        0.311      120.598       28.792        0.057      345.840       23.659      864.101
07/15/2014  07:55:00      -72.449      -40.557       10.323       43.763       29.247       26.733     1915.190      855.363      714.668        0.524        0.174       83.028       20.717        0.062      345.896       23.753      864.117
07/15/2014  07:56:00      -58.985      -41.672       10.226       53.425       40.796       18.015     2854.236     1664.333      324.547        0.508        0.242       72.220       20.034        0.077      345.920       23.798      864.140
07/15/2014  07:57:00      -56.743      -37.146       -2.837       34.642       40.589       27.565     1200.062     1647.471      759.823        0.411        0.180       67.820       17.384        0.066      346.031       23.986      864.149
07/15/2014  07:58:00      -44.132      -19.477       -1.624       37.725       28.750       25.573     1423.150      826.586      654.001        0.262        0.145       48.238       22.640        0.220      346.101       24.107      864.179
07/15/2014  07:59:00      -36.134       -4.609        5.802       30.988       25.603       19.327      960.275      655.492      373.518        0.167        0.099       36.427       14.360        0.155      346.167       24.220      864.183
07/15/2014  08:00:00      -20.495       -7.774       10.753       28.219       25.089       17.420      796.285      629.462      303.472        0.116        0.086       21.920       13.677        0.389      346.354       24.542      864.194
07/15/2014  08:01:00      -17.369       -0.232       11.193       27.271       10.970       16.084      743.706      120.348      258.709        0.077        0.056       17.370       16.781        0.933      346.449       24.705      864.189
07/15/2014  08:02:00      -40.426      -23.630       12.803       39.735       27.913       19.631     1578.840      779.141      385.387        0.255        0.137       46.825       25.715        0.302      346.404       24.629      864.197
07/15/2014  08:03:00       -8.736      -17.840       13.945       27.658       22.402       18.684      764.976      501.846      349.086        0.110        0.081       19.864       16.891        0.723      346.479       24.756      864.199
07/15/2014  08:04:00      -50.574      -20.331       -1.769       31.756       25.437       22.086     1008.475      647.052      487.800        0.256        0.107       54.508       21.830        0.160      346.187       24.254      864.218
07/15/2014  08:05:00      -37.608      -15.343       -1.139       22.186       14.817       18.480      492.219      219.554      341.503        0.135        0.053       40.617       15.959        0.154      346.264       24.387      864.220
07/15/2014  08:06:00      -31.445      -49.225      -12.063       17.925       15.560       14.917      321.309      242.107      222.504        0.217        0.039       58.411        8.966        0.024      346.043       24.007      864.226
07/15/2014  08:07:00      -19.203      -11.330        1.721       20.833       18.087       16.596      434.014      327.135      275.438        0.077        0.052       22.296       13.558        0.370      346.418       24.651      864.213
07/15/2014  08:08:00      -22.537       -5.066       -7.358       17.900       21.528       21.919      320.419      463.453      480.449        0.093        0.063       23.099       15.119        0.428      346.480       24.758      864.209
07/15/2014  08:09:00        0.230      -51.648       23.882       34.292       75.159       42.561     1175.933     5648.823     1811.445        0.594        0.432       51.649       46.898        0.824      346.604       24.970      864.191
07/15/2014  08:10:00       -8.684        3.865       53.474       21.990       44.686       22.025      483.562     1996.800      485.115        0.296        0.148        9.505       14.975        2.482      346.933       25.537      864.180
07/15/2014  08:11:00      -14.126       11.097       37.787       17.806       38.054       23.421      317.063     1448.074      548.522        0.203        0.116       17.963       20.377        1.287      346.906       25.491      864.163
07/15/2014  08:12:00      -28.673       -1.437       40.075       22.365       37.614       38.945      500.207     1414.799     1516.692        0.293        0.172       28.709       36.602        1.625      346.707       25.149      864.158
07/15/2014  08:13:00      -25.100      -29.892      -15.580       30.577       35.025       15.901      934.954     1226.763      252.828        0.209        0.121       39.032       12.430        0.101      346.443       24.694      864.156
07/15/2014  08:14:00       22.937      -58.673        6.227       29.270       33.899       26.464      856.708     1149.148      700.321        0.336        0.135       62.997       15.423        0.060      346.549       24.876      864.160
07/15/2014  08:15:00        3.863        4.318       44.251       23.049       34.651       27.869      531.271     1200.716      776.699        0.225        0.125        5.794       26.434       20.815      346.996       25.647      864.164
07/15/2014  08:16:00       18.840       10.622       52.645       28.033       37.973       28.086      785.867     1441.951      788.823        0.313        0.151       21.629       21.734        1.010      347.044       25.730      864.174
07/15/2014  08:17:00        3.923        6.685       46.387       19.914       37.718       24.978      396.568     1422.641      623.921        0.233        0.122        7.751       22.419        8.366      347.078       25.787      864.191
07/15/2014  08:18:00       19.207      -41.118       17.005       33.765       45.821       30.975     1140.043     2099.588      959.467        0.327        0.210       45.383       18.113        0.159      346.771       25.258      864.195
07/15/2014  08:19:00       25.490       59.921       67.732       27.640       31.750       18.792      763.986     1008.049      353.158        0.548        0.106       65.117       14.640        0.051      346.659       25.066      864.212
07/15/2014  08:20:00       18.473       42.523       44.896       23.055       19.644       14.927      531.529      385.891      222.815        0.265        0.057       46.362       14.533        0.098      346.713       25.158      864.206
07/15/2014  08:21:00        2.211       11.346       27.880       17.137       17.359       16.968      293.669      301.326      287.926        0.090        0.044       11.559       10.485        0.823      347.235       26.059      864.203
07/15/2014  08:22:00      -11.718        4.159       25.374       10.385       13.770       11.506      107.838      189.622      132.390        0.061        0.021       12.434        5.396        0.188      347.533       26.571      864.209
07/15/2014  08:23:00      -38.546       11.084        0.628       12.526       10.140        8.211      156.894      102.824       67.423        0.097        0.016       40.108        7.111        0.031      346.608       24.976      864.202
07/15/2014  08:24:00      -28.495       10.987       -6.069        6.632        7.076        5.800       43.988       50.068       33.634        0.055        0.006       30.540        4.284        0.020      346.528       24.840      864.213
07/15/2014  08:25:00      -24.139       13.209       -1.876        7.349       10.718        6.261       54.007      114.865       39.201        0.048        0.010       27.516        6.410        0.054      346.578       24.928      864.209
07/15/2014  08:26:00      -37.227        9.970       -4.204       11.351        8.474        6.603      128.856       71.809       43.604        0.087        0.012       38.539        6.903        0.032      346.541       24.863      864.208
07/15/2014  08:27:00      -37.710       19.353        5.553       11.243       11.609       11.053      126.415      134.776      122.158        0.111        0.019       42.386        8.560        0.041      346.657       25.064      864.207
07/15/2014  08:28:00      -19.090       -6.832        2.992       17.571       19.439       14.094      308.731      377.857      198.638        0.065        0.044       20.276       10.220        0.254      346.914       25.504      864.206
07/15/2014  08:29:00      -45.925      -35.646        1.938       14.439       18.064       12.826      208.474      326.320      164.518        0.204        0.035       58.136        8.880        0.023      346.613       24.985      864.214
07/15/2014  08:30:00      -34.349      -16.568        4.914       31.737       23.138       15.551     1007.206      535.361      241.849        0.163        0.089       38.136        5.334        0.020      346.824       25.350      864.217
07/15/2014  08:31:00      -19.551      -18.315        1.838       29.865       21.472       12.755      891.920      461.064      162.682        0.112        0.076       26.789       11.078        0.171      346.834       25.367      864.219
07/15/2014  08:32:00       -3.364      -27.226       -2.313       29.293       30.430       19.408      858.091      925.993      376.667        0.146        0.108       27.433       10.230        0.139      346.855       25.402      864.226
07/15/2014  08:33:00      -10.782      -28.207        4.452       15.401       41.075       17.408      237.185     1687.123      303.054        0.158        0.111       30.198       19.971        0.437      347.205       26.005      864.230
07/15/2014  08:34:00        6.291      -60.433        4.892       29.679       49.940       38.140      880.870     2494.018     1454.641        0.427        0.241       60.759       38.003        0.391      347.271       26.120      864.232
07/15/2014  08:35:00      -13.923       14.457       38.221       20.084       20.341       13.701      403.373      413.746      187.704        0.143        0.050       20.071       12.599        0.394      347.765       26.972      864.234
07/15/2014  08:36:00      -38.707      -18.114        7.248       29.374       25.232       16.038      862.856      636.666      257.226        0.182        0.088       42.736       13.882        0.106      347.083       25.797      864.221
07/15/2014  08:37:00      -35.118       21.188        6.731       14.719       11.053       14.591      216.654      122.158      212.900        0.114        0.028       41.015       10.603        0.067      346.925       25.524      864.199
07/15/2014  08:38:00      -54.894       20.621       -0.405       23.400       15.669       10.578      547.552      245.524      111.885        0.217        0.045       58.639        7.129        0.015      346.773       25.260      864.183
07/15/2014  08:39:00      -56.481        2.182       -8.725       16.646       24.847       10.785      277.091      617.394      116.325        0.214        0.051       56.523        8.814        0.024      346.794       25.299      864.164
07/15/2014  08:40:00      -85.387       -3.552        2.930       46.027       36.412       22.338     2118.483     1325.845      498.990        0.563        0.197       85.460       24.631        0.083      347.020       25.686      864.155
07/15/2014  08:41:00      -62.643      -31.258        0.204       33.308       35.428       16.686     1109.395     1255.140      278.416        0.377        0.132       70.009       19.688        0.079      347.000       25.653      864.149
07/15/2014  08:42:00      -49.859      -46.949       -4.688       29.270       23.968       15.975      856.754      574.476      255.192        0.320        0.084       68.484       18.614        0.074      346.874       25.434      864.147
07/15/2014  08:43:00      -31.957      -23.057       -0.128       17.263       24.013       12.348      297.997      576.626      152.467        0.129        0.051       39.406       12.487        0.100      346.947       25.562      864.151
07/15/2014  08:44:00      -20.645      -13.908        6.537       10.831       22.284       11.454      117.315      496.559      131.194        0.070        0.037       24.892       10.576        0.181      347.008       25.666      864.166
07/15/2014  08:45:00        3.619      -11.846       20.720       25.418       34.312       24.013      646.076     1177.316      576.600        0.149        0.120       12.386        7.956        0.413      347.661       26.792      864.173
07/15/2014  08:46:00      -17.995      -19.107       10.138       16.933       18.654       15.245      286.724      347.983      232.398        0.083        0.043       26.247       13.994        0.284      347.504       26.522      864.192
07/15/2014  08:47:00        5.346      -48.943       -1.619       50.291       40.720       18.677     2529.203     1658.155      348.835        0.348        0.227       49.234       18.526        0.142      347.261       26.102      864.207
07/15/2014  08:48:00        5.741      -47.028       15.297       17.761       39.058       30.102      315.442     1525.511      906.132        0.261        0.137       47.377       27.735        0.343      347.658       26.787      864.215
07/15/2014  08:49:00       -6.604        7.967       40.623       10.707       17.256       14.792      114.630      297.770      218.812        0.119        0.032       10.348        9.787        0.895      348.214       27.746      864.214
07/15/2014  08:50:00      -28.969        3.325        8.091       15.854       17.547       19.551      251.347      307.905      382.261        0.093        0.047       29.159       13.680        0.220      347.348       26.252      864.225
07/15/2014  08:51:00       -9.415       17.639       51.453       18.862       29.123       17.579      355.771      848.168      309.008        0.228        0.076       19.994       13.782        0.475      348.017       27.407      864.215
07/15/2014  08:52:00        0.182       84.801       96.477       24.064       50.391       25.431      579.087     2539.245      646.732        1.013        0.188       84.801       23.389        0.076      347.516       26.542      864.207
07/15/2014  08:53:00       -9.914       14.643       62.864       15.374       35.827       22.311      236.347     1283.572      497.777        0.314        0.101       17.683       23.894        1.826      347.919       27.237      864.193
07/15/2014  08:54:00      -21.239       -3.178       26.663       23.512       31.340       24.948      552.811      982.206      622.422        0.166        0.108       21.476       25.941        1.459      348.068       27.495      864.197
07/15/2014  08:55:00        4.471       22.783       20.657       28.012       34.779       24.460      784.651     1209.558      598.309        0.178        0.130       23.217       13.679        0.347      347.550       26.602      864.181
07/15/2014  08:56:00      -19.514       -1.498       20.856       20.682       17.388       18.219      427.748      302.337      331.935        0.094        0.053       19.572       13.967        0.509      347.770       26.981      864.167
07/15/2014  08:57:00      -61.649      -19.986       -2.134       24.092       22.088       18.991      580.447      487.873      360.663        0.282        0.071       64.808       11.053        0.029      347.181       25.964      864.157
07/15/2014  08:58:00       -2.078     -104.892       -5.551       46.352       41.747       23.021     2148.477     1742.841      529.983        0.773        0.221      104.913       11.722        0.012      347.190       25.981      864.150
07/15/2014  08:59:00       20.262       -2.250       38.590       38.213       65.346       41.090     1460.202     4270.105     1688.404        0.466        0.371       20.387       42.626        4.372      347.836       27.095      864.132
07/15/2014  09:00:00      -22.024       13.311       38.486       26.756       33.674       42.138      715.877     1133.924     1775.625        0.288        0.181       25.734       32.625        1.607      347.673       26.813      864.136
07/15/2014  09:01:00      -17.847        1.662       15.145       15.464       22.474       19.343      239.122      505.067      374.138        0.083        0.056       17.924       15.818        0.779      347.782       27.002      864.131
07/15/2014  09:02:00      -41.159      -36.911        4.488       33.077       28.070       19.097     1094.116      787.910      364.687        0.266        0.112       55.285       21.216        0.147      347.454       26.435      864.123
07/15/2014  09:03:00      -50.889      -16.011       -5.011       20.943       22.250       12.683      438.615      495.068      160.849        0.198        0.055       53.348        9.468        0.032      347.308       26.184      864.127
07/15/2014  09:04:00      -13.853      -27.276        5.866       27.130       25.312       20.724      736.054      640.679      429.492        0.139        0.090       30.592       16.212        0.281      347.761       26.965      864.126
07/15/2014  09:05:00      -51.554        9.043       -1.148       22.607       22.663       17.794      511.071      513.592      316.627        0.204        0.067       52.341       13.733        0.069      347.354       26.263      864.126
07/15/2014  09:06:00       -2.379       -4.072       22.707       14.476       29.525       23.755      209.554      871.746      564.292        0.109        0.082        4.715       21.102       20.026      348.007       27.391      864.128
07/15/2014  09:07:00      -19.411       -4.728        0.974       16.912       18.779       15.648      286.030      352.633      244.847        0.064        0.044       19.979        8.473        0.180      347.431       26.394      864.112
07/15/2014  09:08:00      -16.311       -0.689       24.814       22.329       21.202       14.096      498.606      449.539      198.685        0.101        0.057       16.325       11.872        0.529      347.659       26.788      864.112
07/15/2014  09:09:00       35.307      -56.566        1.854       33.988       58.597       44.806     1155.188     3433.629     2007.607        0.552        0.330       66.680       45.484        0.465      347.623       26.726      864.105
07/15/2014  09:10:00        6.226      -34.828       24.394       22.483       41.454       22.311      505.483     1718.408      497.799        0.228        0.136       35.380       12.638        0.128      347.819       27.064      864.100
07/15/2014  09:11:00       -3.253       -4.433       33.611       17.016       17.028       14.692      289.528      289.968      215.852        0.098        0.040        5.498        9.426        2.939      348.214       27.749      864.086
07/15/2014  09:12:00      -23.167       -8.527        6.655       19.555       15.213       12.495      382.388      231.448      156.134        0.071        0.038       24.687       11.195        0.206      347.447       26.423      864.068
07/15/2014  09:13:00      -51.345      -51.637        1.952       38.205       57.194       17.545     1459.624     3271.197      307.811        0.517        0.252       72.820       20.988        0.083      347.393       26.330      864.061
07/15/2014  09:14:00      -30.293       -3.412       14.221       33.844       25.031       24.014     1145.419      626.559      576.684        0.174        0.117       30.485       17.480        0.329      347.583       26.658      864.038
07/15/2014  09:15:00      -40.649      -15.105       -1.225       25.048       30.825       15.564      627.394      950.202      242.252        0.185        0.091       43.364       13.318        0.094      347.334       26.228      864.025
07/15/2014  09:16:00      -40.425      -35.241       -3.362       23.139       27.238       12.854      535.399      741.931      165.218        0.216        0.072       53.629       11.689        0.048      347.373       26.296      864.022
07/15/2014  09:17:00      -32.247       -3.088        7.784       32.985       27.364       20.383     1088.030      748.806      415.457        0.168        0.113       32.395       20.723        0.409      347.541       26.585      864.011
07/15/2014  09:18:00      -21.194      -36.643        6.767       25.114       26.351       13.897      630.698      694.351      193.134        0.168        0.076       42.331        8.718        0.042      347.490       26.498      864.011
07/15/2014  09:19:00       -7.476       -8.839       24.180       14.658       29.113       18.900      214.856      847.549      357.215        0.107        0.071       11.577       16.270        1.975      348.015       27.405      864.013
07/15/2014  09:20:00        0.569       -8.772       20.901       17.702       17.985       17.302      313.365      323.471      299.368        0.072        0.047        8.790       14.384        2.678      348.017       27.408      864.001
07/15/2014  09:21:00       -2.970       15.919       31.796       12.494       19.890       16.410      156.094      395.631      269.303        0.105        0.041       16.194        9.783        0.365      348.096       27.545      864.017
07/15/2014  09:22:00        6.199       -5.170       14.052       18.366       17.790       20.311      337.294      316.480      412.523        0.066        0.053        8.072       13.764        2.908      347.833       27.089      864.024
07/15/2014  09:23:00        7.046       -2.358       29.201       22.555       28.828       22.565      508.722      831.026      509.186        0.138        0.092        7.430       21.546        8.410      348.134       27.609      864.018
07/15/2014  09:24:00       18.862      -22.182       23.888       32.142       41.801       33.234     1033.135     1747.361     1104.475        0.265        0.194       29.118       23.260        0.638      347.788       27.013      864.023
07/15/2014  09:25:00       19.500       24.829       41.489       31.683       43.035       33.204     1003.813     1851.989     1102.479        0.334        0.198       31.571       28.651        0.824      347.947       27.286      864.037
07/15/2014  09:26:00       62.625      -33.856       17.245       56.132       48.604       38.069     3150.801     2362.354     1449.212        0.616        0.348       71.191       34.743        0.238      347.731       26.914      864.038
07/15/2014  09:27:00       27.170       -2.013       32.730       29.090       38.415       36.672      846.213     1475.716     1344.844        0.274        0.183       27.244       23.742        0.759      347.865       27.143      864.032
07/15/2014  09:28:00       27.693      -41.471       28.411       34.071       41.329       34.519     1160.809     1708.091     1191.572        0.368        0.203       49.868       25.388        0.259      347.770       26.979      864.050
07/15/2014  09:29:00       36.786       12.024       55.960       41.861       72.433       48.445     1752.375     5246.545     2346.880        0.699        0.467       38.701       44.263        1.308      347.815       27.058      864.047
07/15/2014  09:30:00       32.395       -9.792       49.929       44.158       51.608       44.654     1949.939     2663.424     1993.977        0.512        0.330       33.843       32.992        0.950      347.953       27.296      864.043
07/15/2014  09:31:00        4.375       -5.029       44.186       21.068       32.001       30.262      443.848     1024.052      915.768        0.219        0.119        6.666       24.337       13.330      348.111       27.569      864.041
07/15/2014  09:32:00       -7.383      -12.672       33.501       18.873       20.384       10.310      356.195      415.490      106.302        0.111        0.044       14.666        5.322        0.132      348.091       27.535      864.035
07/15/2014  09:33:00      -22.648        2.970       18.753       26.603       16.550       14.189      707.713      273.902      201.328        0.103        0.059       22.842       14.180        0.385      347.947       27.285      864.028
07/15/2014  09:34:00      -39.141       22.722       16.807       17.550       15.093       17.479      308.010      227.806      305.528        0.159        0.042       45.258       14.610        0.104      347.663       26.794      864.017
07/15/2014  09:35:00       21.598       11.954       -5.304       31.931       15.138       18.618     1019.601      229.166      346.644        0.112        0.080       24.685       18.324        0.551      347.698       26.856      864.007
07/15/2014  09:36:00      -11.045        1.363       17.026       34.493       17.258       16.608     1189.765      297.837      275.830        0.109        0.088       11.129       12.590        1.280      347.914       27.227      863.995
07/15/2014  09:37:00       -3.209      -42.195        5.315       22.043       14.225       15.626      485.880      202.361      244.163        0.138        0.047       42.317        7.808        0.034      347.776       26.990      863.989
07/15/2014  09:38:00      -29.229      -17.342       21.658       45.745       28.005       15.206     2092.595      784.257      231.230        0.237        0.155       33.987       18.703        0.303      348.027       27.425      863.991
07/15/2014  09:39:00      -30.276      -41.474       -5.114       27.842       32.289       13.904      775.173     1042.555      193.309        0.234        0.101       51.349       13.445        0.069      347.627       26.734      864.001
07/15/2014  09:40:00       -1.803      -36.977       15.148       25.316       42.781       23.266      640.911     1830.200      541.315        0.231        0.151       37.021        6.394        0.030      348.063       27.486      864.012
07/15/2014  09:41:00       38.981      -81.356      -12.304       44.292       39.464       31.363     1961.763     1557.420      983.658        0.640        0.225       90.212       27.033        0.090      347.846       27.112      864.012
07/15/2014  09:42:00       39.241      -80.317        1.181       49.062       57.234       31.640     2407.111     3275.741     1001.071        0.734        0.334       89.390       33.522        0.141      347.930       27.256      864.003
07/15/2014  09:43:00       74.043      -78.865       -8.390       42.593       41.419       34.423     1814.131     1715.546     1184.937        0.824        0.236      108.176       37.563        0.121      347.789       27.011      864.015
07/15/2014  09:44:00       26.642       39.581       57.849       35.474       36.840       32.629     1258.424     1357.156     1064.670        0.465        0.184       47.712       25.287        0.281      348.243       27.797      864.019
07/15/2014  09:45:00       56.269        5.756       51.438       41.057       44.708       32.355     1685.650     1998.803     1046.841        0.529        0.237       56.563       28.406        0.252      347.938       27.270      864.018
07/15/2014  09:46:00       33.468        8.875       15.944       51.632       22.454       35.121     2665.848      504.195     1233.458        0.293        0.220       34.624       17.407        0.253      347.792       27.017      864.020
07/15/2014  09:47:00        9.630       15.573       38.941       32.243       32.788       25.716     1039.590     1075.074      661.328        0.231        0.139       18.310       18.895        1.065      348.235       27.782      864.002
07/15/2014  09:48:00       23.523       25.464       52.681       33.010       42.910       26.407     1089.681     1841.238      697.311        0.380        0.181       34.667       17.570        0.257      348.185       27.698      863.989
07/15/2014  09:49:00       30.745      -23.390       23.696       39.868       41.795       27.717     1589.488     1746.831      768.208        0.308        0.205       38.631       29.231        0.573      348.083       27.521      863.981
07/15/2014  09:50:00       45.879       53.166       29.861       41.119       30.939       27.566     1690.751      957.208      759.861        0.461        0.170       70.225       26.803        0.146      347.994       27.367      863.963
07/15/2014  09:51:00       54.673       70.822       -7.840       21.542       28.520       24.157      464.050      813.368      583.572        0.496        0.093       89.470       17.633        0.039      347.665       26.799      863.939
07/15/2014  09:52:00       64.538       48.705        7.773       17.338       14.153       13.847      300.600      200.315      191.751        0.365        0.035       80.853        8.026        0.010      347.699       26.856      863.940
07/15/2014  09:53:00       34.434       32.820        8.353       24.073       16.223       21.533      579.527      263.200      463.653        0.182        0.065       47.569       14.321        0.091      348.017       27.406      863.933
07/15/2014  09:54:00       -0.744       30.096       16.464       16.579       30.057       20.906      274.864      903.453      437.076        0.140        0.081       30.105       20.735        0.474      348.810       28.778      863.918
07/15/2014  09:55:00        0.733        2.405       15.942       20.948       17.841       21.799      438.835      318.310      475.181        0.075        0.062        2.514        8.630       11.784      348.713       28.609      863.910
07/15/2014  09:56:00       -2.285       -9.264       27.429       12.340       12.391       10.656      152.276      153.539      113.544        0.063        0.021        9.541        8.358        0.767      349.288       29.607      863.906
07/15/2014  09:57:00        1.067        2.505       22.391       11.707        6.856       13.111      137.050       47.000      171.911        0.043        0.018        2.723        5.781        4.508      349.434       29.859      863.892
07/15/2014  09:58:00        0.865       -5.378       20.690       19.513       21.399       14.464      380.761      457.924      209.211        0.075        0.052        5.448       10.769        3.908      349.176       29.414      863.897
07/15/2014  09:59:00      -30.600       23.448       23.792       28.167       18.385       22.533      793.385      338.008      507.730        0.185        0.082       38.551       15.304        0.158      348.645       28.493      863.888
07/15/2014  10:00:00      -21.685       19.822       15.144       29.036       17.906       20.026      843.095      320.634      401.024        0.133        0.078       29.379        8.353        0.081      348.500       28.242      863.885
07/15/2014  10:01:00      -13.404      -31.761        1.515       24.577       29.888       24.381      604.010      893.312      594.451        0.164        0.105       34.474       14.434        0.175      348.296       27.889      863.886
07/15/2014  10:02:00      -52.808      -51.635      -15.020       26.309       22.775       15.483      692.175      518.698      239.731        0.357        0.073       73.857       15.182        0.042      348.018       27.410      863.887
07/15/2014  10:03:00      -33.838      -43.429      -10.551       29.405       13.294       10.148      864.630      176.729      102.983        0.214        0.057       55.055        5.593        0.010      347.914       27.229      863.890
07/15/2014  10:04:00      -15.259      -63.418       -4.477       21.947       17.112       17.304      481.673      292.832      299.413        0.267        0.054       65.228        8.565        0.017      348.052       27.467      863.869
07/15/2014  10:05:00      -90.350      -34.641       -5.276       38.893       18.688       19.094     1512.681      349.234      364.581        0.581        0.111       96.763       14.157        0.021      348.115       27.576      863.861
07/15/2014  10:06:00      -64.683      -13.253      -12.253       22.755       15.401       12.492      517.794      237.203      156.054        0.271        0.046       66.026       11.437        0.030      348.049       27.463      863.863
07/15/2014  10:07:00      -35.121      -11.274        3.241       25.479       14.939       17.385      649.180      223.185      302.246        0.127        0.059       36.886       16.992        0.212      348.494       28.232      863.857
07/15/2014  10:08:00      -15.013      -17.177       12.542       16.907       23.959       25.873      285.859      574.039      669.393        0.110        0.076       22.813       11.037        0.234      349.043       29.182      863.861
07/15/2014  10:09:00      -15.032        8.819       22.475       19.141       20.808       25.262      366.370      432.993      638.190        0.112        0.072       17.428       13.760        0.623      349.428       29.850      863.857
07/15/2014  10:10:00      -11.676      -40.731        8.271       37.728       47.112       35.781     1423.433     2219.523     1280.295        0.339        0.246       42.372       29.421        0.482      348.958       29.035      863.857
07/15/2014  10:11:00      -27.602      -71.885      -10.603       33.078       24.682       23.093     1094.185      609.224      533.300        0.414        0.112       77.002       18.626        0.059      348.482       28.210      863.857
07/15/2014  10:12:00      -11.642      -32.853       12.989       22.758       31.681       22.050      517.922     1003.672      486.222        0.170        0.100       34.854       17.564        0.254      348.745       28.666      863.863
07/15/2014  10:13:00      -47.210      -32.794       12.097       34.118       29.860       21.089     1164.042      891.616      444.733        0.297        0.125       57.482       19.960        0.121      348.636       28.477      863.857
07/15/2014  10:14:00      -60.578      -61.962        5.578       30.886       34.054       20.461      953.967     1159.660      418.657        0.504        0.127       86.654       22.535        0.068      348.468       28.185      863.851
07/15/2014  10:15:00      -76.435       -7.037        6.666       16.617       25.262       19.340      276.111      638.172      374.040        0.361        0.064       76.758       10.634        0.019      348.269       27.842      863.841
07/15/2014  10:16:00      -23.348       16.580       23.042       24.094       14.330       14.546      580.534      205.339      211.580        0.117        0.050       28.636        4.594        0.026      349.127       29.328      863.828
07/15/2014  10:17:00      -48.291      -14.754       -5.057       33.179       34.761       12.526     1100.821     1208.340      156.897        0.252        0.123       50.495       10.015        0.039      348.497       28.236      863.816
07/15/2014  10:18:00      -56.567      -16.998        3.027       31.979       22.141       16.299     1022.685      490.216      265.651        0.264        0.089       59.066       15.130        0.066      348.662       28.522      863.803
07/15/2014  10:19:00      -57.716      -42.175        8.851       30.259       33.724       18.816      915.629     1137.289      354.028        0.380        0.120       71.483       19.387        0.074      348.765       28.700      863.803
07/15/2014  10:20:00      -49.406      -29.567       -1.152       27.369       27.202       18.727      749.070      739.975      350.699        0.258        0.092       57.577       13.392        0.054      348.834       28.821      863.799
07/15/2014  10:21:00      -28.190        0.947        8.927       36.239       35.215       28.172     1313.273     1240.095      793.677        0.211        0.167       28.206       14.280        0.256      349.204       29.462      863.804
07/15/2014  10:22:00      -16.227      -75.898      -15.414       25.817       25.874       24.620      666.529      669.457      606.127        0.410        0.097       77.614        6.780        0.008      348.788       28.738      863.811
07/15/2014  10:23:00       11.740      -50.240       19.238       27.805       52.037       34.847      773.137     2707.856     1214.321        0.386        0.235       51.594       36.322        0.496      349.392       29.788      863.808
07/15/2014  10:24:00       12.320       15.578       33.073       26.611       60.832       40.547      708.151     3700.571     1644.091        0.377        0.303       19.861       41.816        4.433      349.115       29.307      863.798
07/15/2014  10:25:00        5.241       -4.188       39.621       33.781       63.370       43.440     1141.148     4015.795     1887.014        0.433        0.352        6.709       45.594       46.190      349.728       30.372      863.785
07/15/2014  10:26:00       48.552        6.663       11.696       28.595       43.813       27.799      817.667     1919.553      772.802        0.302        0.176       49.007       17.594        0.129      349.087       29.258      863.776
07/15/2014  10:27:00       15.088      -25.288       23.866       30.852       42.370       23.519      951.830     1795.219      553.123        0.237        0.165       29.447       14.843        0.254      349.428       29.850      863.762
07/15/2014  10:28:00       17.726       20.152       -5.851       41.540       29.962       25.579     1725.539      897.733      654.297        0.202        0.164       26.839       16.964        0.400      348.955       29.030      863.749
07/15/2014  10:29:00      -10.528        9.515       25.785       26.700       24.595       18.046      712.904      604.900      325.669        0.125        0.082       14.191       15.662        1.218      349.520       30.010      863.733
07/15/2014  10:30:00       42.626       51.352       34.441       43.237       32.572       24.810     1869.431     1060.913      615.533        0.459        0.177       66.738       21.159        0.101      349.325       29.671      863.718
07/15/2014  10:31:00       69.396       44.485       33.856       29.876       33.081       27.777      892.566     1094.344      771.564        0.535        0.138       82.430        9.431        0.013      349.070       29.228      863.701
07/15/2014  10:32:00       54.297       42.577        9.821       25.442       26.842       29.267      647.279      720.500      856.529        0.354        0.111       68.999       17.122        0.062      349.098       29.278      863.684
07/15/2014  10:33:00       16.432      -26.170       23.822       39.534       42.317       35.542     1562.927     1790.706     1263.247        0.307        0.231       30.901       25.371        0.674      349.566       30.089      863.675
07/15/2014  10:34:00       14.826      -24.350       37.574       31.293       61.004       39.377      979.277     3721.518     1550.510        0.424        0.313       28.508       41.956        2.166      349.210       29.472      863.668
07/15/2014  10:35:00       24.341      -33.866       23.966       38.636       50.493       32.803     1492.709     2549.510     1076.031        0.371        0.256       41.706       25.677        0.379      349.346       29.708      863.659
07/15/2014  10:36:00        2.825       50.319       74.295       33.386       50.826       35.271     1114.658     2583.301     1244.010        0.650        0.247       50.398       29.789        0.349      349.693       30.310      863.658
07/15/2014  10:37:00       21.830        8.516       36.375       42.594       48.084       42.814     1814.270     2312.079     1833.035        0.391        0.298       23.432       37.746        2.595      349.292       29.613      863.662
07/15/2014  10:38:00       18.025       14.057       39.581       37.712       49.349       32.267     1422.228     2435.359     1041.138        0.349        0.245       22.858       34.630        2.295      349.435       29.861      863.663
07/15/2014  10:39:00       36.951        1.083       69.067       40.969       51.385       31.701     1678.466     2640.387     1004.960        0.573        0.266       36.967       17.006        0.212      349.593       30.135      863.651
07/15/2014  10:40:00       26.896      -12.421       62.842       35.412       47.030       30.690     1254.012     2211.804      941.884        0.462        0.220       29.626       23.342        0.621      349.593       30.134      863.655
07/15/2014  10:41:00       90.201      -40.445       16.179       38.296       48.444       36.945     1466.596     2346.785     1364.951        0.761        0.259       98.853       32.419        0.108      348.947       29.015      863.662
07/15/2014  10:42:00       49.683      -49.511       20.902       49.059       51.005       30.570     2406.746     2601.539      934.535        0.565        0.297       70.141       32.778        0.218      349.280       29.592      863.657
07/15/2014  10:43:00       67.099       73.734       63.312       54.494       43.226       32.323     2969.571     1868.459     1044.788        0.991        0.294       99.694       10.966        0.012      349.421       29.836      863.656
07/15/2014  10:44:00       92.908       89.473        4.222       39.525       51.983       35.258     1562.187     2702.228     1243.093        1.108        0.275      128.986       24.984        0.038      349.402       29.804      863.659
07/15/2014  10:45:00       27.958        4.361       45.093       28.681       52.705       19.492      822.609     2777.867      379.934        0.341        0.199       28.296        5.193        0.034      349.636       30.210      863.665
07/15/2014  10:46:00       33.808      -37.439       23.697       30.596       46.203       33.517      936.127     2134.705     1123.379        0.365        0.210       50.445       33.495        0.441      349.416       29.829      863.662
07/15/2014  10:47:00       -1.289       17.308       51.961       18.876       31.335       21.118      356.295      981.857      445.971        0.239        0.089       17.356       21.936        1.597      349.873       30.622      863.651
07/15/2014  10:48:00       14.186       -7.843       44.482       28.591       39.861       28.526      817.441     1588.906      813.715        0.273        0.161       16.210       26.414        2.655      350.018       30.873      863.660
07/15/2014  10:49:00       95.974       74.204       38.938       74.675       52.285       41.586     5576.370     2733.715     1729.371        1.313        0.502      121.315       31.540        0.068      349.618       30.179      863.670
07/15/2014  10:50:00       53.591       56.497        9.118       61.886       36.430       38.611     3829.919     1327.164     1490.799        0.640        0.332       77.871       36.804        0.223      349.283       29.596      863.673
07/15/2014  10:51:00      -11.524       59.627       10.232       27.451       27.533       29.906      753.556      758.076      894.398        0.310        0.120       60.730       22.005        0.131      349.930       30.722      863.681
07/15/2014  10:52:00        8.336       16.935        3.937       16.668       21.614       17.980      277.831      467.145      323.274        0.072        0.053       18.875       11.559        0.375      350.026       30.886      863.678
07/15/2014  10:53:00       -1.871        0.958       16.962       20.544       12.497       12.535      422.046      156.183      157.128        0.051        0.037        2.102        8.178       15.135      350.180       31.155      863.680
07/15/2014  10:54:00       -4.081      -13.491       12.473       24.557       33.449       25.592      603.052     1118.848      654.930        0.137        0.119       14.095       25.089        3.168      350.348       31.448      863.676
07/15/2014  10:55:00       15.162      -11.207       24.259       47.105       39.498       35.145     2218.910     1560.053     1235.179        0.298        0.251       18.854       23.998        1.620      350.062       30.949      863.672
07/15/2014  10:56:00      -14.703      -13.613       36.113       37.833       55.277       32.322     1431.368     3055.578     1044.685        0.362        0.277       20.038       32.271        2.594      349.982       30.811      863.675
07/15/2014  10:57:00      -49.909      -25.574       -6.466       24.438       17.664       16.664      597.197      312.031      277.677        0.219        0.059       56.079       13.940        0.062      349.693       30.309      863.670
07/15/2014  10:58:00       -0.720      -59.708       15.840       38.210       48.854       37.023     1460.024     2386.760     1370.668        0.452        0.261       59.713       15.156        0.064      349.906       30.678      863.666
07/15/2014  10:59:00       25.625      -12.270       32.404       39.153       53.113       33.311     1532.958     2820.943     1109.620        0.366        0.273       28.412       29.162        1.053      350.177       31.149      863.659
07/15/2014  11:00:00      -16.723      -13.287       -0.284       47.424       30.220       21.414     2249.004      913.269      458.541        0.204        0.181       21.359        8.649        0.164      349.696       30.314      863.657
07/15/2014  11:01:00      -49.034      -33.581       -3.807       25.363       33.537       18.915      643.259     1124.728      357.792        0.284        0.106       59.430       11.524        0.038      349.620       30.181      863.640
07/15/2014  11:02:00      -22.990       -7.398       11.462       24.118       21.443       18.706      581.670      459.821      349.908        0.105        0.070       24.151       10.397        0.185      350.349       31.449      863.640
07/15/2014  11:03:00      -21.001        1.816       15.099       53.738       32.979       25.879     2887.733     1087.608      669.714        0.266        0.232       21.080       23.884        1.284      350.098       31.013      863.627
07/15/2014  11:04:00      -10.923       31.867       22.139       41.141       47.780       36.383     1692.602     2282.917     1323.747        0.346        0.265       33.687       16.602        0.243      350.170       31.138      863.621
07/15/2014  11:05:00       48.927       59.607       38.767       64.562       42.818       46.039     4168.238     1833.396     2119.570        0.778        0.406       77.116       23.173        0.090      350.254       31.283      863.627
07/15/2014  11:06:00      135.569       88.218       26.463       48.778       38.550       51.991     2379.313     1486.129     2703.058        1.671        0.328      161.745       36.112        0.050      349.662       30.255      863.620
07/15/2014  11:07:00       47.972       32.396      -25.809       64.163       45.018       21.814     4116.886     2026.616      475.853        0.532        0.331       57.887       17.727        0.094      349.627       30.195      863.624
07/15/2014  11:08:00       -9.355       -5.483        4.525       18.689       21.387       22.497      349.273      457.385      506.129        0.073        0.066       10.843       18.474        2.903      350.730       32.112      863.602
07/15/2014  11:09:00       -1.573      -58.158       15.980       48.049       36.804       33.666     2308.671     1354.532     1133.428        0.422        0.240       58.180       16.450        0.080      349.831       30.549      863.596
07/15/2014  11:10:00       80.354      -55.270       24.734       56.212       44.069       36.806     3159.809     1942.036     1354.662        0.829        0.323       97.527       34.639        0.126      349.748       30.404      863.581
07/15/2014  11:11:00       80.170       67.868       55.067       53.192       49.646       46.392     2829.347     2464.747     2152.251        1.075        0.372      105.040       34.888        0.110      349.888       30.647      863.573
07/15/2014  11:12:00       15.890       32.734        7.015       55.767       26.688       29.143     3109.931      712.224      849.298        0.302        0.234       36.387       19.455        0.286      350.139       31.084      863.562
07/15/2014  11:13:00      -40.292       92.063        9.658       40.467       37.995       32.596     1637.588     1443.591     1062.504        0.717        0.207      100.494       22.693        0.051      350.516       31.740      863.559
07/15/2014  11:14:00      -23.322       77.389        6.488       23.123       53.340       26.916      534.690     2845.134      724.452        0.534        0.205       80.827       27.766        0.118      350.745       32.138      863.547
07/15/2014  11:15:00      -60.569        7.762      -13.567       16.948       26.806       12.230      287.229      718.560      149.584        0.253        0.058       61.064        7.226        0.014      349.886       30.643      863.537
07/15/2014  11:16:00      -40.433      -43.089        6.423       21.691       23.225       16.372      470.508      539.418      268.036        0.241        0.064       59.088       10.149        0.030      349.953       30.759      863.524
07/15/2014  11:17:00       19.239       20.455       28.367       34.444       32.862       24.344     1186.357     1079.904      592.636        0.223        0.143       28.081        7.597        0.073      350.770       32.181      863.520
07/15/2014  11:18:00      102.086       77.518       14.123       45.738       49.232       37.461     2091.942     2423.838     1403.319        1.127        0.296      128.182       25.698        0.040      350.307       31.374      863.503
07/15/2014  11:19:00       64.575       39.543       25.814       39.318       34.374       37.213     1545.873     1181.596     1384.775        0.526        0.206       75.720       18.597        0.060      350.249       31.274      863.496
07/15/2014  11:20:00       72.847       20.106        2.020       47.955       48.420       28.501     2299.672     2344.505      812.333        0.558        0.273       75.571       30.762        0.166      349.990       30.822      863.487
07/15/2014  11:21:00        7.324      -41.706       29.265       17.006       43.956       22.532      289.214     1932.096      507.679        0.269        0.136       42.344       16.743        0.156      350.476       31.671      863.471
07/15/2014  11:22:00      -15.010      118.395       -1.651       30.309       41.126       28.203      918.622     1691.318      795.408        0.882        0.170      119.343       24.136        0.041      350.213       31.211      863.458
07/15/2014  11:23:00       -0.756       78.171        7.256       29.769       39.253       32.546      886.214     1540.812     1059.225        0.482        0.174       78.175       27.763        0.126      350.757       32.159      863.445
07/15/2014  11:24:00       -1.075        6.540       22.172       17.909       24.620       14.516      320.741      606.142      210.700        0.084        0.057        6.628        2.610        0.155      351.175       32.886      863.435
07/15/2014  11:25:00      -28.567       27.998       23.888       22.628       24.404       25.877      512.048      595.560      669.642        0.197        0.089       39.999       12.006        0.090      351.158       32.858      863.409
07/15/2014  11:26:00       -1.375       26.131       12.764       17.634       25.458       26.779      310.960      648.122      717.095        0.126        0.084       26.167       13.284        0.258      351.024       32.623      863.402
07/15/2014  11:27:00      -66.346       17.745        0.453       36.645       18.868       20.769     1342.861      355.991      431.359        0.342        0.107       68.678       22.992        0.112      350.348       31.448      863.380
07/15/2014  11:28:00       -4.792       -1.305        8.032       14.081       10.216       19.657      198.280      104.358      386.413        0.039        0.034        4.966        8.690        3.061      351.253       33.024      863.365
07/15/2014  11:29:00       14.129      -14.651       15.830       19.424       26.783       21.319      377.288      717.306      454.482        0.111        0.077       20.354       15.443        0.576      351.036       32.645      863.352
07/15/2014  11:30:00       50.640       46.116       57.956       57.161       42.324       36.264     3267.412     1791.315     1315.102        0.721        0.319       68.491       22.565        0.109      350.607       31.896      863.343
07/15/2014  11:31:00      121.793       86.848       25.315       31.753       22.635       30.426     1008.277      512.330      925.758        1.273        0.122      149.586       19.727        0.017      350.112       31.037      863.325
07/15/2014  11:32:00       78.144       53.244       18.892       40.415       24.794       36.841     1633.409      614.740     1357.263        0.645        0.180       94.560       25.985        0.076      350.118       31.046      863.320
07/15/2014  11:33:00       32.125       33.419       29.905       24.081       24.664       21.021      579.895      608.321      441.864        0.234        0.082       46.356       14.084        0.092      350.394       31.526      863.298
07/15/2014  11:34:00       20.480        4.877        9.580       21.470       21.826       19.811      460.957      476.353      392.461        0.093        0.066       21.053        5.439        0.067      350.538       31.777      863.280
07/15/2014  11:35:00        7.895      -23.141       13.262       21.105       16.744       20.002      445.426      280.373      400.086        0.095        0.056       24.451       15.738        0.414      350.454       31.630      863.269
07/15/2014  11:36:00       22.435       18.787       28.572       44.318       17.370       28.482     1964.052      301.723      811.218        0.237        0.154       29.262       19.003        0.422      350.710       32.076      863.256
07/15/2014  11:37:00      -54.852       15.018       -3.360       21.241       17.504       14.394      451.176      306.378      207.182        0.210        0.048       56.871        8.537        0.023      350.298       31.358      863.241
07/15/2014  11:38:00      -77.252       31.512        2.743       18.534       18.719       14.074      343.514      350.393      198.069        0.393        0.045       83.432        9.780        0.014      350.272       31.316      863.222
07/15/2014  11:39:00      -44.504       13.980        1.065       21.611       16.083       19.748      467.020      258.655      389.991        0.165        0.056       46.648       15.429        0.109      350.524       31.754      863.217
07/15/2014  11:40:00      107.866       56.339       23.712       79.978       54.464       35.303     6396.499     2966.345     1246.285        1.299        0.530      121.693       28.749        0.056      350.707       32.071      863.210
07/15/2014  11:41:00      132.377       51.281       27.470       78.061       63.848       46.217     6093.530     4076.613     2135.997        1.660        0.615      141.963       34.762        0.060      350.524       31.751      863.197
07/15/2014  11:42:00      145.174      101.738       18.627       60.478       42.012       42.577     3657.616     1765.019     1812.812        1.950        0.362      177.274       39.453        0.050      350.360       31.465      863.196
07/15/2014  11:43:00      100.884       86.324       41.700       70.000       53.060       39.738     4899.977     2815.321     1579.105        1.433        0.465      132.776       22.464        0.029      350.343       31.436      863.177
07/15/2014  11:44:00       38.736      -12.122       45.717       48.710       47.732       39.780     2372.635     2278.365     1582.450        0.498        0.312       40.588       31.456        0.601      350.743       32.134      863.174
07/15/2014  11:45:00       40.873      -24.249       53.772       50.470       78.615       44.065     2547.256     6180.248     1941.740        0.791        0.533       47.525       41.743        0.771      350.591       31.870      863.157
07/15/2014  11:46:00       48.211      -90.930       25.281       55.057       70.255       44.905     3031.228     4935.759     2016.448        1.061        0.499      102.920       39.807        0.150      350.451       31.625      863.147
07/15/2014  11:47:00        3.250       -9.848       16.788       27.104       34.444       36.020      734.605     1186.399     1297.428        0.180        0.161       10.370       20.779        4.015      351.152       32.846      863.139
07/15/2014  11:48:00       32.502      -43.626       19.163       49.085       72.006       52.450     2409.346     5184.886     2751.007        0.683        0.517       54.402       43.547        0.641      351.079       32.720      863.133
07/15/2014  11:49:00       44.593      -18.842       26.090       49.419       52.259       35.442     2442.199     2731.048     1256.108        0.473        0.321       48.410       27.429        0.321      350.976       32.539      863.130
07/15/2014  11:50:00       42.973      -66.614       23.354       55.309       59.107       40.177     3059.110     3493.588     1614.158        0.750        0.408       79.273       41.769        0.278      351.038       32.647      863.115
07/15/2014  11:51:00        8.825      -33.400       20.441       39.626       39.887       31.416     1570.194     1590.941      986.994        0.288        0.207       34.546       24.319        0.496      351.516       33.481      863.105
07/15/2014  11:52:00       -2.459        6.362       55.387       19.789       31.864       21.919      391.597     1015.297      480.455        0.250        0.094        6.821       15.987        5.494      351.466       33.393      863.104
07/15/2014  11:53:00       33.670       30.209       54.977       25.755       30.129       22.343      663.321      907.740      499.212        0.357        0.104       45.236       11.831        0.068      350.900       32.406      863.108
07/15/2014  11:54:00       44.686       52.002       40.243       34.923       36.729       31.230     1219.616     1349.056      975.308        0.493        0.177       68.565       22.815        0.111      350.455       31.633      863.101
07/15/2014  11:55:00       89.851       85.647       57.844       84.400       47.376       61.562     7123.383     2244.486     3789.922        1.595        0.658      124.132       53.757        0.188      350.698       32.054      863.080
07/15/2014  11:56:00      110.127       70.364       48.314       68.213       56.340       58.587     4652.999     3174.183     3432.480        1.533        0.563      130.687       35.703        0.075      350.916       32.433      863.066
07/15/2014  11:57:00       96.327      107.297       92.520       74.437       50.968       47.728     5540.860     2597.696     2277.973        1.988        0.521      144.193       29.807        0.043      350.899       32.404      863.053
07/15/2014  11:58:00       93.367       89.012       65.129       81.010       48.812       50.889     6562.609     2382.640     2589.712        1.621        0.577      128.998       47.227        0.134      350.791       32.219      863.059
07/15/2014  11:59:00       71.811      -38.093        9.453       61.959       79.199       40.517     3838.879     6272.522     1641.654        0.922        0.588       81.289       50.107        0.380      350.792       32.218      863.058
07/15/2014  12:00:00       88.070     -161.943      -10.940       63.756       51.651       38.194     4064.859     2667.872     1458.811        2.114        0.410      184.341       33.702        0.033      350.890       32.387      863.055
07/15/2014  12:01:00       33.886     -112.648      -15.829       44.920       63.738       22.399     2017.788     4062.474      501.734        1.033        0.329      117.634       22.301        0.036      350.589       31.866      863.060
07/15/2014  12:02:00       44.200      -56.709       17.598       51.594       74.580       51.627     2661.922     5562.137     2665.324        0.818        0.544       71.900       56.769        0.623      350.946       32.487      863.059
07/15/2014  12:03:00       -7.346      -37.570       -0.734       18.783       32.801       31.722      352.792     1075.930     1006.259        0.195        0.122       38.281       12.304        0.103      350.911       32.426      863.039
07/15/2014  12:04:00       24.120      -22.492       33.465       28.632       52.565       28.781      819.781     2763.087      828.319        0.331        0.221       32.980       32.459        0.969      351.382       33.248      863.031
07/15/2014  12:05:00       33.391       16.272       43.378       38.239       34.894       27.341     1462.186     1217.572      747.520        0.334        0.171       37.145       25.781        0.482      351.118       32.786      863.027
07/15/2014  12:06:00       -5.564       30.428       21.898       23.942       49.572       28.324      573.207     2457.421      802.274        0.263        0.192       30.932       14.925        0.233      351.625       33.672      863.016
07/15/2014  12:07:00       67.472        1.358       28.491       46.232       29.994       31.788     2137.372      899.651     1010.450        0.471        0.202       67.486       13.007        0.037      351.076       32.714      863.006
07/15/2014  12:08:00       53.191      -11.966       15.324       50.180       40.477       40.962     2518.051     1638.352     1677.895        0.452        0.292       54.521       34.341        0.397      351.010       32.599      863.001
07/15/2014  12:09:00      -56.762       15.932        7.868       50.381       29.204       30.142     2538.284      852.893      908.520        0.392        0.215       58.955       24.405        0.171      351.371       33.229      862.975
07/15/2014  12:10:00       -9.597      -20.008       18.663       44.441       38.240       29.180     1974.977     1462.327      851.469        0.256        0.214       22.191       23.008        1.075      351.945       34.231      862.954
07/15/2014  12:11:00      -73.477      -24.313       -1.919       62.282       42.828       23.088     3879.002     1834.224      533.047        0.612        0.312       77.395       19.980        0.067      351.307       33.116      862.947
07/15/2014  12:12:00      -21.224      -25.902       27.123       40.636       52.703       32.848     1651.320     2777.633     1079.014        0.368        0.275       33.487       27.114        0.656      351.819       34.009      862.938
07/15/2014  12:13:00      -16.037      -54.470       24.497       40.097       36.882       35.073     1607.788     1360.267     1230.128        0.401        0.210       56.781       33.592        0.350      351.427       33.327      862.931
07/15/2014  12:14:00      -35.098        8.410       22.172       28.432       24.286       26.684      808.386      589.795      712.020        0.195        0.106       36.091       21.812        0.365      351.598       33.625      862.912
07/15/2014  12:15:00      -41.744       10.729        1.249       20.786       18.446       17.904      432.069      340.238      320.568        0.148        0.055       43.100       12.323        0.082      351.411       33.296      862.900
07/15/2014  12:16:00      -19.339       -3.969       24.831       27.113       21.086       18.538      735.092      444.632      343.662        0.126        0.076       19.742       19.788        1.005      351.910       34.169      862.888
07/15/2014  12:17:00       57.659       55.346       41.500       56.724       31.522       26.784     3217.637      993.639      717.361        0.652        0.246       79.924       11.454        0.021      351.681       33.769      862.868
07/15/2014  12:18:00       77.397       78.063       11.727       54.821       46.746       47.608     3005.320     2185.222     2266.511        0.984        0.373      109.928       31.056        0.080      351.161       32.860      862.861
07/15/2014  12:19:00      119.714       85.988        3.822       53.821       37.659       33.591     2896.714     1418.191     1128.365        1.359        0.272      147.395       18.113        0.015      351.075       32.711      862.841
07/15/2014  12:20:00      106.573       91.695       -0.407       48.361       48.252       33.324     2338.819     2328.212     1110.459        1.277        0.289      140.591       14.894        0.011      351.326       33.150      862.835
07/15/2014  12:21:00       50.147       87.177       17.446       49.052       54.731       47.754     2406.053     2995.471     2280.463        0.905        0.384      100.571       33.807        0.113      351.334       33.163      862.835
07/15/2014  12:22:00       66.140       70.636       58.369       54.218       46.237       43.746     2939.558     2137.836     1913.728        0.988        0.350       96.767       32.162        0.110      351.015       32.609      862.834
07/15/2014  12:23:00       76.172       62.198       69.566       73.393       59.389       59.778     5386.503     3527.014     3573.431        1.350        0.624       98.340       50.298        0.262      351.104       32.761      862.840
07/15/2014  12:24:00       99.556      117.723       55.164       83.842       49.890       43.813     7029.489     2489.044     1919.589        1.912        0.572      154.176       40.244        0.068      351.207       32.940      862.836
07/15/2014  12:25:00      109.565       81.635       21.446       62.017       57.718       40.179     3846.170     3331.416     1614.389        1.396        0.440      136.634       35.636        0.068      351.121       32.789      862.828
07/15/2014  12:26:00       55.100      110.551       -3.767       50.501       63.794       40.226     2550.371     4069.705     1618.167        1.175        0.412      123.521       37.967        0.094      351.257       33.029      862.824
07/15/2014  12:27:00       15.583       37.524       18.269       36.057       54.997       38.410     1300.096     3024.713     1475.331        0.389        0.290       40.631       33.514        0.680      351.637       33.694      862.810
07/15/2014  12:28:00      112.930       78.444       28.952       46.681       60.421       50.464     2179.130     3650.723     2546.611        1.406        0.419      137.502       12.481        0.008      351.305       33.112      862.809
07/15/2014  12:29:00       25.417       53.822       -7.078       40.724       61.528       27.579     1658.430     3785.718      760.619        0.490        0.310       59.521       26.171        0.193      351.333       33.161      862.799
07/15/2014  12:30:00       -0.945      104.943      -12.191       35.342       31.891       29.131     1249.030     1017.007      848.632        0.714        0.156      104.947       25.077        0.057      351.302       33.107      862.795
07/15/2014  12:31:00      -43.359       32.076        2.406       27.784       22.035       26.604      771.941      485.563      707.780        0.244        0.098       53.934       16.587        0.095      351.480       33.418      862.780
07/15/2014  12:32:00      -12.981        7.071       13.274       47.325       16.044       21.791     2239.615      257.413      474.869        0.168        0.149       14.782       17.894        1.465      351.307       33.117      862.771
07/15/2014  12:33:00       63.709      -14.592       22.790       45.354       45.085       30.452     2057.010     2032.672      927.327        0.490        0.251       65.359       22.168        0.115      350.758       32.160      862.764
07/15/2014  12:34:00       42.455       49.520       44.296       51.121       34.291       37.292     2613.393     1175.883     1390.730        0.570        0.259       65.228       25.803        0.156      350.843       32.309      862.746
07/15/2014  12:35:00       35.434       64.351       55.895       50.253       37.814       43.522     2525.392     1429.902     1894.150        0.718        0.292       73.462       33.447        0.207      351.214       32.953      862.739
07/15/2014  12:36:00       78.655       95.851       75.507       56.296       49.192       41.991     3169.204     2419.863     1763.250        1.421        0.368      123.992       28.612        0.053      351.142       32.827      862.734
07/15/2014  12:37:00       41.882       52.771       57.708       52.174       56.422       32.474     2722.173     3183.390     1054.587        0.741        0.348       67.371       28.893        0.184      351.437       33.343      862.725
07/15/2014  12:38:00        1.712       17.253       38.878       24.671       44.604       33.482      608.651     1989.546     1121.060        0.276        0.186       17.337       30.126        3.019      351.482       33.421      862.718
07/15/2014  12:39:00       13.061       47.097       63.216       32.793       34.986       37.378     1075.385     1224.040     1397.131        0.504        0.185       48.874       29.576        0.366      351.174       32.885      862.726
07/15/2014  12:40:00       69.693       -2.368       26.386       28.128       47.742       32.373      791.160     2279.333     1048.010        0.484        0.206       69.733       33.856        0.236      350.827       32.281      862.722
07/15/2014  12:41:00       29.343        1.952       26.763       32.313       35.441       27.923     1044.137     1256.032      779.669        0.233        0.154       29.408       24.338        0.685      351.346       33.184      862.713
07/15/2014  12:42:00       15.613       17.781        8.706       25.519       20.563       17.102      651.211      422.849      292.490        0.100        0.068       23.663       16.307        0.475      351.467       33.397      862.708
07/15/2014  12:43:00       34.793       39.998       24.019       37.931       28.835       31.800     1438.754      831.460     1011.229        0.333        0.164       53.013       26.970        0.259      351.420       33.313      862.702
07/15/2014  12:44:00       15.697       82.049       -7.135       31.409       45.496       25.746      986.546     2069.915      662.865        0.537        0.186       83.537       20.672        0.061      351.438       33.343      862.698
07/15/2014  12:45:00       -1.100      121.890      -10.352       28.776       57.437       25.816      828.076     3298.995      666.456        0.988        0.240      121.895       26.236        0.046      351.298       33.099      862.699
07/15/2014  12:46:00       27.847      -25.583       12.681       30.531       21.414       20.269      932.151      458.577      410.813        0.170        0.090       37.815       19.467        0.265      351.290       33.088      862.699
07/15/2014  12:47:00       21.790      -29.793        1.671       28.909       17.851       26.893      835.724      318.659      723.249        0.162        0.094       36.911       19.659        0.284      351.249       33.014      862.688
07/15/2014  12:48:00      -66.134      -22.630       -4.269       44.906       20.161       15.384     2016.507      406.481      236.659        0.378        0.133       69.899       11.020        0.025      351.206       32.939      862.677
07/15/2014  12:49:00      -24.807       -1.800        0.955       43.476       35.940       26.703     1890.191     1291.651      713.037        0.226        0.195       24.872       21.820        0.770      351.468       33.398      862.667
07/15/2014  12:50:00      -61.448      -24.850        4.956       46.031       38.384       31.333     2118.821     1473.330      981.769        0.449        0.229       66.283       24.245        0.134      351.429       33.328      862.663
07/15/2014  12:51:00      -70.881      -31.229        5.713       34.435       34.264       23.123     1185.748     1174.016      534.672        0.446        0.145       77.456       17.168        0.049      351.328       33.153      862.662
07/15/2014  12:52:00      -51.137      -44.906       13.504       44.104       38.108       25.513     1945.126     1452.210      650.900        0.443        0.202       68.055       27.965        0.169      351.539       33.520      862.658
07/15/2014  12:53:00      -53.233      -17.132        2.529       24.036       19.526       21.492      577.705      381.284      461.893        0.228        0.071       55.922       18.610        0.111      351.410       33.296      862.651
07/15/2014  12:54:00      -42.333      -22.278       -3.527       18.409       22.555       16.100      338.894      508.723      259.214        0.170        0.055       47.837       15.154        0.100      351.498       33.448      862.630
07/15/2014  12:55:00      -25.720      -11.691        7.880       19.503       19.092       16.861      380.352      364.491      284.291        0.094        0.051       28.252       14.645        0.269      351.572       33.580      862.630
07/15/2014  12:56:00      -13.236       -1.762        9.401       16.552       16.336       14.705      273.961      266.874      216.243        0.051        0.038       13.352       10.574        0.627      352.048       34.411      862.628
07/15/2014  12:57:00       21.106       16.556       32.270       26.872       33.793       25.581      722.080     1141.979      654.390        0.214        0.126       26.825       17.753        0.438      351.598       33.624      862.624
07/15/2014  12:58:00       47.320       -3.563       25.146       26.320       23.952       22.156      692.763      573.683      490.900        0.232        0.088       47.454       15.293        0.104      350.815       32.259      862.620
07/15/2014  12:59:00       58.761       21.007       36.298       52.624       52.917       34.892     2769.247     2800.202     1217.425        0.600        0.339       62.403       30.282        0.235      351.115       32.783      862.609
07/15/2014  13:00:00       56.773      -13.029       40.770       33.108       33.201       31.821     1096.171     1102.318     1012.577        0.413        0.161       58.249       27.002        0.215      351.409       33.294      862.598
07/15/2014  13:01:00       56.321       69.225       84.612       52.192       56.772       49.065     2723.987     3223.056     2407.360        1.174        0.418       89.242       41.689        0.218      351.588       33.605      862.588
07/15/2014  13:02:00       66.273      101.059      110.237       70.365       74.680       53.783     4951.222     5577.133     2892.665        2.009        0.671      120.851       49.088        0.165      351.460       33.383      862.586
07/15/2014  13:03:00      117.986       83.589       81.946       65.235       82.594       57.105     4255.543     6821.843     3260.948        2.098        0.717      144.595       47.899        0.110      350.943       32.479      862.585
07/15/2014  13:04:00       77.035       14.880       19.863       35.060       39.598       30.073     1229.201     1568.007      904.361        0.513        0.185       78.459       18.335        0.055      350.973       32.535      862.572
07/15/2014  13:05:00       96.731       54.652       37.554       45.671       41.036       39.430     2085.856     1683.944     1554.691        0.954        0.266      111.103       17.302        0.024      351.286       33.079      862.559
07/15/2014  13:06:00      156.576       87.296       53.372       88.396       51.977       52.299     7813.844     2701.567     2735.216        2.412        0.663      179.267       42.654        0.057      351.077       32.713      862.529
07/15/2014  13:07:00       46.084       47.637       49.246       64.918       42.001       42.278     4214.292     1764.064     1787.418        0.729        0.388       66.280       14.272        0.046      351.504       33.459      862.514
07/15/2014  13:08:00       13.590       75.800       85.232       47.619       49.980       39.234     2267.608     2497.959     1539.296        0.975        0.315       77.008       32.518        0.178      351.545       33.531      862.502
07/15/2014  13:09:00       75.644      -24.889        8.067       53.371       62.097       48.881     2848.455     3856.063     2389.303        0.775        0.455       79.633       33.924        0.181      351.282       33.073      862.488
07/15/2014  13:10:00      -28.219      -21.895        9.671       18.814       24.650       22.044      353.984      607.610      485.943        0.141        0.072       35.717       16.851        0.223      351.733       33.861      862.453
07/15/2014  13:11:00       14.521       22.525       37.370       31.386       26.234       22.049      985.092      688.228      486.150        0.214        0.108       26.799       18.301        0.466      352.074       34.456      862.443
07/15/2014  13:12:00        6.585       32.177        9.095       40.414       62.955       34.913     1633.302     3963.373     1218.918        0.399        0.341       32.844       32.241        0.964      351.595       33.617      862.436
07/15/2014  13:13:00       -6.697       50.804       18.503       25.280       67.488       25.403      639.054     4554.683      645.297        0.440        0.292       51.244       25.198        0.242      352.344       34.927      862.429
07/15/2014  13:14:00       42.649       13.815        6.043       28.862       28.507       30.050      832.997      812.638      902.994        0.230        0.127       44.830       18.340        0.167      351.776       33.935      862.415
07/15/2014  13:15:00        3.582        2.369       30.019       38.012       31.242       24.291     1444.885      976.054      590.069        0.196        0.151        4.294        8.808        4.207      352.040       34.397      862.404
07/15/2014  13:16:00       83.298     -136.438      -25.489       66.937       59.924       36.615     4480.568     3590.848     1340.666        1.781        0.471      159.855       40.317        0.064      351.490       33.433      862.394
07/15/2014  13:17:00       17.925      -55.627       17.751       37.351       59.429       41.641     1395.115     3531.837     1733.978        0.519        0.333       58.444       41.294        0.499      351.631       33.682      862.374
07/15/2014  13:18:00       30.263      -24.888       22.516       36.597       65.150       38.932     1339.345     4244.497     1515.670        0.457        0.355       39.182       42.313        1.166      351.674       33.756      862.357
07/15/2014  13:19:00       54.445      -92.849        4.937       47.562       44.734       36.153     2262.180     2001.156     1307.011        0.859        0.279      107.634       17.985        0.028      351.449       33.363      862.348
07/15/2014  13:20:00      -58.194       12.030      -12.464       22.250       20.727       24.699      495.060      429.607      610.038        0.261        0.077       59.425       15.176        0.065      351.899       34.150      862.324
07/15/2014  13:21:00      -21.046       87.847       14.202       45.520       60.465       34.835     2072.061     3655.986     1213.506        0.765        0.347       90.333       28.712        0.101      352.052       34.417      862.307
07/15/2014  13:22:00        3.624       20.458       15.679       26.915       36.264       21.912      724.419     1315.094      480.153        0.160        0.126       20.776        9.250        0.198      352.007       34.338      862.284
07/15/2014  13:23:00      -11.450       28.603       38.052       26.367       36.290       26.735      695.202     1316.990      714.758        0.256        0.136       30.809       14.371        0.218      352.170       34.624      862.271
07/15/2014  13:24:00       58.613       17.735       36.939       41.063       30.412       34.357     1686.164      924.920     1180.435        0.445        0.190       61.238       29.911        0.239      351.100       32.755      862.256
07/15/2014  13:25:00       28.577       60.295        6.929       35.032       41.736       29.169     1227.230     1741.890      850.837        0.416        0.191       66.725       24.887        0.139      351.652       33.718      862.250
07/15/2014  13:26:00      123.445      116.473       22.727       86.707       69.010       65.656     7518.017     4762.363     4310.684        2.295        0.830      169.719       33.239        0.038      351.756       33.896      862.242
07/15/2014  13:27:00      132.857      102.510       15.649       83.055       59.950       59.244     6898.196     3593.972     3509.903        2.120        0.700      167.807       40.751        0.059      351.690       33.782      862.218
07/15/2014  13:28:00       36.937       63.535       24.468       70.259       64.097       37.896     4936.329     4108.444     1436.102        0.824        0.524       73.492       32.077        0.191      352.195       34.667      862.220
07/15/2014  13:29:00       65.477       54.854       46.846       73.341       58.032       67.317     5378.962     3367.737     4531.645        1.138        0.664       85.417       49.295        0.333      352.003       34.330      862.206
07/15/2014  13:30:00       13.243       54.324       84.548       83.330       71.008       63.376     6943.940     5042.136     4016.491        1.314        0.800       55.915       53.203        0.905      352.228       34.723      862.190
07/15/2014  13:31:00       85.259       17.153       56.262       66.218       62.192       49.954     4384.879     3867.864     2495.378        1.074        0.537       86.967       50.887        0.342      351.727       33.851      862.201
07/15/2014  13:32:00      101.228      -78.353        0.450       39.465       38.994       25.607     1557.459     1520.553      655.697        1.006        0.187      128.009       23.185        0.033      351.059       32.683      862.184
07/15/2014  13:33:00       21.188       22.753       29.902       34.081       49.422       23.834     1161.534     2442.551      568.047        0.302        0.209       31.091       19.787        0.405      351.677       33.762      862.179
07/15/2014  13:34:00        1.086      -43.896       -6.683       36.948       32.588       23.117     1365.119     1061.966      534.417        0.247        0.148       43.909       20.633        0.221      351.576       33.585      862.158
07/15/2014  13:35:00       29.002       34.931       19.379       33.841       42.126       35.217     1145.244     1774.600     1240.234        0.330        0.208       45.401       22.545        0.247      351.869       34.098      862.146
07/15/2014  13:36:00       31.469      -27.623       14.885       37.605       35.934       31.966     1414.135     1291.280     1021.800        0.285        0.186       41.873       19.275        0.212      351.700       33.803      862.135
07/15/2014  13:37:00       31.320       -6.459       18.569       31.376       40.099       24.019      984.422     1607.895      576.924        0.227        0.158       31.979       12.169        0.145      351.954       34.247      862.107
07/15/2014  13:38:00       48.272       40.531       40.909       63.173       48.481       49.195     3990.812     2350.388     2420.182        0.720        0.438       63.031       37.736        0.358      352.122       34.539      862.102
07/15/2014  13:39:00      -12.664       58.383       -1.150       31.029       33.112       30.270      962.802     1096.408      916.285        0.327        0.149       59.741       23.337        0.153      352.194       34.664      862.091
07/15/2014  13:40:00       -1.029       12.925       22.454       22.193       21.014       17.235      492.540      441.599      297.032        0.095        0.062       12.966       12.777        0.971      352.816       35.754      862.074
07/15/2014  13:41:00      -15.740       63.075       14.282       33.075       51.746       28.236     1093.951     2677.657      797.250        0.450        0.228       65.009       25.298        0.151      352.233       34.734      862.055
07/15/2014  13:42:00      -24.885       45.321        9.260       32.968       38.584       25.486     1086.862     1488.749      649.544        0.299        0.161       51.703       23.233        0.202      352.562       35.310      862.033
07/15/2014  13:43:00     -102.448       -1.578        5.823       78.710       70.234       36.070     6195.290     4932.801     1301.017        1.148        0.621      102.461       38.890        0.144      352.241       34.747      862.018
07/15/2014  13:44:00     -196.433        1.221      -16.558       37.379       55.824       27.324     1397.219     3116.298      746.582        2.206        0.263      196.437       21.100        0.012      351.502       33.454      862.000
07/15/2014  13:45:00      -86.613      -27.832      -13.048       64.305       24.736       22.822     4135.105      611.879      520.838        0.686        0.263       90.975       32.725        0.129      351.629       33.676      861.984
07/15/2014  13:46:00      -84.904      -28.656       10.640       71.913       47.616       39.010     5171.541     2267.268     1521.774        0.855        0.448       89.609       36.168        0.163      352.151       34.590      861.961
07/15/2014  13:47:00      -59.395      -89.008       -4.923       71.227       47.706       39.560     5073.233     2275.906     1564.961        1.019        0.446      107.006       32.621        0.093      351.919       34.183      861.952
07/15/2014  13:48:00      -61.699     -190.272       -4.846       62.090       90.640       42.468     3855.147     8215.559     1803.528        2.695        0.694      200.025        9.918        0.002      351.792       33.959      861.926
07/15/2014  13:49:00     -103.129     -146.752      -14.286       71.372       84.567       48.127     5093.963     7151.583     2316.175        2.347        0.728      179.365       46.992        0.069      352.031       34.377      861.896
07/15/2014  13:50:00     -188.511     -134.990      -18.734       87.777       70.362       46.317     7704.802     4950.810     2145.305        3.445        0.740      231.859       44.787        0.037      351.850       34.061      861.872
07/15/2014  13:51:00      -98.258      -56.674        9.677       70.352       74.966       43.091     4949.380     5619.878     1856.819        1.269        0.621      113.431       41.110        0.131      352.307       34.860      861.869
07/15/2014  13:52:00      -51.567      -47.404       11.628       55.853       46.529       33.649     3119.588     2164.984     1132.263        0.573        0.321       70.045       26.285        0.141      352.247       34.758      861.866
07/15/2014  13:53:00      -51.821      -74.178      -12.194       33.024       50.373       27.294     1090.599     2537.436      744.963        0.635        0.219       90.487       20.377        0.051      351.934       34.209      861.867
07/15/2014  13:54:00       -9.427       -7.490       32.991       64.436       65.478       37.450     4151.982     4287.417     1402.510        0.554        0.492       12.040       46.737       15.068      352.178       34.637      861.853
07/15/2014  13:55:00       59.471       52.911       20.150       50.019       39.916       33.413     2501.869     1593.301     1116.412        0.598        0.261       79.601       23.432        0.087      352.377       34.986      861.851
07/15/2014  13:56:00        5.496       -0.101       30.680       26.792       33.041       23.101      717.799     1091.718      533.651        0.166        0.117        5.497       15.647        8.102      352.504       35.206      861.840
07/15/2014  13:57:00       15.907       73.832       22.560       51.860       52.635       34.908     2689.467     2770.423     1218.564        0.644        0.334       75.527       29.124        0.149      352.354       34.946      861.834
07/15/2014  13:58:00       -5.505      107.921        5.726       87.709       61.103       35.366     7692.787     3733.623     1250.783        1.219        0.634      108.061       33.897        0.098      352.221       34.713      861.824
07/15/2014  13:59:00      122.506       67.997       39.117       83.982       81.151       62.941     7052.938     6585.517     3961.607        1.938        0.880      140.112       34.672        0.061      352.533       35.256      861.803
07/15/2014  14:00:00      292.666      131.984       32.184      134.989       96.777       94.628    18221.972     9365.732     8954.434        7.032        1.827      321.050       59.032        0.034      352.207       34.684      861.784
07/15/2014  14:01:00      195.448       77.331       71.743      145.750      121.467       98.949    21243.117    14754.249     9790.853        4.755        2.289      210.190       79.996        0.145      351.791       33.957      861.780
07/15/2014  14:02:00      130.562       70.273       49.427       79.886      103.164       52.005     6381.760    10642.826     2704.546        2.207        0.986      148.273       37.682        0.065      351.797       33.968      861.764
07/15/2014  14:03:00      116.668      150.697        1.841       94.164      112.410       62.867     8866.890    12635.921     3952.250        3.088        1.273      190.581       57.993        0.093      352.098       34.494      861.784
07/15/2014  14:04:00      -23.868      168.461      -20.130       30.240       48.612       21.695      914.473     2363.142      470.687        1.655        0.187      170.143       23.166        0.019      351.797       33.970      861.796
07/15/2014  14:05:00      -37.795      207.005      -17.060       43.098       76.164       28.933     1857.453     5800.936      837.133        2.653        0.425      210.427       33.114        0.025      351.869       34.094      861.781
07/15/2014  14:06:00       -9.746      110.671       -5.030       24.656       73.455       29.379      607.909     5395.710      863.145        0.962        0.343      111.099       38.595        0.121      352.016       34.355      861.775
07/15/2014  14:07:00      110.641      123.478       13.435       97.748       74.071       48.313     9554.662     5486.578     2334.156        2.252        0.869      165.796       42.385        0.065      352.003       34.329      861.758
07/15/2014  14:08:00       89.038       71.409       12.313       46.255       40.559       31.537     2139.543     1645.037      994.598        0.898        0.239      114.136       25.157        0.049      352.030       34.377      861.752
07/15/2014  14:09:00       36.798       27.273       11.777       23.204       20.746       23.867      538.418      430.406      569.653        0.189        0.077       45.803        8.398        0.034      352.025       34.370      861.738
07/15/2014  14:10:00        6.143        2.102       11.345       15.781       16.718       19.685      249.035      279.482      387.499        0.054        0.046        6.493       15.952        6.036      352.508       35.214      861.727
07/15/2014  14:11:00       34.736      -25.884       13.640       18.037       12.590       21.620      325.316      158.517      467.418        0.151        0.048       43.319       10.696        0.061      351.907       34.164      861.716
07/15/2014  14:12:00       58.692       38.079       23.585       40.792       38.732       23.380     1664.012     1500.144      546.611        0.458        0.186       69.963       19.340        0.076      352.029       34.375      861.692
07/15/2014  14:13:00      122.342      105.090       16.310       72.122       47.785       44.360     5201.601     2283.449     1967.802        1.786        0.473      161.281       26.547        0.027      352.129       34.550      861.674
07/15/2014  14:14:00      149.194       97.339       39.896       57.442       39.654       47.174     3299.585     1572.401     2225.370        2.021        0.355      178.139       22.832        0.016      351.935       34.210      861.660
07/15/2014  14:15:00      107.778       95.744       28.656       83.079       57.349       63.114     6902.199     3288.929     3983.430        1.789        0.709      144.163       31.799        0.049      352.059       34.428      861.650
07/15/2014  14:16:00        5.357       37.776       -3.599       72.923       59.084       32.848     5317.757     3490.888     1079.001        0.568        0.494       38.154       29.967        0.617      352.317       34.881      861.629
07/15/2014  14:17:00       24.513        5.565        9.155       30.022       39.664       28.346      901.332     1573.207      803.514        0.200        0.164       25.136       13.428        0.285      352.258       34.776      861.609
07/15/2014  14:18:00       42.329       16.921       17.131       32.458       28.781       21.314     1053.497      828.352      454.266        0.235        0.117       45.586       13.337        0.086      352.255       34.771      861.590
07/15/2014  14:19:00       61.312      102.131       -3.141       37.243      100.568       40.426     1387.051    10113.878     1634.292        1.366        0.657      119.121       54.722        0.211      352.079       34.462      861.569
07/15/2014  14:20:00      -17.918      191.906      -22.036       30.540       48.108       31.501      932.704     2314.399      992.339        2.094        0.212      192.741       30.223        0.025      351.905       34.157      861.555
07/15/2014  14:21:00      -11.554      112.345      -23.605       34.727       74.056       27.419     1205.994     5484.257      751.820        1.038        0.372      112.937       35.853        0.101      352.111       34.519      861.536
07/15/2014  14:22:00      -23.907       87.457      -14.728       30.279       65.329       27.759      916.792     4267.852      770.540        0.719        0.298       90.665       29.690        0.107      352.076       34.459      861.516
07/15/2014  14:23:00       49.334       67.161        4.643      101.592       33.021       37.606    10320.938     1090.410     1414.224        0.989        0.641       83.334       36.061        0.187      352.163       34.610      861.497
07/15/2014  14:24:00      133.303       62.063       12.683       48.716       44.733       37.517     2373.213     2001.068     1407.494        1.378        0.289      147.043       13.420        0.008      352.006       34.335      861.473
07/15/2014  14:25:00       54.006       34.115       44.849       57.153       41.416       37.948     3266.461     1715.262     1440.081        0.626        0.321       63.879       32.480        0.259      352.112       34.522      861.451
07/15/2014  14:26:00       71.867       34.502       10.030       62.668       60.803       38.802     3927.218     3696.964     1505.599        0.779        0.456       79.720       26.368        0.109      352.017       34.356      861.436
07/15/2014  14:27:00       98.174      -30.037        7.217       63.564       33.247       35.465     4040.415     1105.374     1257.779        0.850        0.320      102.666       24.505        0.057      351.574       33.583      861.436
07/15/2014  14:28:00      106.512     -118.142       -5.405       50.239       36.930       26.557     2523.981     1363.858      705.295        1.496        0.230      159.067       29.800        0.035      351.834       34.034      861.407
07/15/2014  14:29:00       32.291      -54.580       10.783       37.121       74.727       34.875     1377.957     5584.156     1216.263        0.616        0.409       63.417       28.252        0.198      351.901       34.154      861.378
07/15/2014  14:30:00       62.990       51.884       21.213       45.066       43.767       38.979     2030.940     1915.577     1519.396        0.629        0.273       81.607       29.137        0.127      351.618       33.658      861.371
07/15/2014  14:31:00      191.325      127.620       26.884      135.675       87.946       73.134    18407.818     7734.490     5348.636        4.255        1.575      229.983       56.219        0.060      352.207       34.683      861.342
07/15/2014  14:32:00      305.614      185.125       24.167       75.926       55.120       52.217     5764.829     3038.223     2726.652        6.989        0.576      357.311       38.273        0.011      351.955       34.244      861.325
07/15/2014  14:33:00      236.222      142.949       19.851       89.515       57.162       44.939     8012.975     3267.517     2019.522        4.496        0.665      276.107       32.546        0.014      352.056       34.419      861.308
07/15/2014  14:34:00      126.533       97.244       31.397       76.548       55.779       44.615     5859.613     3111.267     1990.530        1.870        0.548      159.584       33.837        0.045      352.341       34.921      861.289
07/15/2014  14:35:00       37.776       78.185       83.581       52.744       51.805       38.190     2781.925     2683.731     1458.512        1.072        0.346       86.833       25.690        0.088      352.377       34.984      861.256
07/15/2014  14:36:00      138.216      101.435       60.353       95.373       53.197       43.904     9096.083     2829.900     1927.590        2.344        0.693      171.443       42.599        0.062      352.283       34.817      861.232
07/15/2014  14:37:00       28.340       39.625       68.373       58.982       64.024       34.449     3478.831     4099.082     1186.736        0.790        0.438       48.716       38.173        0.614      352.756       35.648      861.203
07/15/2014  14:38:00       31.569       54.040       55.509       37.637       43.736       39.423     1416.561     1912.808     1554.148        0.594        0.244       62.585       25.014        0.160      352.357       34.950      861.197
07/15/2014  14:39:00       76.754       35.525       30.467       72.329       41.024       45.924     5231.429     1682.969     2108.993        0.855        0.451       84.577       34.586        0.167      352.292       34.836      861.177
07/15/2014  14:40:00      -22.281      122.142      -10.358       43.110       84.824       33.612     1858.437     7195.071     1129.765        1.285        0.509      124.157       16.087        0.017      352.081       34.465      861.155
07/15/2014  14:41:00      -51.692       50.937      -11.892       36.779       51.070       37.843     1352.728     2608.149     1432.076        0.540        0.270       72.571       29.092        0.161      352.424       35.068      861.133
07/15/2014  14:42:00     -146.647      110.370      -25.513       68.112       91.364       40.298     4639.312     8347.378     1623.927        2.447        0.731      183.540       33.826        0.034      352.357       34.946      861.105
07/15/2014  14:43:00     -131.184      110.733      -24.686       50.892       68.967       37.379     2589.999     4756.495     1397.177        1.941        0.437      171.671       31.507        0.034      352.400       35.024      861.065
07/15/2014  14:44:00      -75.583       14.929        2.881       75.336       52.753       43.602     5675.480     2782.901     1901.125        0.815        0.518       77.043       39.802        0.267      352.638       35.441      861.018
07/15/2014  14:45:00      -49.609      -31.164        8.874       73.016       61.065       44.332     5331.326     3728.920     1965.321        0.727        0.551       58.585       38.726        0.437      352.522       35.239      860.988
07/15/2014  14:46:00     -113.472      -17.998        0.781       67.221       69.028       35.916     4518.724     4764.889     1289.936        1.188        0.529      114.890       27.659        0.058      352.834       35.784      860.969
07/15/2014  14:47:00     -155.323      -35.246      -18.560       93.996       91.823       49.690     8835.158     8431.440     2469.145        2.272        0.987      159.272       42.896        0.073      352.740       35.618      860.925
07/15/2014  14:48:00     -169.431       -4.262       -5.863      195.862      105.325       82.923    38361.837    11093.435     6876.281        4.253        2.817      169.484      107.384        0.401      353.009       36.089      860.829
07/15/2014  14:49:00       50.032       53.014      162.690      109.826      155.415       97.418    12061.701    24153.864     9490.303        3.873        2.285       72.895      100.280        1.893      352.803       35.727      860.831
07/15/2014  14:50:00       95.390      -35.667       68.018       95.438      105.621       93.908     9108.336    11155.872     8818.719        2.203        1.454      101.840       79.126        0.604      352.615       35.400      860.872
07/15/2014  14:51:00       60.314        3.827       50.985       64.632       95.402       54.155     4177.243     9101.636     2932.817        1.123        0.811       60.436       50.278        0.692      352.549       35.285      860.880
07/15/2014  14:52:00      176.466       72.539       49.781      136.095       97.648       58.031    18521.764     9535.161     3367.597        3.515        1.571      190.794       37.710        0.039      352.433       35.082      860.874
07/15/2014  14:53:00      233.238      175.918       67.172      138.887       93.192       81.089    19289.700     8684.818     6575.429        6.220        1.727      292.142       63.806        0.048      352.516       35.223      860.840
07/15/2014  14:54:00      233.967      130.856       61.745      127.761       97.652       72.221    16322.822     9535.944     5215.801        5.337        1.554      268.074       56.683        0.045      352.342       34.919      860.831
07/15/2014  14:55:00      174.746       68.923       13.278       85.716       66.428       45.795     7347.195     4412.702     2097.183        2.466        0.693      187.847       16.107        0.007      352.432       35.079      860.814
07/15/2014  14:56:00       38.422       63.685       52.809       65.252       59.405       56.087     4257.881     3528.956     3145.739        0.962        0.547       74.378       42.582        0.328      352.553       35.294      860.781
07/15/2014  14:57:00      308.397      166.138       54.697      109.064       88.066       72.412    11895.061     7755.584     5243.536        7.529        1.245      350.301       42.098        0.014      352.465       35.133      860.754
07/15/2014  14:58:00      117.301       44.926       58.558      134.545       86.154       90.865    18102.405     7422.484     8256.481        2.649        1.689      125.610       75.341        0.360      352.362       34.958      860.730
07/15/2014  14:59:00      197.511      134.370       24.008       81.403       70.631       56.705     6626.459     4988.713     3215.482        3.623        0.742      238.885       33.234        0.019      352.553       35.290      860.730
07/15/2014  15:00:00      212.681      190.371        6.654      122.313       95.974       90.000    14960.483     9210.962     8100.060        5.689        1.614      285.437       57.250        0.040      352.419       35.053      860.730
07/15/2014  15:01:00      156.312      124.413       23.920      110.112       99.756       74.498    12124.613     9951.324     5549.954        3.405        1.381      199.780       55.944        0.078      352.713       35.569      860.733
07/15/2014  15:02:00       72.660      202.859      -31.211       65.133       88.315       52.952     4242.367     7799.524     2803.931        3.112        0.742      215.479       52.362        0.059      352.284       34.819      860.766
07/15/2014  15:03:00       61.350       86.222      -10.734       71.546       61.008       42.155     5118.834     3722.019     1777.031        1.096        0.531      105.821       26.557        0.063      352.390       35.007      860.757
07/15/2014  15:04:00      106.764       77.486       34.242       91.653       46.583       64.194     8400.277     2170.016     4120.880        1.663        0.735      131.919       29.756        0.051      352.274       34.804      860.732
07/15/2014  15:05:00       79.396        2.901       22.674       41.480       46.194       23.193     1720.618     2133.841      537.922        0.561        0.220       79.449       20.950        0.070      352.072       34.451      860.721
07/15/2014  15:06:00       26.378       16.089       15.012       28.970       48.572       25.565      839.246     2359.288      653.546        0.252        0.193       30.897       17.913        0.336      352.208       34.689      860.711
07/15/2014  15:07:00       95.016       58.332       19.467       54.508       54.537       34.329     2971.145     2974.335     1178.474        0.997        0.356      111.493       13.780        0.015      352.079       34.464      860.706
07/15/2014  15:08:00      141.022       89.281       23.426       66.812       61.052       44.000     4463.823     3727.338     1935.997        1.927        0.506      166.908       36.068        0.047      352.456       35.121      860.689
07/15/2014  15:09:00      189.842      147.827       41.409      150.766       90.011       57.369    22730.309     8101.982     3291.232        4.686        1.706      240.609       64.140        0.071      352.432       35.079      860.689
07/15/2014  15:10:00      203.616      140.558       44.865      109.494       66.840       81.105    11988.842     4467.611     6577.993        4.313        1.152      247.419       79.099        0.102      352.427       35.067      860.690
07/15/2014  15:11:00       62.548       79.941       86.356       59.145       54.254       33.621     3498.144     2943.471     1130.388        1.266        0.379      101.502       18.489        0.033      352.577       35.333      860.678
07/15/2014  15:12:00       78.829      114.409       89.670       64.282       42.866       44.835     4132.223     1837.469     2010.183        1.766        0.399      138.937       45.037        0.105      352.418       35.056      860.671
07/15/2014  15:13:00       93.902       55.210        9.352       53.330       30.939       32.337     2844.068      957.246     1045.662        0.840        0.242      108.930       28.963        0.071      352.328       34.900      860.669
07/15/2014  15:14:00       98.203       69.407       27.781       47.377       45.566       47.464     2244.595     2076.294     2252.842        1.090        0.329      120.254       20.218        0.028      352.387       35.001      860.662
07/15/2014  15:15:00      174.340      107.397       19.562       86.815       79.216       51.886     7536.824     6275.135     2692.121        2.940        0.825      204.764       34.072        0.028      352.462       35.129      860.655
07/15/2014  15:16:00       64.689       10.019        5.650       65.890       62.592       30.823     4341.462     3917.798      950.058        0.676        0.460       65.460       21.012        0.103      352.248       34.759      860.672
07/15/2014  15:17:00       24.779      -48.623      -10.073       37.394       39.989       20.209     1398.344     1599.086      408.408        0.324        0.170       54.573       14.186        0.068      352.453       35.119      860.659
07/15/2014  15:18:00       54.619      116.885      -30.413       57.866       74.479       34.232     3348.512     5547.087     1171.821        1.382        0.503      129.017       31.566        0.060      352.522       35.238      860.654
07/15/2014  15:19:00      -42.058      110.527      -21.650       29.163       41.353       20.874      850.458     1710.037      435.739        0.872        0.150      118.259       13.604        0.013      352.409       35.041      860.635
07/15/2014  15:20:00      -34.172      111.173       -4.017       32.687       57.913       28.332     1068.410     3353.972      802.681        0.938        0.261      116.306       23.419        0.041      352.674       35.506      860.623
07/15/2014  15:21:00       57.751        5.358       16.828       43.316       24.762       24.399     1876.267      613.139      595.320        0.337        0.154       57.999       12.587        0.047      352.458       35.126      860.619
07/15/2014  15:22:00       79.548       28.947       17.976       51.038       52.421       32.895     2604.856     2747.961     1082.090        0.696        0.322       84.652       31.389        0.137      352.213       34.697      860.624
07/15/2014  15:23:00      101.109      -33.459       19.061       56.009       40.021       38.568     3136.992     1601.655     1487.475        0.896        0.311      106.502       29.387        0.076      352.171       34.624      860.621
07/15/2014  15:24:00       29.001      -24.640       34.140       54.845       56.303       47.613     3007.994     3170.056     2266.987        0.553        0.422       38.055       39.388        1.071      352.657       35.476      860.616
07/15/2014  15:25:00      -61.956     -196.990       -3.302       61.667       71.339       51.074     3802.856     5089.209     2608.564        2.708        0.575      206.503       26.711        0.017      352.567       35.314      860.614
07/15/2014  15:26:00      -51.811      -31.748        8.126       56.826       72.057       40.014     3229.164     5192.196     1601.132        0.689        0.501       60.764       44.288        0.531      352.584       35.346      860.611
07/15/2014  15:27:00       15.289      -26.318       15.417       28.252       39.975       25.986      798.176     1597.994      675.294        0.212        0.154       30.437       28.603        0.883      352.706       35.560      860.602
07/15/2014  15:28:00       -8.513        1.527       11.479       28.164       18.530       29.769      793.199      343.376      886.167        0.111        0.101        8.649       19.093        4.873      352.656       35.474      860.596
07/15/2014  15:29:00      -28.242      -59.048        8.446       41.763       47.955       34.631     1744.155     2299.649     1199.313        0.480        0.262       65.454        5.865        0.008      352.728       35.599      860.600
07/15/2014  15:30:00      -14.937        2.721        3.958       50.715       39.320       34.991     2572.041     1546.070     1224.352        0.279        0.267       15.183       30.650        4.075      352.603       35.380      860.588
07/15/2014  15:31:00      -38.641      -53.250       11.769       41.904       64.260       31.966     1755.975     4129.390     1021.843        0.569        0.345       65.793       28.504        0.188      352.776       35.682      860.591
07/15/2014  15:32:00       -1.498      -28.443       19.408       43.900       55.819       33.693     1927.252     3115.792     1135.206        0.368        0.309       28.483       28.542        1.004      352.951       35.988      860.592
07/15/2014  15:33:00      -59.551      -28.787       -7.642       45.805       30.646       21.505     2098.080      939.156      462.464        0.397        0.175       66.143        7.971        0.015      352.841       35.797      860.590
07/15/2014  15:34:00       35.667      -65.593        1.020       56.099       64.000       47.515     3147.105     4096.016     2257.675        0.754        0.475       74.663       40.569        0.295      352.396       35.017      860.586
07/15/2014  15:35:00       62.458      -96.695        6.922       45.155       71.391       37.627     2038.965     5096.698     1415.807        1.092        0.428      115.113       25.998        0.051      352.368       34.969      860.597
07/15/2014  15:36:00       24.248       -7.145       29.639       57.163       61.846       41.888     3267.561     3824.980     1754.641        0.518        0.442       25.279       45.935        3.302      352.436       35.089      860.595
07/15/2014  15:37:00       27.885        4.754       30.940       29.951       28.581       29.418      897.083      816.865      865.392        0.217        0.129       28.288       19.559        0.478      352.281       34.817      860.592
07/15/2014  15:38:00       37.671      -20.018       25.207       38.627       50.630       28.805     1492.063     2563.392      829.734        0.367        0.244       42.660       31.705        0.552      352.233       34.734      860.595
07/15/2014  15:39:00       42.251       -6.663       27.047       44.687       40.649       28.910     1996.923     1652.355      835.776        0.352        0.224       42.773       20.228        0.224      352.186       34.652      860.587
07/15/2014  15:40:00       47.411      -62.295        9.640       40.809       45.382       34.528     1665.363     2059.496     1192.202        0.557        0.246       78.285       24.335        0.097      352.307       34.861      860.572
07/15/2014  15:41:00       15.960      -29.756       26.074       22.998       49.508       29.495      528.920     2451.083      869.975        0.283        0.192       33.766       26.896        0.634      352.520       35.234      860.576
07/15/2014  15:42:00       30.151       27.993       27.242       37.151       31.621       28.806     1380.162      999.862      829.812        0.282        0.160       41.143       19.893        0.234      351.847       34.058      860.583
07/15/2014  15:43:00       43.444       29.899       24.126       45.682       47.451       38.389     2086.855     2251.626     1473.703        0.459        0.291       52.738       35.729        0.459      352.146       34.581      860.587
07/15/2014  15:44:00      107.020       91.628       10.274       53.349       50.667       33.565     2846.114     2567.192     1126.613        1.325        0.327      140.887       18.791        0.018      352.606       35.384      860.587
07/15/2014  15:45:00       94.940       34.322       18.308       66.235       52.111       35.698     4387.018     2715.589     1274.381        0.945        0.419      100.954       26.082        0.067      352.641       35.445      860.565
07/15/2014  15:46:00       92.875       44.550       15.817       58.155       46.085       36.926     3382.021     2123.798     1363.516        0.886        0.343      103.008       28.576        0.077      352.770       35.673      860.566
07/15/2014  15:47:00      106.510       63.665       20.223       48.593       40.133       27.943     2361.281     1610.681      780.811        1.028        0.238      124.087       23.517        0.036      352.343       34.927      860.554
07/15/2014  15:48:00       33.904        9.448       19.997       63.390       69.675       38.919     4018.255     4854.615     1514.706        0.601        0.519       35.196       22.931        0.424      352.701       35.552      860.551
07/15/2014  15:49:00      106.084       42.598       67.804       83.920       92.515       71.078     7042.559     8558.981     5052.147        1.916        1.033      114.317       68.873        0.363      352.243       34.750      860.530
07/15/2014  15:50:00      138.047      135.302       96.581      101.467       79.460       71.525    10295.552     6313.932     5115.817        3.420        1.086      193.297       46.452        0.058      351.921       34.185      860.502
07/15/2014  15:51:00      153.719      128.504       58.588      101.122       51.950       51.087    10225.579     2698.824     2609.857        2.955        0.777      200.357       48.772        0.059      352.334       34.907      860.503
07/15/2014  15:52:00      137.927      108.948        0.117       98.313       52.805       51.700     9665.352     2788.361     2672.909        2.301        0.756      175.766       39.167        0.050      352.721       35.584      860.506
07/15/2014  15:53:00      138.501      119.546        4.052       81.922       55.788       57.442     6711.136     3112.279     3299.580        2.330        0.656      182.958       41.217        0.051      352.611       35.391      860.510
07/15/2014  15:54:00       46.422      119.410       -5.902       53.276       80.850       45.411     2838.289     6536.689     2062.137        1.394        0.572      128.116       42.032        0.108      352.563       35.310      860.523
07/15/2014  15:55:00       23.251       82.812        1.137       35.263       63.204       36.971     1243.453     3994.743     1366.848        0.700        0.330       86.014       38.470        0.200      352.625       35.417      860.525
07/15/2014  15:56:00       -0.829       63.981      -13.599       32.246       35.826       19.602     1039.790     1283.468      384.228        0.349        0.135       63.986       16.510        0.067      352.488       35.181      860.531
07/15/2014  15:57:00       23.868      143.064      -11.835       56.884       56.469       37.830     3235.837     3188.760     1431.092        1.451        0.393      145.041       35.142        0.059      352.521       35.238      860.517
07/15/2014  15:58:00       87.079       66.274        6.905       59.342       41.270       38.720     3521.434     1703.173     1499.252        0.937        0.336      109.430       23.939        0.048      352.558       35.302      860.496
07/15/2014  15:59:00      107.159       89.666       32.628       61.805       48.817       39.365     3819.819     2383.110     1549.569        1.417        0.388      139.724       25.758        0.034      352.530       35.253      860.492
07/15/2014  16:00:00       90.994       74.881       42.696       62.623       40.518       43.590     3921.613     1641.732     1900.049        1.159        0.373      117.843       18.868        0.026      352.544       35.277      860.494
07/15/2014  16:01:00      101.360       58.798       25.692       64.040       42.333       34.447     4101.129     1792.120     1186.621        1.073        0.354      117.180       30.692        0.069      352.342       34.922      860.481
07/15/2014  16:02:00       34.846        2.559       19.133       32.445       45.641       23.449     1052.670     2083.087      549.847        0.264        0.184       34.939       20.359        0.340      351.442       33.352      860.459
07/15/2014  16:03:00      134.290       44.196       23.840      108.109       67.946       47.220    11687.497     4616.591     2229.700        1.954        0.927      141.376       44.386        0.099      352.341       34.918      860.454
07/15/2014  16:04:00      136.739       66.328       60.321      120.941       67.534       74.020    14626.790     4560.808     5478.977        2.570        1.233      151.977       23.221        0.023      352.278       34.812      860.435
07/15/2014  16:05:00      160.008      107.881       22.621      101.111       72.129       61.506    10223.499     5202.586     3782.993        2.848        0.960      192.979       34.803        0.033      352.481       35.164      860.447
07/15/2014  16:06:00       47.786      184.062       -1.984       72.976      113.966       67.764     5325.563    12988.267     4591.986        2.953        1.145      190.164       67.364        0.125      352.477       35.156      860.473
07/15/2014  16:07:00       54.737      142.094       -0.274       66.090       95.031       63.435     4367.943     9030.897     4023.981        2.030        0.871      152.272       62.076        0.166      352.451       35.111      860.474
07/15/2014  16:08:00       48.248       70.145        1.667       75.046       56.622       51.333     5631.841     3206.077     2635.095        0.936        0.574       85.136       41.319        0.236      352.463       35.134      860.462
07/15/2014  16:09:00       64.994      139.130       -4.953       77.064      105.909       55.032     5938.907    11216.666     3028.486        2.189        1.009      153.563       63.136        0.169      352.504       35.205      860.459
07/15/2014  16:10:00       88.265        3.281       19.825       71.505       57.332       40.513     5112.913     3286.923     1641.270        0.912        0.502       88.326       26.854        0.092      352.101       34.502      860.468
07/15/2014  16:11:00       65.733       82.204       91.813       75.251       72.319       53.052     5662.666     5230.044     2814.492        1.660        0.685      105.253       47.402        0.203      351.911       34.169      860.472
07/15/2014  16:12:00       62.622       53.015       77.396       56.888       55.421       43.654     3236.279     3071.460     1905.684        1.047        0.411       82.049       31.413        0.147      352.089       34.481      860.474
07/15/2014  16:13:00       56.699       72.024       85.781       76.191       75.957       54.431     5805.029     5769.399     2962.725        1.515        0.727       91.663       38.044        0.172      352.248       34.759      860.473
07/15/2014  16:14:00       41.367       23.675       40.664       60.647       80.848       45.431     3678.034     6536.389     2063.952        0.810        0.614       47.663       28.922        0.368      352.013       34.348      860.475
07/15/2014  16:15:00       59.059       17.308       24.061       64.934       37.164       37.285     4216.400     1381.152     1390.169        0.568        0.349       61.543       11.115        0.033      352.064       34.438      860.483
07/15/2014  16:16:00       26.329       12.330       47.124       47.517       49.028       32.540     2257.843     2403.729     1058.824        0.439        0.286       29.073       28.858        0.985      351.861       34.082      860.480
07/15/2014  16:17:00       69.801     -107.110       -0.189       69.478       81.942       46.477     4827.163     6714.423     2160.124        1.502        0.685      127.846       41.373        0.105      352.278       34.811      860.467
07/15/2014  16:18:00       50.498      -20.851       66.274       87.049       87.139       48.438     7577.550     7593.134     2346.196        1.244        0.876       54.633       49.963        0.836      352.071       34.450      860.462
07/15/2014  16:19:00      150.455       83.623       90.239      114.496       77.813       71.581    13109.405     6054.868     5123.888        3.103        1.214      172.132       58.931        0.117      351.942       34.221      860.467
07/15/2014  16:20:00       46.243       78.640       71.310       68.507       62.007       49.004     4693.209     3844.849     2401.368        1.217        0.547       91.229       34.602        0.144      351.823       34.016      860.496
07/15/2014  16:21:00       96.240       57.224       12.164       54.216       52.293       39.402     2939.371     2734.527     1552.548        0.995        0.361      111.968       26.276        0.055      352.192       34.660      860.514
07/15/2014  16:22:00      133.515      122.327       66.295       65.595       53.571       57.830     4302.764     2869.865     3344.338        2.385        0.526      181.081       32.405        0.032      352.292       34.833      860.515
07/15/2014  16:23:00      128.625       82.252       21.087       83.356       58.107       42.359     6948.148     3376.428     1794.295        1.793        0.606      152.676       26.716        0.031      352.354       34.942      860.523
07/15/2014  16:24:00       54.934       46.615       37.459       58.979       37.863       46.503     3478.570     1433.577     2162.567        0.683        0.354       72.046       31.466        0.191      351.977       34.285      860.524
07/15/2014  16:25:00       76.411       58.231       22.543       85.266       71.707       55.706     7270.257     5141.911     3103.175        1.262        0.776       96.071       47.800        0.248      352.295       34.841      860.523
07/15/2014  16:26:00       94.065       39.305       52.442       81.753       67.326       69.257     6683.558     4532.757     4796.487        1.457        0.801      101.946       51.941        0.260      351.826       34.020      860.524
07/15/2014  16:27:00      165.261      119.202       61.937       79.474       57.642       48.492     6316.107     3322.613     2351.500        2.867        0.600      203.765       34.298        0.028      351.963       34.259      860.534
07/15/2014  16:28:00      118.989       78.932       47.992       73.326       54.439       52.585     5376.672     2963.636     2765.137        1.690        0.555      142.789       28.132        0.039      352.311       34.868      860.533
07/15/2014  16:29:00      138.430       60.450       40.472      103.446       61.519       43.198    10701.104     3784.557     1866.041        2.040        0.818      151.054       37.341        0.061      352.123       34.539      860.528
07/15/2014  16:30:00       92.117       92.741       57.906       67.609       54.237       54.423     4570.941     2941.622     2961.869        1.545        0.524      130.715       43.732        0.112      352.337       34.913      860.552
07/15/2014  16:31:00      125.731       74.937       61.323       82.667       71.474       66.936     6833.863     5108.582     4480.394        2.080        0.821      146.369       46.833        0.102      352.131       34.552      860.542
07/15/2014  16:32:00      187.317      100.727       60.572       71.404       68.363       48.444     5098.580     4673.545     2346.784        3.051        0.606      212.682       38.487        0.033      352.178       34.634      860.542
07/15/2014  16:33:00      159.636       95.349       23.840       93.006       79.226       71.207     8650.162     6276.743     5070.494        2.757        1.000      185.944       45.793        0.061      352.231       34.725      860.536
07/15/2014  16:34:00      114.506       72.588       38.122       59.634       51.735       51.379     3556.224     2676.498     2639.753        1.435        0.444      135.576       35.968        0.070      352.201       34.677      860.549
07/15/2014  16:35:00      144.984      137.378       83.432       98.797       54.388       46.812     9760.889     2958.070     2191.343        3.088        0.746      199.733       34.254        0.029      352.162       34.604      860.535
07/15/2014  16:36:00       86.932       69.598       79.441       72.840       63.980       56.308     5305.632     4093.429     3170.601        1.564        0.628      111.360       44.836        0.162      351.860       34.080      860.528
07/15/2014  16:37:00       97.708       13.428       63.119       68.161       94.110       58.398     4645.891     8856.632     3410.271        1.531        0.846       98.626       36.012        0.133      351.972       34.274      860.513
07/15/2014  16:38:00       43.758       23.600       63.982       49.648       53.840       36.004     2464.905     2898.692     1296.261        0.661        0.333       49.717       25.766        0.269      351.891       34.136      860.518
07/15/2014  16:39:00       79.338       34.353       36.497       55.579       63.782       43.598     3089.037     4068.184     1900.805        0.893        0.453       86.456       37.765        0.191      351.692       33.787      860.521
07/15/2014  16:40:00       72.314       35.655       11.692       55.466       36.706       33.634     3076.466     1347.341     1131.246        0.610        0.278       80.626       26.053        0.104      351.839       34.044      860.521
07/15/2014  16:41:00      135.012       70.901       13.325       65.397       51.788       38.092     4276.711     2681.970     1451.008        1.592        0.420      152.497        8.319        0.003      351.766       33.917      860.525
07/15/2014  16:42:00      130.392       57.947       29.800       78.692       68.190       43.393     6192.434     4649.933     1882.919        1.698        0.636      142.688       31.667        0.049      351.816       34.003      860.509
07/15/2014  16:43:00      122.311       43.064       46.238       91.201       66.830       48.230     8317.617     4466.205     2326.094        1.703        0.755      129.670       42.397        0.107      351.634       33.685      860.497
07/15/2014  16:44:00      155.571       79.837       37.754       99.122       88.577       59.271     9825.160     7845.849     3513.015        2.659        1.059      174.861       44.124        0.064      352.037       34.387      860.503
07/15/2014  16:45:00      117.783       85.579       59.217       97.590       68.657       44.991     9523.853     4713.805     2024.198        2.048        0.813      145.591       44.026        0.091      351.906       34.161      860.505
07/15/2014  16:46:00      121.588       85.393       50.424       96.475       57.287       48.985     9307.436     3281.796     2399.558        1.980        0.749      148.579       32.963        0.049      352.197       34.666      860.513
07/15/2014  16:47:00       75.500       69.461       62.964       66.543       44.466       42.129     4427.964     1977.214     1774.833        1.133        0.409      102.592       36.665        0.128      351.212       32.949      860.523
07/15/2014  16:48:00      123.467       95.455       58.133       62.924       51.907       49.580     3959.486     2694.339     2458.192        1.842        0.456      156.063       31.003        0.039      351.732       33.857      860.529
07/15/2014  16:49:00      125.032       73.936       48.830       59.844       47.330       42.453     3581.260     2240.108     1802.296        1.555        0.381      145.257       24.123        0.028      351.744       33.878      860.548
07/15/2014  16:50:00       99.113       28.968       26.696       49.948       39.831       30.573     2494.800     1586.496      934.724        0.819        0.251      103.260       23.153        0.050      351.363       33.215      860.567
07/15/2014  16:51:00       48.906        5.723       55.368       46.436       59.422       32.058     2156.259     3530.995     1027.699        0.610        0.336       49.240       29.870        0.368      351.234       32.988      860.579
07/15/2014  16:52:00      101.934        5.548       41.942       83.340       49.573       39.634     6945.557     2457.516     1570.848        1.157        0.549      102.084       45.639        0.200      351.589       33.607      860.597
07/15/2014  16:53:00      134.383       -9.646       29.217       79.557       48.756       38.297     6329.273     2377.175     1466.642        1.459        0.509      134.729       39.911        0.088      351.466       33.394      860.628
07/15/2014  16:54:00       35.243        5.644       43.129       45.365       60.748       49.454     2057.940     3690.357     2445.714        0.566        0.410       35.692       46.834        1.722      351.318       33.135      860.665
07/15/2014  16:55:00       34.585      -21.406       46.564       51.606       58.466       29.693     2663.169     3418.295      881.653        0.539        0.348       40.674       32.764        0.649      351.752       33.893      860.705
07/15/2014  16:56:00       40.084        2.376       57.568       54.739       80.865       59.565     2996.400     6539.181     3547.949        0.900        0.654       40.154       51.751        1.661      351.805       33.985      860.763
07/15/2014  16:57:00      -54.197      -48.102       93.931      139.914      207.047      150.803    19576.058    42868.353    22741.661        4.961        4.259       72.465      159.723        4.858      351.676       33.756      860.717
07/15/2014  16:58:00      -62.232     -192.688       30.462      110.846       94.914       78.589    12286.863     9008.585     6176.183        3.470        1.374      202.488       32.387        0.026      351.337       33.165      860.806
07/15/2014  16:59:00       24.814     -291.219        3.069      103.980      159.976       77.495    10811.926    25592.393     6005.474        6.391        2.120      292.274       63.658        0.047      350.757       32.154      860.846
07/15/2014  17:00:00       37.806      -28.485       57.570       94.173       87.346       41.703     8868.544     7629.241     1739.108        1.189        0.912       47.336       43.697        0.852      350.874       32.360      860.815
07/15/2014  17:01:00       33.388        0.898       46.751       49.267       89.045       77.473     2427.218     7929.067     6002.054        0.983        0.818       33.400       75.165        5.064      350.678       32.020      860.776
07/15/2014  17:02:00      -57.552      -14.419        1.771       50.523       31.016       28.503     2552.581      961.995      812.396        0.392        0.216       59.331       15.473        0.068      350.733       32.116      860.773
07/15/2014  17:03:00       47.906       27.640       49.567       62.013       85.437       62.696     3845.648     7299.434     3930.817        1.029        0.754       55.308       53.453        0.934      350.600       31.885      860.762
07/15/2014  17:04:00       97.049      -80.881       46.245      117.120      152.819      108.234    13717.114    23353.520    11714.553        3.343        2.439      126.334      108.533        0.738      350.523       31.748      860.728
07/15/2014  17:05:00       83.722      -59.914       86.298      114.656      209.826      123.215    13145.940    44027.157    15182.024        4.519        3.618      102.952      151.807        2.174      350.656       31.977      860.738
07/15/2014  17:06:00       38.695       48.836      154.182      102.679      183.361      106.348    10542.984    33621.366    11309.866        4.155        2.774       62.308      123.297        3.916      350.600       31.879      860.698
07/15/2014  17:07:00       63.267     -178.542       -9.608      126.465       93.572       65.173    15993.282     8755.724     4247.583        3.248        1.450      189.420       47.910        0.064      350.578       31.843      860.763
07/15/2014  17:08:00       83.318     -156.331       53.811      107.969      237.482      140.031    11657.328    56397.649    19608.775        6.095        4.383      177.147      168.678        0.907      350.479       31.670      860.727
07/15/2014  17:09:00     -104.635     -305.895        5.161      150.338      222.262      141.421    22601.372    49400.476    20000.002        9.826        4.600      323.296      144.623        0.200      350.423       31.572      860.706
07/15/2014  17:10:00      141.259     -299.941       41.412      162.116      224.227      124.441    26281.550    50277.652    15485.665       10.182        4.602      331.540      135.179        0.166      350.307       31.371      860.740
07/15/2014  17:11:00      195.212     -302.583        2.425      168.364      217.176       94.498    28346.324    47165.384     8929.946       10.704        4.222      360.089      109.528        0.093      350.342       31.432      860.729
07/15/2014  17:12:00        3.442     -115.960       30.929      101.545      148.158       82.392    10311.404    21950.698     6788.489        2.672        1.953      116.011       65.680        0.321      350.338       31.428      860.762
07/15/2014  17:13:00      147.839     -194.565       41.180      156.674      267.874      109.050    24546.587    71756.266    11891.906        8.478        5.410      244.360      134.163        0.301      350.162       31.119      860.739
07/15/2014  17:14:00        7.454      -86.618       54.052       83.351      120.939       63.154     6947.440    14626.303     3988.460        1.802        1.278       86.938       53.468        0.378      350.399       31.534      860.760
07/15/2014  17:15:00       88.862     -138.540       46.103      123.599      253.210       99.511    15276.815    64115.137     9902.346        5.924        4.465      164.589      132.604        0.649      350.259       31.289      860.771
07/15/2014  17:16:00       19.078      -23.309       75.663       87.314      109.873       81.537     7623.655    12072.026     6648.240        1.648        1.317       30.121       44.238        2.157      350.269       31.308      860.769
07/15/2014  17:17:00       70.395      -11.413       90.904      128.217      158.772       93.086    16439.515    25208.407     8665.049        3.182        2.516       71.314      103.886        2.122      350.237       31.252      860.783
07/15/2014  17:18:00      145.470       14.674      144.209      204.527      211.265      141.313    41831.445    44632.751    19969.287        7.428        5.322      146.208      160.867        1.211      350.178       31.148      860.763
07/15/2014  17:19:00       34.736     -219.883       -6.663      108.869      116.759       74.130    11852.554    13632.756     5495.324        4.028        1.549      222.609       55.168        0.061      350.137       31.076      860.802
07/15/2014  17:20:00       58.660      -10.641       86.198      158.129      203.666      127.130    25004.714    41479.936    16161.974        4.680        4.132       59.617      128.151        4.621      350.174       31.142      860.820
07/15/2014  17:21:00       33.833     -200.442      -26.054      129.078      125.442       85.348    16661.198    15735.673     7284.326        4.083        1.984      203.278       34.832        0.029      350.130       31.064      860.833
07/15/2014  17:22:00       58.652      -96.882       36.426      112.835      151.333       97.845    12731.688    22901.636     9573.725        2.967        2.260      113.252       98.437        0.755      350.077       30.972      860.843
07/15/2014  17:23:00       48.977     -118.776       28.350      121.534      111.749       53.608    14770.519    12487.825     2873.848        2.372        1.507      128.478       37.042        0.083      350.166       31.128      860.835
07/15/2014  17:24:00      107.446     -181.247       18.513      112.438      115.320       67.184    12642.413    13298.597     4513.723        3.759        1.523      210.702       62.561        0.088      350.075       30.969      860.844
07/15/2014  17:25:00      210.047     -345.916      -15.995      115.650      131.479       73.390    13375.034    17286.687     5386.136       10.003        1.802      404.694       71.290        0.031      350.046       30.918      860.809
07/15/2014  17:26:00       37.495      -73.805       27.789       65.228      105.130       69.142     4254.728    11052.355     4780.573        1.385        1.004       82.783       62.042        0.562      350.101       31.017      860.803
07/15/2014  17:27:00       32.771      -12.786       21.630       45.147       48.468       47.945     2038.223     2349.121     2298.696        0.419        0.334       35.177       30.655        0.759      350.078       30.976      860.803
07/15/2014  17:28:00       16.459       -3.407       28.402       28.566       47.488       37.829      816.020     2255.067     1431.036        0.279        0.225       16.808       32.846        3.819      350.158       31.117      860.786
07/15/2014  17:29:00       21.639       10.034       12.544       43.589       37.121       35.218     1899.987     1377.997     1240.332        0.262        0.226       23.852       22.325        0.876      350.114       31.040      860.810
07/15/2014  17:30:00       10.661       49.972      106.037       52.509       72.261       50.531     2757.217     5221.696     2553.362        1.219        0.527       51.097       35.283        0.477      350.327       31.410      860.800
07/15/2014  17:31:00       31.425      -32.437       13.781       63.205       54.029       30.837     3994.853     2919.137      950.923        0.505        0.393       45.163       22.988        0.259      350.222       31.227      860.833
07/15/2014  17:32:00       93.558      -45.917       27.447       70.340       93.057       50.008     4947.784     8659.553     2500.768        1.386        0.805      104.218       63.908        0.376      350.321       31.398      860.837
07/15/2014  17:33:00       69.585       16.479       35.402       59.620       68.199       47.128     3554.488     4651.151     2221.048        0.839        0.521       71.509       46.417        0.421      350.334       31.423      860.851
07/15/2014  17:34:00       83.360      -70.326        9.699      120.880      106.041       50.340    14611.969    11244.785     2534.069        2.018        1.420      109.062       49.402        0.205      350.282       31.328      860.846
07/15/2014  17:35:00      106.221      -43.021       39.176       97.712      123.569       75.949     9547.614    15269.203     5768.308        2.262        1.529      114.602       78.949        0.475      350.283       31.330      860.820
07/15/2014  17:36:00       60.064     -106.021       -2.365       70.919       85.605       46.048     5029.434     7328.248     2120.397        1.466        0.724      121.853       48.881        0.161      350.238       31.254      860.829
07/15/2014  17:37:00       79.887       50.184       56.135       46.498       85.133       42.906     2162.030     7247.585     1840.912        1.165        0.563       94.342       48.540        0.265      350.180       31.154      860.817
07/15/2014  17:38:00      145.702       67.580       32.771       45.599       37.051       40.195     2079.311     1372.749     1615.661        1.597        0.253      160.612       27.742        0.030      350.239       31.257      860.812
07/15/2014  17:39:00       61.153       19.128       21.359       55.439       59.177       32.156     3073.529     3501.914     1033.987        0.608        0.380       64.075       22.271        0.121      350.369       31.482      860.811
07/15/2014  17:40:00       67.542       19.408       28.562       57.681       45.794       43.049     3327.068     2097.093     1853.231        0.651        0.364       70.275       27.896        0.158      350.418       31.568      860.810
07/15/2014  17:41:00       64.937      -20.129       19.875       72.527       60.913       56.125     5260.201     3710.356     3149.992        0.857        0.606       67.985       36.682        0.291      350.321       31.399      860.823
07/15/2014  17:42:00      106.689      -99.864       16.010      107.359       93.393       56.922    11525.974     8722.219     3240.127        2.255        1.174      146.135       69.211        0.224      350.272       31.312      860.811
07/15/2014  17:43:00       27.676       -1.870       -8.412       23.261       56.284       22.738      541.056     3167.898      517.029        0.253        0.211       27.739       16.053        0.335      350.131       31.070      860.810
07/15/2014  17:44:00      -40.247       16.567      -13.232       29.790       45.221       15.194      887.441     2044.924      230.863        0.262        0.158       43.523       13.401        0.095      350.316       31.391      860.797
07/15/2014  17:45:00       16.204      -11.954        7.879       54.772       51.583       40.529     2999.963     2660.828     1642.612        0.388        0.365       20.137       38.876        3.727      350.356       31.460      860.784
07/15/2014  17:46:00      -98.373      -46.896       -5.947       33.365       48.442       22.337     1113.242     2346.635      498.937        0.793        0.198      108.979       23.167        0.045      350.405       31.543      860.774
07/15/2014  17:47:00      -61.179      -54.604        3.328       62.832       46.724       26.970     3947.828     2183.123      727.358        0.680        0.343       82.003       22.597        0.076      350.453       31.629      860.805
07/15/2014  17:48:00       -4.141     -128.983      -17.474       39.623       27.905       27.672     1569.963      778.684      765.744        1.004        0.156      129.049       11.170        0.007      350.392       31.525      860.832
07/15/2014  17:49:00       64.573      -48.050       10.640       48.309       54.229       38.360     2333.766     2940.743     1471.504        0.667        0.337       80.489       32.884        0.167      350.566       31.827      860.827
07/15/2014  17:50:00       75.391      -94.113        4.415       51.205       55.628       43.210     2621.923     3094.466     1867.107        1.107        0.379      120.586       35.188        0.085      350.526       31.756      860.825
07/15/2014  17:51:00      -27.588      -86.757       -5.317       57.397       37.883       24.106     3294.403     1435.123      581.081        0.681        0.266       91.038       15.622        0.029      350.514       31.735      860.852
07/15/2014  17:52:00      -93.456      -71.616      -11.126       53.122       35.963       28.504     2821.936     1293.370      812.466        0.946        0.246      117.740       28.149        0.057      350.493       31.700      860.873
07/15/2014  17:53:00     -179.240       25.700      -20.740       49.939       46.934       29.206     2493.906     2202.816      852.968        1.938        0.277      181.073       15.762        0.008      350.535       31.771      860.916
07/15/2014  17:54:00     -110.554       18.823       -9.967       45.356       32.307       25.136     2057.188     1043.736      631.796        0.820        0.187      112.145       24.400        0.047      350.526       31.755      860.935
07/15/2014  17:55:00      -14.593      -27.893        5.442       64.630       41.565       26.270     4177.100     1727.684      690.133        0.381        0.330       31.480       23.182        0.542      350.715       32.087      860.941
07/15/2014  17:56:00        7.793      -23.846        2.766       55.747       40.466       33.360     3107.679     1637.518     1112.914        0.325        0.293       25.088       22.534        0.807      350.359       31.466      860.916
07/15/2014  17:57:00     -251.357      -53.977       -4.882      119.620       84.689       44.754    14309.003     7172.222     2002.937        4.480        1.174      257.087       38.191        0.022      350.760       32.160      861.050
07/15/2014  17:58:00     -138.358     -132.622      -13.891      125.354      167.104       54.662    15713.555    27923.863     2987.912        4.177        2.331      191.654       51.104        0.071      350.714       32.078      861.053
07/15/2014  17:59:00     -195.195      189.786      -26.018      123.625      102.375       65.092    15283.100    10480.683     4236.998        5.239        1.500      272.250       38.631        0.020      350.678       32.015      861.121
07/15/2014  18:00:00     -352.215       28.360      -32.256      182.044      131.138       62.351    33140.120    17197.092     3887.683        9.005        2.711      353.355       59.296        0.028      350.613       31.904      861.169
07/15/2014  18:01:00     -374.282       49.367      -20.468      193.766      155.231       81.825    37545.324    24096.606     6695.412       10.563        3.417      377.523       71.445        0.036      350.582       31.849      861.188
07/15/2014  18:02:00     -558.047     -150.005      -24.166      148.229      197.200       95.290    21971.963    38887.727     9080.204       20.221        3.497      577.857       85.812        0.022      350.495       31.697      861.129
07/15/2014  18:03:00     -192.585       14.886       -4.221      141.170      115.682       74.528    19928.997    13382.411     5554.438        3.809        1.943      193.159       68.152        0.124      350.565       31.821      861.165
07/15/2014  18:04:00     -169.180       -9.993       -3.262      125.877      101.568       58.473    15845.060    10316.060     3419.094        2.915        1.479      169.475       58.401        0.119      350.542       31.781      861.176
07/15/2014  18:05:00     -518.238     -101.174      -12.415      263.938      234.021      106.806    69663.090    54765.825    11407.614       20.737        6.792      528.021      109.005        0.043      350.298       31.356      861.143
07/15/2014  18:06:00     -295.173      -98.652        0.394      252.808      190.468       92.258    63911.865    36278.182     8511.484       10.276        5.435      311.222      110.480        0.126      350.311       31.380      861.179
07/15/2014  18:07:00     -591.982      -85.766      -10.372      249.622      163.328      101.880    62311.350    26675.951    10379.483       22.862        4.968      598.163      122.244        0.042      350.214       31.210      861.139
07/15/2014  18:08:00     -307.366      -62.642        3.667      173.421      164.970       89.587    30074.732    27215.065     8025.918        8.185        3.266      313.684       97.241        0.096      350.260       31.289      861.180
07/15/2014  18:09:00     -560.610     -110.168      -50.002      196.527      197.485      102.718    38622.965    39000.188    10550.948       20.853        4.409      571.333      100.177        0.031      350.123       31.051      861.183
07/15/2014  18:10:00     -596.063      -87.415       -7.553      297.710      236.160      126.206    88631.180    55771.690    15927.983       26.163        8.017      602.438      138.729        0.053      350.022       30.875      861.137
07/15/2014  18:11:00     -397.545     -217.617      -21.640      249.954      195.175      111.395    62477.180    38093.402    12408.912       15.940        5.649      453.210      118.518        0.068      350.030       30.889      861.103
07/15/2014  18:12:00     -434.721      -79.655       -7.560      271.654      221.500      118.913    73795.932    49062.406    14140.327       16.616        6.850      441.958      119.705        0.073      350.022       30.875      861.149
07/15/2014  18:13:00     -609.792      -40.208      -31.925      272.324      194.397      109.885    74160.623    37790.072    12074.713       24.923        6.201      611.116      121.434        0.039      349.915       30.691      861.152
07/15/2014  18:14:00     -386.706      -95.034       -1.515      286.727      122.489       97.317    82212.303    15003.520     9470.599       13.261        5.334      398.212      126.466        0.101      349.951       30.753      861.096
07/15/2014  18:15:00     -448.604     -103.135      -16.394      260.738      175.246       97.106    67984.148    30711.310     9429.585       16.012        5.406      460.306      116.517        0.064      349.959       30.768      861.106
07/15/2014  18:16:00     -486.791     -172.207      -13.105      285.327      211.580      108.738    81411.750    44766.120    11823.888       20.237        6.900      516.353      122.394        0.056      349.964       30.777      861.134
07/15/2014  18:17:00     -495.914      -38.282      -28.531      203.434      164.595       78.134    41385.193    27091.577     6104.962       16.138        3.729      497.389       80.805        0.026      349.918       30.696      861.198
07/15/2014  18:18:00     -658.899      -49.117      -30.045      239.182      191.955      125.287    57208.139    36846.606    15696.827       27.359        5.488      660.727      120.560        0.033      349.756       30.415      861.182
07/15/2014  18:19:00     -568.463     -128.129      -46.398      271.286      194.620      112.594    73596.349    37877.074    12677.509       23.291        6.208      582.724      127.493        0.048      349.729       30.366      861.162
07/15/2014  18:20:00     -259.005     -167.606        1.258      216.358      180.795      112.861    46810.765    32686.655    12737.718        9.369        4.612      308.505      127.012        0.169      349.750       30.404      861.189
07/15/2014  18:21:00     -409.269     -157.074      -12.008      213.443      186.830       99.264    45557.928    34905.312     9853.413       14.130        4.516      438.376      109.661        0.063      349.755       30.411      861.197
07/15/2014  18:22:00     -239.220      -67.070        8.333      170.856      170.721       95.679    29191.856    29145.709     9154.504        6.463        3.375      248.445       83.131        0.112      349.740       30.385      861.220
07/15/2014  18:23:00     -363.947     -108.218        7.006      227.451      144.993       88.118    51733.787    21023.102     7764.712       11.235        4.026      379.695       89.928        0.056      349.713       30.339      861.203
07/15/2014  18:24:00     -188.904     -103.317      -13.199      151.125      142.906       76.417    22838.783    20422.105     5839.556        4.781        2.455      215.312       79.225        0.135      349.698       30.315      861.203
07/15/2014  18:25:00     -398.447      -77.893       -8.322      272.206      178.986       96.049    74096.094    32035.888     9225.343       14.010        5.768      405.990      102.670        0.064      349.674       30.271      861.203
07/15/2014  18:26:00     -481.652      -76.572      -17.965      247.549      166.127      113.190    61280.641    27598.079    12812.024       16.991        5.085      487.700      126.479        0.067      349.611       30.163      861.191
07/15/2014  18:27:00     -385.933      -66.603      -17.585      216.163      203.280       89.225    46726.247    41322.621     7961.182       12.483        4.801      391.638      103.920        0.070      349.547       30.051      861.149
07/15/2014  18:28:00     -406.625     -109.382       -5.226      235.209      161.204       96.813    55323.458    25986.599     9372.800       13.399        4.534      421.080      116.568        0.077      349.549       30.056      861.038
07/15/2014  18:29:00     -376.482     -123.964        4.434      213.206      161.638       98.295    45456.795    26126.837     9661.971       11.917        4.062      396.366       99.222        0.063      349.617       30.173      861.059
07/15/2014  18:30:00     -398.377     -286.613       17.179      300.002      193.505      129.142    90001.075    37444.344    16677.545       19.261        7.206      490.766      142.049        0.084      349.623       30.184      861.036
07/15/2014  18:31:00     -679.971     -368.236      -31.409      272.708      202.098      126.080    74369.842    40843.803    15896.286       36.500        6.555      773.278      131.862        0.029      349.603       30.149      861.000
07/15/2014  18:32:00     -676.896     -369.043      -31.206      302.696      246.760      116.876    91624.723    60890.551    13659.899       38.073        8.309      770.961      131.830        0.029      349.573       30.097      861.005
07/15/2014  18:33:00     -621.534     -325.404      -25.076      276.203      206.753      121.730    76288.292    42746.709    14818.246       31.331        6.693      701.564      120.619        0.030      349.590       30.126      860.990
07/15/2014  18:34:00     -444.038     -230.389      -13.268      299.362      187.291      122.681    89617.893    35078.034    15050.538       19.506        6.987      500.249      104.271        0.043      349.622       30.181      861.003
07/15/2014  18:35:00     -495.603     -255.379       -4.697      271.006      235.658      122.408    73444.007    55534.733    14983.707       22.738        7.198      557.531      132.031        0.056      349.600       30.143      861.020
07/15/2014  18:36:00     -452.394     -205.323        2.301      282.330      214.386      115.473    79710.062    45961.398    13334.013       19.289        6.950      496.808      140.017        0.079      349.623       30.183      861.018
07/15/2014  18:37:00     -237.289     -107.913       20.634      205.090      132.978       89.139    42062.096    17683.124     7945.740        6.802        3.385      260.674       98.073        0.142      349.648       30.227      861.018
07/15/2014  18:38:00     -405.946     -184.134       -3.974      212.928      167.081       87.224    45338.314    27915.928     7608.065       13.977        4.043      445.755       99.103        0.049      349.638       30.210      861.028
07/15/2014  18:39:00     -413.831     -266.526      -22.283      199.848      137.770       74.730    39939.088    18980.549     5584.537       15.363        3.225      492.232       88.623        0.032      349.656       30.241      861.008
07/15/2014  18:40:00     -204.724      -92.818       -6.180      151.532       97.998       62.355    22961.973     9603.645     3888.121        4.350        1.823      224.782       66.611        0.088      349.681       30.283      861.013
07/15/2014  18:41:00     -349.539     -205.995        7.282      186.538      148.572       75.534    34796.290    22073.701     5705.320       11.361        3.129      405.724       85.199        0.044      349.657       30.241      861.005
07/15/2014  18:42:00     -428.904     -256.770       -6.602      269.859      184.506      103.842    72823.933    34042.379    10783.087       18.377        5.882      499.890      132.823        0.071      349.673       30.270      860.992
07/15/2014  18:43:00     -363.113     -254.092       -0.462      168.026      121.795       74.764    28232.697    14833.900     5589.647       12.253        2.433      443.186       76.173        0.030      349.690       30.299      860.976
07/15/2014  18:44:00     -480.854     -311.811      -21.834      249.900      174.118      119.517    62449.915    30317.247    14284.216       21.797        5.353      573.103      125.499        0.048      349.681       30.282      860.975
07/15/2014  18:45:00     -240.190     -171.552       14.596      166.514      138.839       81.702    27727.023    19276.355     6675.212        7.050        2.684      295.163       92.052        0.097      349.722       30.354      860.989
07/15/2014  18:46:00     -463.291     -340.989      -10.706      216.790      166.075      101.485    46997.826    27580.886    10299.283       20.794        4.244      575.250      117.334        0.042      349.710       30.333      860.945
07/15/2014  18:47:00     -421.776     -304.875      -16.137      240.200      169.836      106.863    57695.803    28844.262    11419.777       18.451        4.898      520.426      132.285        0.065      349.715       30.341      860.953
07/15/2014  18:48:00     -254.375     -158.495       -5.206      186.391      123.715       58.924    34741.424    15305.428     3471.997        7.168        2.676      299.712       77.151        0.066      349.738       30.382      860.953
07/15/2014  18:49:00     -191.834     -246.828       -2.747      147.819      133.947       69.510    21850.525    17941.858     4831.643        7.117        2.231      312.609       71.379        0.052      349.747       30.397      860.932
07/15/2014  18:50:00     -296.709     -109.470        0.895      201.495      190.611       66.741    40600.244    36332.697     4454.330        9.069        4.069      316.259       64.093        0.041      349.731       30.370      860.901
07/15/2014  18:51:00     -432.540     -221.909      -12.095      208.321      166.076       82.176    43397.817    27581.150     6752.820       15.709        3.887      486.142       95.553        0.039      349.748       30.399      860.900
07/15/2014  18:52:00     -136.200     -130.274       14.527      145.027       92.214       58.229    21032.957     8503.440     3390.668        3.432        1.646      188.472       71.483        0.144      349.755       30.414      860.915
07/15/2014  18:53:00     -150.261      -98.603       29.995      126.809       92.407       65.629    16080.549     8539.069     4307.200        3.106        1.446      179.724       60.330        0.113      349.776       30.449      860.918
07/15/2014  18:54:00     -261.156     -201.251      -10.001      191.914      142.508       86.411    36830.801    20308.427     7466.828        8.669        3.230      329.703       88.526        0.072      349.785       30.464      860.880
07/15/2014  18:55:00     -276.941     -180.526        3.301      198.755      168.004       95.727    39503.598    28225.491     9163.680        9.308        3.845      330.584      107.472        0.106      349.787       30.468      860.884
07/15/2014  18:56:00     -419.852     -241.237       -8.405      193.009      193.988       95.216    37252.614    37631.153     9066.110       15.923        4.197      484.222      102.960        0.045      349.771       30.439      860.895
07/15/2014  18:57:00     -327.016     -180.672      -13.404      165.596      113.248       67.590    27421.913    12825.134     4568.455        9.228        2.241      373.607       71.141        0.036      349.763       30.427      860.908
07/15/2014  18:58:00     -208.296     -160.781       12.529      138.214      124.726       60.091    19103.058    15556.511     3610.876        5.382        1.914      263.131       56.780        0.047      349.784       30.464      860.918
07/15/2014  18:59:00     -205.581     -174.122        4.882      145.523       95.151       61.038    21176.909     9053.745     3725.607        5.327        1.698      269.411       66.848        0.062      349.757       30.417      860.917
07/15/2014  19:00:00     -223.770     -206.090        6.412      183.396      132.626       68.210    33633.966    17589.715     4652.622        7.422        2.794      304.214       88.269        0.084      349.767       30.435      860.912
07/15/2014  19:01:00     -160.145     -238.259        5.311      119.242      135.941       66.985    14218.676    18479.859     4487.033        5.981        1.859      287.078       54.645        0.036      349.760       30.420      860.893
07/15/2014  19:02:00     -159.367     -147.213       -5.568      105.189      105.937       48.072    11064.726    11222.736     2310.965        3.584        1.230      216.955       50.100        0.053      349.778       30.456      860.905
07/15/2014  19:03:00     -242.356     -217.702        0.997      170.929      132.906       63.899    29216.645    17664.018     4083.105        7.854        2.548      325.777       69.767        0.046      349.794       30.479      860.901
07/15/2014  19:04:00     -175.321     -149.931       12.551      188.676      144.476       83.027    35598.517    20873.414     6893.562        5.836        3.168      230.687       85.567        0.138      349.797       30.486      860.891
07/15/2014  19:05:00     -254.500     -156.805        4.917      146.590      111.734       65.294    21488.750    12484.546     4263.313        6.380        1.912      298.928       69.451        0.054      349.817       30.520      860.899
07/15/2014  19:06:00     -265.695     -183.064        8.942      204.316      147.179       73.328    41745.137    21661.667     5377.010        8.647        3.439      322.655       76.437        0.056      349.853       30.582      860.896
07/15/2014  19:07:00     -167.623     -148.128        7.030      158.026      106.698       59.916    24972.259    11384.527     3589.951        4.501        1.997      223.695       70.846        0.100      349.857       30.591      860.914
07/15/2014  19:08:00      -48.805     -143.630       24.868       96.033       78.838       49.698     9222.343     6215.487     2469.882        2.077        0.895      151.696       46.162        0.093      349.855       30.587      860.917
07/15/2014  19:09:00      -66.435      -78.136       -3.320       64.455       81.811       46.034     4154.455     6693.037     2119.140        1.175        0.648      102.562       42.881        0.175      349.856       30.591      860.926
07/15/2014  19:10:00      -99.936      -86.331       -1.994       84.029       44.289       39.088     7060.887     1961.503     1527.875        1.400        0.528      132.062       27.952        0.045      349.860       30.596      860.961
07/15/2014  19:11:00      -58.596     -184.383        5.706      105.552       97.644       56.329    11141.196     9534.416     3173.005        3.065        1.192      193.470       32.836        0.029      349.856       30.588      860.970
07/15/2014  19:12:00     -222.664      -91.933        9.640      143.790      102.737       54.994    20675.623    10554.808     3024.288        4.618        1.713      240.896       51.597        0.046      349.918       30.696      860.993
07/15/2014  19:13:00     -119.888     -284.769       13.876      102.742      119.245       52.156    10555.843    14219.343     2720.216        6.157        1.375      308.977       49.189        0.025      349.926       30.710      861.014
07/15/2014  19:14:00     -128.584     -272.833      -15.001      160.675       73.497       54.729    25816.378     5401.743     2995.261        6.270        1.711      301.615       40.072        0.018      349.915       30.691      861.033
07/15/2014  19:15:00     -163.879     -217.917        9.290      153.480      122.769       60.412    23556.210    15072.209     3649.551        5.835        2.114      272.661       52.506        0.037      349.900       30.665      861.057
07/15/2014  19:16:00      -95.723     -148.161       10.860      122.440      106.654       55.520    14991.649    11375.043     3082.440        3.034        1.472      176.393       46.250        0.069      349.919       30.699      861.069
07/15/2014  19:17:00     -146.678     -219.067       13.306      193.476      120.290       72.392    37433.129    14469.627     5240.537        6.340        2.857      263.638       89.254        0.115      349.917       30.696      861.088
07/15/2014  19:18:00       52.705     -179.693       -6.832      103.795      108.570       60.004    10773.355    11787.549     3600.466        3.063        1.308      187.263       24.098        0.017      349.861       30.598      861.079
07/15/2014  19:19:00     -225.335     -101.257        2.935      104.623       74.352       50.284    10945.901     5528.233     2528.500        4.002        0.950      247.040       45.675        0.034      349.891       30.648      861.129
07/15/2014  19:20:00      -49.705     -108.001        7.748      101.634       82.548       36.560    10329.376     6814.138     1336.648        1.633        0.924      118.890       27.635        0.054      349.864       30.603      861.160
07/15/2014  19:21:00     -127.563     -124.687        8.901       98.451      118.552       48.989     9692.642    14054.607     2399.889        2.902        1.307      178.379       41.367        0.054      349.901       30.668      861.176
07/15/2014  19:22:00     -150.685      -96.978        9.894       93.733       70.479       45.377     8785.931     4967.230     2059.083        2.401        0.791      179.195       47.552        0.070      349.906       30.675      861.210
07/15/2014  19:23:00     -122.692     -101.351       -2.059       86.564       61.056       36.561     7493.262     3727.876     1336.711        1.894        0.628      159.139       43.183        0.074      349.907       30.677      861.241
07/15/2014  19:24:00      -27.766      -88.109       12.827       62.142       64.321       32.616     3861.681     4137.136     1063.799        0.888        0.453       92.380       28.304        0.094      349.908       30.681      861.259
07/15/2014  19:25:00      -66.480     -107.547       13.177       54.675       75.212       29.260     2989.354     5656.791      856.123        1.283        0.475      126.436       29.806        0.056      349.904       30.673      861.262
07/15/2014  19:26:00      -34.097      -89.042       10.261       55.710       77.394       37.532     3103.614     5989.825     1408.630        0.985        0.525       95.347       31.398        0.108      349.827       30.539      861.272
07/15/2014  19:27:00      -20.849      -93.136       13.173       43.963       79.593       28.907     1932.783     6335.054      835.594        0.919        0.455       95.441       32.570        0.116      349.811       30.512      861.295
07/15/2014  19:28:00       -1.436      -41.178       21.534       21.745       48.002       19.533      472.858     2304.236      381.542        0.266        0.158       41.203       19.018        0.213      349.750       30.405      861.321
07/15/2014  19:29:00      -32.032     -143.899        3.341       36.757       30.598       24.939     1351.070      936.242      621.972        1.233        0.145      147.421       21.637        0.022      349.883       30.639      861.342
07/15/2014  19:30:00      -43.442     -118.083        6.241       49.935       81.585       28.032     2493.511     6656.177      785.773        1.290        0.497      125.820       29.410        0.055      349.845       30.571      861.363
07/15/2014  19:31:00     -192.398      -17.442        8.783      135.015      109.463       51.966    18229.025    11982.158     2700.427        3.515        1.646      193.187       64.950        0.113      349.877       30.627      861.374
07/15/2014  19:32:00      -52.248      -45.872       11.051       69.031       45.035       41.129     4765.300     2028.173     1691.614        0.672        0.424       69.528       16.054        0.053      349.834       30.552      861.402
07/15/2014  19:33:00      -48.156      -53.467       14.227       63.862       57.605       33.441     4078.391     3318.314     1118.300        0.695        0.426       71.957       38.959        0.293      349.700       30.321      861.421
07/15/2014  19:34:00     -184.918     -136.150      -10.381       66.107       64.632       37.919     4370.120     4177.290     1437.867        3.141        0.499      229.634       38.004        0.027      349.876       30.623      861.440
07/15/2014  19:35:00     -111.831      -98.704       12.165       91.901       66.914       40.233     8445.759     4477.486     1618.678        1.847        0.727      149.160       39.537        0.070      349.854       30.586      861.473
07/15/2014  19:36:00     -162.195     -138.569        8.640       99.895       64.564       46.405     9979.060     4168.538     2153.443        3.094        0.815      213.327       47.884        0.050      349.853       30.583      861.466
07/15/2014  19:37:00     -203.580      -58.426      -15.638      108.238      108.141       52.963    11715.364    11694.462     2805.092        3.565        1.311      211.798       57.970        0.075      349.834       30.548      861.483
07/15/2014  19:38:00     -176.757     -114.001       -0.319      108.539       78.318       43.612    11780.763     6133.784     1902.049        3.202        0.991      210.331       47.733        0.052      349.789       30.473      861.504
07/15/2014  19:39:00      -66.924      -70.917       20.222       98.725       63.917       56.768     9746.705     4085.376     3222.637        1.348        0.853       97.509       56.669        0.338      349.774       30.448      861.520
07/15/2014  19:40:00     -176.208     -115.861        0.193       82.831       71.031       39.540     6860.978     5045.422     1563.434        2.897        0.673      210.886       39.069        0.034      349.772       30.441      861.530
07/15/2014  19:41:00     -180.662      -43.107       -6.556       90.725       61.007       42.589     8231.004     3721.850     1813.798        2.415        0.688      185.733       39.437        0.045      349.774       30.446      861.531
07/15/2014  19:42:00      -74.038      -67.258       11.874       66.679       34.411       30.321     4446.095     1184.099      919.375        0.835        0.327      100.026       32.655        0.107      349.741       30.392      861.544
07/15/2014  19:43:00     -121.751     -120.319        5.969       78.971       66.501       38.053     6236.376     4422.324     1448.064        2.072        0.605      171.172       34.565        0.041      349.756       30.417      861.557
07/15/2014  19:44:00     -143.408      -60.663       13.036      100.741       59.903       43.846    10148.816     3588.387     1922.438        2.003        0.783      155.711       47.186        0.092      349.772       30.443      861.571
07/15/2014  19:45:00     -131.597      -47.030       12.502      105.786       66.689       40.656    11190.780     4447.451     1652.893        1.849        0.865      139.749       49.787        0.127      349.771       30.443      861.590
07/15/2014  19:46:00     -168.768      -94.750       -8.484       69.021       54.381       36.289     4763.911     2957.301     1316.922        2.328        0.452      193.546       25.118        0.017      349.796       30.483      861.599
07/15/2014  19:47:00     -194.504      -88.075       -2.498       73.629       55.853       39.653     5421.291     3119.512     1572.394        2.785        0.506      213.516       43.519        0.042      349.768       30.436      861.599
07/15/2014  19:48:00     -238.507     -153.212       -2.747       98.021       75.842       50.920     9608.101     5752.048     2592.867        4.916        0.898      283.478       55.902        0.039      349.793       30.478      861.599
07/15/2014  19:49:00     -227.712     -128.146        3.643      101.352       76.020       42.539    10272.309     5779.083     1809.563        4.307        0.893      261.293       46.319        0.031      349.775       30.447      861.605
07/15/2014  19:50:00     -206.968      -94.400        2.629       72.964       51.092       32.786     5323.721     2610.373     1074.912        3.038        0.450      227.480       27.305        0.014      349.763       30.427      861.612
07/15/2014  19:51:00     -104.104      -91.940       11.042       77.855       41.779       31.158     6061.447     1745.472      970.822        1.409        0.439      138.891       24.973        0.032      349.735       30.380      861.616
07/15/2014  19:52:00     -145.390     -103.654        2.119       60.299       48.792       38.235     3635.939     2380.617     1461.933        1.968        0.374      178.557       32.667        0.033      349.747       30.401      861.620
07/15/2014  19:53:00     -122.299     -116.107       13.810       70.487       78.035       42.935     4968.412     6089.454     1843.399        2.076        0.645      168.635       34.580        0.042      349.753       30.411      861.628
07/15/2014  19:54:00     -217.682     -150.109       -4.991      108.278       74.765       52.364    11724.176     5589.746     2741.994        4.500        1.003      264.421       56.405        0.046      349.827       30.538      861.634
07/15/2014  19:55:00     -160.787     -175.017       -7.444       80.987       63.198       41.809     6558.856     3994.024     1748.005        3.442        0.615      237.662       45.338        0.036      349.846       30.571      861.648
07/15/2014  19:56:00     -171.729     -152.062      -11.697       71.828       52.789       37.180     5159.282     2786.626     1382.336        3.104        0.466      229.377       22.148        0.009      349.847       30.570      861.650
07/15/2014  19:57:00      -94.382     -182.400        5.572       88.934      113.375       37.012     7909.261    12853.969     1369.919        3.217        1.107      205.372       44.930        0.048      349.804       30.499      861.659
07/15/2014  19:58:00     -188.748     -202.316       -7.066       94.892      121.934       44.254     9004.524    14867.821     1958.449        5.121        1.292      276.690       44.197        0.026      349.845       30.568      861.651
07/15/2014  19:59:00      -96.439     -173.798       23.928       91.321       98.303       48.668     8339.434     9663.475     2368.576        3.022        1.019      198.761       45.674        0.053      349.813       30.513      861.667
07/15/2014  20:00:00      -98.489     -167.138       23.125       87.893      113.155       56.004     7725.181    12804.095     3136.398        3.091        1.183      193.998       48.284        0.062      349.817       30.521      861.679
07/15/2014  20:01:00     -152.467     -201.529       -1.142       75.302       95.594       43.748     5670.426     9138.186     1913.902        4.029        0.836      252.706       35.255        0.019      349.911       30.685      861.702
07/15/2014  20:02:00      -95.493     -125.390        8.810       63.538       60.796       41.020     4037.028     3696.150     1682.625        1.717        0.471      157.613       37.716        0.057      349.917       30.695      861.713
07/15/2014  20:03:00      -72.118     -107.596       10.120       68.086       75.755       42.264     4635.670     5738.797     1786.221        1.452        0.608      129.529       36.714        0.080      349.910       30.683      861.730
07/15/2014  20:04:00      -68.161     -168.861       -8.817       51.187       67.127       31.286     2620.157     4505.976      978.797        2.067        0.405      182.099       28.242        0.024      349.894       30.657      861.748
07/15/2014  20:05:00      -98.542      -80.079       -1.594      117.367       53.639       46.993    13774.908     2877.191     2208.321        1.749        0.943      126.977       42.156        0.110      349.796       30.485      861.755
07/15/2014  20:06:00     -161.094     -101.801       -0.120       85.810      101.733       56.757     7363.302    10349.700     3221.414        2.862        1.047      190.564       56.014        0.086      349.750       30.404      861.790
07/15/2014  20:07:00     -191.476     -126.624        2.676      106.403       75.679       40.939    11321.660     5727.295     1676.012        3.571        0.936      229.558       46.518        0.041      349.741       30.388      861.798
07/15/2014  20:08:00     -226.634     -128.039        0.012      105.353       94.161       49.720    11099.168     8866.273     2472.091        4.509        1.122      260.302       50.748        0.038      349.699       30.312      861.824
07/15/2014  20:09:00     -167.870     -145.561        4.274      105.907       69.431       42.223    11216.353     4820.646     1782.821        3.360        0.891      222.189       46.752        0.044      349.698       30.313      861.846
07/15/2014  20:10:00     -163.676     -199.760      -11.467       96.500      110.692       47.714     9312.340    12252.624     2276.621        4.533        1.192      258.252       47.841        0.034      349.716       30.343      861.849
07/15/2014  20:11:00     -159.353     -168.854       14.031      131.222      115.095       57.035    17219.202    13246.800     3252.962        4.390        1.686      232.174       55.861        0.058      349.667       30.259      861.842
07/15/2014  20:12:00     -220.789     -198.546        0.241      123.219      123.509       65.154    15182.822    15254.512     4245.074        6.142        1.734      296.932       64.586        0.047      349.636       30.207      861.843
07/15/2014  20:13:00     -220.942     -160.813       -2.591      111.438       83.512       48.282    12418.478     6974.189     2331.129        4.820        1.086      273.270       41.708        0.023      349.625       30.187      861.850
07/15/2014  20:14:00     -159.831      -84.313       10.447       92.760       70.916       50.433     8604.413     5029.073     2543.469        2.447        0.809      180.706       48.425        0.072      349.589       30.126      861.846
07/15/2014  20:15:00     -171.403      -81.767       -5.665       70.548       58.582       34.817     4977.069     3431.898     1212.252        2.286        0.481      189.908       30.896        0.026      349.583       30.117      861.842
07/15/2014  20:16:00     -103.429     -112.369        8.092       69.038       77.249       33.859     4766.298     5967.348     1146.413        1.763        0.594      152.724       34.382        0.051      349.565       30.085      861.836
07/15/2014  20:17:00     -145.760     -131.465      -11.412       91.319       68.351       32.562     8339.133     4671.847     1060.280        2.636        0.704      196.288       27.136        0.019      349.559       30.074      861.844
07/15/2014  20:18:00     -219.572     -134.243      -10.909      105.487      107.455       45.248    11127.489    11546.539     2047.415        4.553        1.236      257.358       47.663        0.034      349.564       30.083      861.820
07/15/2014  20:19:00     -127.240      -92.637       11.892      106.464       70.078       42.414    11334.546     4910.916     1798.917        2.148        0.902      157.390       36.828        0.055      349.514       29.995      861.800
07/15/2014  20:20:00     -121.848     -109.725       -1.974       98.765       74.559       47.135     9754.441     5559.089     2221.751        2.221        0.877      163.971       42.664        0.068      349.572       30.097      861.817
07/15/2014  20:21:00     -135.262      -98.645        1.973      132.037       90.360       47.807    17433.678     8164.871     2285.510        2.795        1.394      167.412       54.267        0.105      349.568       30.090      861.812
07/15/2014  20:22:00     -151.822     -174.261      -11.657       80.202       89.226       45.484     6432.381     7961.297     2068.769        3.500        0.823      231.121       35.068        0.023      349.559       30.071      861.816
07/15/2014  20:23:00     -247.431      -84.392      -10.020      117.086       86.371       54.493    13709.214     7459.958     2969.523        4.629        1.207      261.428       58.916        0.051      349.508       29.983      861.835
07/15/2014  20:24:00     -182.510     -101.593       -8.741       92.803       60.797       45.473     8612.393     3696.261     2067.802        2.904        0.719      208.880       45.732        0.048      349.498       29.966      861.846
07/15/2014  20:25:00     -167.554      -95.467        4.113       86.870       84.140       45.310     7546.475     7079.562     2053.035        2.694        0.834      192.842       48.628        0.064      349.477       29.931      861.841
07/15/2014  20:26:00     -158.354     -124.255        5.586      143.724      101.741       69.664    20656.486    10351.151     4853.009        3.820        1.793      201.284       78.724        0.153      349.497       29.965      861.830
07/15/2014  20:27:00     -243.809      -81.318       -9.581      129.320       89.327       68.296    16723.711     7979.318     4664.303        4.775        1.468      257.012       66.945        0.068      349.482       29.940      861.837
07/15/2014  20:28:00     -124.622      -96.918        6.170      124.819      101.920       69.643    15579.792    10387.660     4850.104        2.788        1.541      157.873       77.079        0.238      349.451       29.888      861.841
07/15/2014  20:29:00     -207.385      -67.245       -2.860      102.149       99.727       50.708    10434.499     9945.472     2571.293        3.524        1.148      218.015       46.289        0.045      349.472       29.921      861.823
07/15/2014  20:30:00     -203.713      -69.002       -2.974      138.079      120.776       60.882    19065.809    14586.877     3706.567        4.181        1.868      215.082       72.244        0.113      349.453       29.890      861.818
07/15/2014  20:31:00     -207.265      -57.726      -12.351      149.151      132.955       73.658    22245.885    17676.980     5425.548        4.589        2.267      215.153       76.118        0.125      349.461       29.903      861.806
07/15/2014  20:32:00     -296.874        1.970      -10.748      135.744      132.341       67.783    18426.351    17514.040     4594.564        6.439        2.027      296.881       58.677        0.039      349.435       29.857      861.793
07/15/2014  20:33:00     -232.007      -92.210       -8.161      141.497       84.289       50.767    20021.327     7104.715     2577.240        4.604        1.485      249.660       52.191        0.044      349.428       29.845      861.792
07/15/2014  20:34:00     -213.539       -3.677        2.779      173.421      119.141       60.514    30074.806    14194.518     3661.992        4.677        2.397      213.571       70.442        0.109      349.356       29.721      861.780
07/15/2014  20:35:00     -306.332      -30.175      -10.945      147.090      119.943       74.222    21635.379    14386.364     5508.834        6.819        2.077      307.814       80.887        0.069      349.402       29.800      861.787
07/15/2014  20:36:00     -300.007      -71.554        7.613      195.195      113.254       76.688    38100.984    12826.452     5881.126        7.598        2.840      308.422       89.519        0.084      349.394       29.786      861.789
07/15/2014  20:37:00     -315.297      -44.002        1.587      213.403      143.627       77.523    45540.899    20628.579     6009.874        8.675        3.609      318.353      100.010        0.099      349.385       29.771      861.792
07/15/2014  20:38:00     -213.393      -77.929       10.807      196.883      129.292       76.857    38762.847    16716.465     5906.951        5.654        3.069      227.177      100.337        0.195      349.367       29.739      861.779
07/15/2014  20:39:00     -459.749      -78.174      -25.394      184.729      133.957       61.763    34124.791    17944.425     3814.693       13.699        2.794      466.348       69.090        0.022      349.412       29.816      861.770
07/15/2014  20:40:00     -477.431       -5.102      -24.190      144.666      146.331       66.508    20928.381    21412.844     4423.279       13.765        2.338      477.459       67.041        0.020      349.397       29.789      861.787
07/15/2014  20:41:00     -380.863      -18.856      -24.192      125.093      118.438       73.445    15648.338    14027.636     5394.145        9.053        1.754      381.329       72.192        0.036      349.392       29.781      861.808
07/15/2014  20:42:00     -329.941      -68.177      -19.553      128.063      110.944       62.650    16400.071    12308.597     3925.082        7.326        1.632      336.911       62.830        0.035      349.368       29.741      861.833
07/15/2014  20:43:00     -345.264      -77.053       -8.487      138.397      120.436       72.654    19153.867    14504.749     5278.648        8.207        1.947      353.757       81.164        0.053      349.363       29.732      861.844
07/15/2014  20:44:00     -309.960      -47.901      -15.617      152.147      104.819       64.299    23148.842    10986.941     4134.407        6.843        1.914      313.640       70.205        0.050      349.343       29.697      861.830
07/15/2014  20:45:00     -390.788      -99.260      -15.203      157.227      162.605       82.953    24720.456    26440.376     6881.128       11.041        2.902      403.197       68.599        0.029      349.322       29.662      861.819
07/15/2014  20:46:00     -313.481      -67.900       -5.886      152.764      100.256       71.703    23336.840    10051.299     5141.273        7.071        1.926      320.750       76.881        0.057      349.305       29.632      861.849
07/15/2014  20:47:00     -425.102      -56.289      -27.531      208.274      114.780       80.395    43378.262    13174.412     6463.348       12.381        3.151      428.813       98.190        0.052      349.321       29.659      861.879
07/15/2014  20:48:00     -292.381     -100.694      -19.568      111.544       89.155       52.431    12442.066     7948.645     2749.025        5.957        1.157      309.234       50.596        0.027      349.319       29.658      861.893
07/15/2014  20:49:00     -407.251     -110.221      -15.560      154.557      139.079       66.167    23887.756    19342.845     4378.043       11.292        2.380      421.903       68.747        0.027      349.316       29.652      861.905
07/15/2014  20:50:00     -369.998      -73.250      -16.220      105.899      118.727       63.233    11214.619    14096.075     3998.418        8.591        1.465      377.179       58.673        0.024      349.295       29.615      861.926
07/15/2014  20:51:00     -338.780      -11.468       -5.096      144.905      126.071       66.745    20997.424    15893.972     4454.852        7.813        2.067      338.974       68.012        0.040      349.297       29.618      861.944
07/15/2014  20:52:00     -312.526      -74.024      -21.786      132.524      119.345       63.796    17562.658    14243.294     4069.977        6.974        1.794      321.173       63.880        0.040      349.276       29.583      861.958
07/15/2014  20:53:00     -424.489      -64.813      -22.408      149.761       90.140       64.697    22428.296     8125.195     4185.722       10.981        1.737      429.409       70.801        0.027      349.291       29.609      861.982
07/15/2014  20:54:00     -373.038      -23.020      -16.377      159.087      127.218       65.278    25308.698    16184.529     4261.201        9.285        2.288      373.748       72.065        0.037      349.250       29.540      862.007
07/15/2014  20:55:00     -387.081      -39.533      -12.355      111.681      119.222       71.463    12472.715    14213.831     5106.919        9.166        1.590      389.095       58.892        0.023      349.262       29.558      862.011
07/15/2014  20:56:00     -288.233      -43.780      -18.435       98.393       77.940       54.451     9681.122     6074.659     2964.886        5.202        0.936      291.538       54.711        0.035      349.248       29.533      862.032
07/15/2014  20:57:00     -410.313      -43.585      -32.407      132.524       67.669       59.015    17562.694     4579.102     3482.810        9.846        1.281      412.621       63.384        0.024      349.218       29.482      862.027
07/15/2014  20:58:00     -347.486      -11.286      -29.021      107.264       99.611       53.262    11505.514     9922.346     2836.836        7.299        1.213      347.670       50.222        0.021      349.214       29.475      862.043
07/15/2014  20:59:00     -276.168      -44.442       -2.394      127.591       97.863       61.787    16279.493     9577.137     3817.629        5.396        1.484      279.721       65.775        0.055      349.186       29.426      862.059
07/15/2014  21:00:00     -503.488      -61.865      -38.925      164.597      132.022       81.270    27092.175    17429.919     6604.784       15.497        2.556      507.275       95.310        0.035      349.260       29.555      862.060
07/15/2014  21:01:00     -465.978       -4.756      -32.613      156.116      161.850       63.972    24372.354    26195.510     4092.424       13.643        2.733      466.002       59.751        0.016      349.243       29.525      862.064
07/15/2014  21:02:00     -369.432      -93.108        2.211      173.829      120.921       82.254    30216.689    14621.855     6765.712        9.837        2.580      380.984       87.740        0.053      349.207       29.462      862.087
07/15/2014  21:03:00     -447.900      -68.695      -16.115      163.412      140.438       76.241    26703.413    19722.811     5812.755       12.891        2.612      453.137       72.906        0.026      349.234       29.509      862.114
07/15/2014  21:04:00     -482.879      -87.807      -28.072      201.507      127.047       85.925    40605.234    16140.872     7383.136       15.289        3.206      490.797      104.892        0.046      349.231       29.505      862.144
07/15/2014  21:05:00     -301.148      -14.915      -31.523      123.857      127.206       63.322    15340.440    16181.475     4009.696        6.371        1.777      301.517       49.920        0.027      349.195       29.441      862.167
07/15/2014  21:06:00     -186.347       78.808       -9.707       94.552       86.792       51.298     8940.134     7532.922     2631.523        3.006        0.955      202.326       47.107        0.054      349.141       29.348      862.153
07/15/2014  21:07:00     -198.448      -30.585       -8.431      127.244      103.778       53.708    16190.926    10769.912     2884.520        3.511        1.492      200.791       59.590        0.088      349.115       29.302      862.130
07/15/2014  21:08:00     -355.132       28.909      -32.507      143.357       69.464       56.953    20551.323     4825.273     3243.592        7.831        1.431      356.307       71.128        0.040      349.108       29.290      862.136
07/15/2014  21:09:00     -350.156     -148.183       -5.481      154.009      113.744       66.680    23718.653    12937.772     4446.284        9.284        2.055      380.220       77.395        0.041      349.101       29.277      862.144
07/15/2014  21:10:00     -275.580      -70.202       -3.494      136.291      112.132       62.509    18575.205    12573.535     3907.339        5.796        1.753      284.381       50.502        0.032      349.083       29.246      862.140
07/15/2014  21:11:00     -326.527     -103.577       -4.182      166.839      125.873       65.939    27835.230    15844.129     4347.912        8.269        2.401      342.561       71.253        0.043      349.069       29.223      862.164
07/15/2014  21:12:00     -376.387      -19.650        0.492      177.467      121.388       73.233    31494.430    14735.094     5363.135        9.681        2.580      376.900       80.857        0.046      349.067       29.220      862.213
07/15/2014  21:13:00     -240.950      -56.621       -7.124      129.823      113.770       53.523    16854.105    12943.516     2864.744        4.698        1.633      247.513       53.613        0.047      349.068       29.219      862.251
07/15/2014  21:14:00     -408.603      -74.228      -31.408      168.426      126.689       69.242    28367.390    16050.025     4794.407       11.132        2.461      415.291       72.321        0.030      349.090       29.257      862.232
07/15/2014  21:15:00     -328.426      -87.610       -8.103      165.997      133.331       72.369    27554.982    17777.159     5237.241        8.308        2.528      339.911       78.599        0.053      349.067       29.218      862.256
07/15/2014  21:16:00     -395.873      -94.921      -19.249      140.582      111.602       68.129    19763.301    12454.982     4641.495       10.147        1.843      407.094       66.133        0.026      349.064       29.214      862.263
07/15/2014  21:17:00     -484.792      -56.838      -34.713      139.754       81.256       64.590    19531.163     6602.467     4171.906       13.488        1.515      488.113       61.723        0.016      349.056       29.198      862.272
07/15/2014  21:18:00     -355.331      -30.938      -18.664      104.676       92.035       52.190    10956.974     8470.530     2723.823        7.485        1.108      356.676       49.094        0.019      349.033       29.158      862.303
07/15/2014  21:19:00     -429.322     -129.159      -16.839      137.834      146.602       69.096    18998.209    21492.046     4774.323       12.326        2.263      448.330       64.662        0.021      349.019       29.137      862.301
07/15/2014  21:20:00     -325.638       41.395      -12.875      133.237      135.896       58.183    17752.027    18467.741     3385.246        7.375        1.980      328.258       56.403        0.030      349.010       29.120      862.303
07/15/2014  21:21:00     -469.212      -70.811      -26.323      137.819      134.990       62.158    18994.214    18222.356     3863.566       13.347        2.054      474.525       61.351        0.017      348.983       29.077      862.293
07/15/2014  21:22:00     -572.438        4.236      -56.019      151.364      135.896       68.753    22910.934    18467.784     4727.009       18.846        2.305      572.454       69.319        0.015      348.974       29.058      862.319
07/15/2014  21:23:00     -455.840     -118.664      -17.670      173.341      172.435       84.573    30047.182    29733.878     7152.523       14.455        3.347      471.033       84.408        0.032      348.956       29.028      862.334
07/15/2014  21:24:00     -427.201     -122.433      -16.527      162.442      126.466       73.033    26387.454    15993.713     5333.785       12.273        2.386      444.399       71.236        0.026      348.960       29.034      862.364
07/15/2014  21:25:00     -385.890      -85.237      -33.283      138.268      105.127       57.663    19117.960    11051.594     3325.003        9.538        1.675      395.192       60.519        0.023      348.964       29.042      862.359
07/15/2014  21:26:00     -353.700      -59.246      -26.922      156.112      115.449       59.362    24371.052    13328.402     3523.840        8.527        2.061      358.628       58.025        0.026      348.945       29.007      862.377
07/15/2014  21:27:00     -475.640     -174.841      -15.473      185.698      127.985       80.792    34483.622    16380.241     6527.298       15.721        2.870      506.757       91.775        0.033      348.941       29.002      862.357
07/15/2014  21:28:00     -471.822      -58.232      -26.643      139.650      134.403       64.140    19502.118    18064.269     4113.930       13.419        2.084      475.402       56.862        0.014      348.945       29.007      862.373
07/15/2014  21:29:00     -302.884      -17.671       -7.985      133.844      129.899       56.535    17914.217    16873.672     3196.194        6.504        1.899      303.399       66.482        0.048      348.934       28.989      862.361
07/15/2014  21:30:00     -319.024      -49.535      -11.137      146.530       95.077       68.796    21470.956     9039.697     4732.943        6.979        1.762      322.847       73.084        0.051      348.906       28.940      862.347
07/15/2014  21:31:00     -256.189      -96.022        0.723      145.206      127.699       72.049    21084.712    16306.979     5191.124        5.871        2.129      273.593       75.552        0.076      348.908       28.946      862.344
07/15/2014  21:32:00     -205.775      -63.319        9.014      113.191      109.275       56.705    12812.114    11941.005     3215.488        3.720        1.398      215.297       54.229        0.063      348.885       28.904      862.348
07/15/2014  21:33:00     -372.697     -142.152      -11.510      141.041      133.679       65.825    19892.612    17870.180     4332.874       10.066        2.105      398.886       65.023        0.027      348.904       28.938      862.346
07/15/2014  21:34:00     -392.725      -98.685      -14.528      219.264      157.657       85.419    48076.901    24855.751     7296.400       12.219        4.011      404.934       89.882        0.049      348.929       28.980      862.365
07/15/2014  21:35:00     -242.851      -49.735       11.888      168.466      143.534       76.477    28380.737    20602.048     5848.656        5.820        2.742      247.892       86.008        0.120      348.920       28.965      862.373
07/15/2014  21:36:00     -149.755      -62.343       31.990      190.546      124.363       87.342    36307.848    15466.127     7628.637        4.336        2.970      162.213      108.886        0.451      348.933       28.988      862.372
07/15/2014  21:37:00     -270.177      -63.732      -13.787      108.664       95.361       56.844    11807.829     9093.772     3231.226        5.069        1.207      277.593       52.588        0.036      348.941       29.001      862.387
07/15/2014  21:38:00     -371.918     -147.460      -15.356      210.675      119.582       73.727    44383.790    14299.783     5435.713       11.220        3.206      400.084       90.441        0.051      348.940       29.002      862.374
07/15/2014  21:39:00     -287.104      -36.663       -2.577      208.872      134.535       57.857    43627.719    18099.573     3347.405        7.441        3.254      289.435       68.994        0.057      348.937       28.997      862.376
07/15/2014  21:40:00     -311.100      -39.535      -21.767      108.280      109.929       61.222    11724.548    12084.424     3748.099        6.318        1.378      313.602       60.083        0.037      348.943       29.006      862.376
07/15/2014  21:41:00     -240.119     -114.435       -2.782      125.256      104.808       50.131    15689.047    10984.627     2513.109        4.997        1.459      265.993       45.657        0.029      348.928       28.980      862.382
07/15/2014  21:42:00     -198.042     -124.634       -4.884      150.697      130.481       78.451    22709.597    17025.396     6154.493        5.032        2.294      233.996       67.677        0.084      348.918       28.962      862.381
07/15/2014  21:43:00     -382.450     -176.001      -19.616      194.569      175.056       75.585    37857.181    30644.570     5713.145       12.591        3.711      421.004       70.419        0.028      348.946       29.011      862.376
07/15/2014  21:44:00     -149.455      -77.491      -13.323      125.305      110.529       58.765    15701.244    12216.572     3453.343        2.994        1.569      168.350       51.202        0.093      348.921       28.969      862.399
07/15/2014  21:45:00     -109.658       -0.462       21.814      113.894      100.669       57.740    12971.731    10134.289     3333.879        1.947        1.322      109.659       43.496        0.157      348.895       28.924      862.397
07/15/2014  21:46:00     -298.663     -175.644        6.373      186.523      144.841       86.545    34790.982    20979.027     7490.024        9.166        3.163      346.483       97.010        0.078      348.922       28.968      862.385
07/15/2014  21:47:00     -393.868     -150.534      -49.387      183.812      161.214       87.232    33786.672    25989.925     7609.472       12.380        3.369      421.654       96.880        0.053      348.931       28.984      862.417
07/15/2014  21:48:00     -199.950      -40.397      -11.273      101.385       84.618       51.212    10278.890     7160.146     2622.637        3.090        1.003      203.990       45.235        0.049      348.916       28.959      862.428
07/15/2014  21:49:00     -308.176      -73.257       -8.166      100.947      129.908       62.086    10190.280    16876.055     3854.622        6.566        1.546      316.763       61.901        0.038      348.898       28.928      862.430
07/15/2014  21:50:00     -223.577     -106.450       -8.238      115.310      102.160       61.309    13296.370    10436.660     3758.767        4.443        1.375      247.625       64.563        0.068      348.889       28.912      862.438
07/15/2014  21:51:00     -165.446      -56.593        3.074      116.166       97.360       57.792    13494.581     9479.011     3339.940        2.844        1.316      174.857       72.134        0.170      348.853       28.849      862.439
07/15/2014  21:52:00     -197.554      -93.515       -1.463      129.431      124.908       71.963    16752.285    15601.983     5178.723        4.265        1.877      218.570       68.728        0.099      348.874       28.886      862.459
07/15/2014  21:53:00     -353.547     -113.973      -14.737      182.103      138.217       67.659    33161.659    19103.938     4577.762        9.751        2.842      371.463       71.041        0.037      348.894       28.919      862.503
07/15/2014  21:54:00     -312.224     -131.702      -20.971      116.064      105.472       64.955    13470.820    11124.257     4219.217        7.204        1.441      338.864       57.873        0.029      348.922       28.968      862.540
07/15/2014  21:55:00     -337.333     -117.323      -12.333      122.306      165.157       67.665    14958.759    27276.743     4578.526        8.725        2.341      357.153       61.892        0.030      348.936       28.993      862.520
07/15/2014  21:56:00     -177.621      -47.743       -4.112      102.569       63.084       49.963    10520.498     3979.543     2496.275        2.542        0.850      183.926       55.497        0.091      348.889       28.911      862.524
07/15/2014  21:57:00     -138.315      -31.819        0.867       68.184       49.422       32.226     4649.046     2442.565     1038.493        1.414        0.407      141.928       31.714        0.050      348.883       28.905      862.543
07/15/2014  21:58:00     -128.746      -42.616       -8.242       99.591       60.899       42.655     9918.373     3708.693     1819.475        1.695        0.772      135.616       49.944        0.136      348.868       28.874      862.571
07/15/2014  21:59:00     -166.148      -66.774      -12.130      116.177       75.245       37.969    13496.998     5661.738     1441.663        2.640        1.030      179.064       52.003        0.084      348.885       28.906      862.556
07/15/2014  22:00:00     -131.137      -84.732       11.697       95.022       94.700       56.278     9029.238     8968.169     3167.221        2.283        1.058      156.130       47.192        0.091      348.870       28.879      862.565
07/15/2014  22:01:00     -280.464      -55.222      -14.861       80.374       64.367       46.456     6460.025     4143.048     2158.189        4.734        0.638      285.848       44.882        0.025      348.827       28.801      862.582
07/15/2014  22:02:00     -257.939      -33.727       -7.902      104.713       94.603       52.897    10964.857     8949.638     2798.085        4.522        1.136      260.135       47.758        0.034      348.804       28.763      862.581
07/15/2014  22:03:00     -115.162      -43.944       -4.744       70.267       50.671       36.684     4937.521     2567.584     1345.680        1.203        0.443      123.261       41.438        0.113      348.812       28.781      862.575
07/15/2014  22:04:00     -130.238       -9.787        7.959      118.213       93.617       49.766    13974.302     8764.221     2476.638        2.116        1.261      130.605       59.460        0.207      348.790       28.742      862.573
07/15/2014  22:05:00     -282.780      -47.548       -3.878      124.795      114.782       66.916    15573.865    13174.921     4477.705        5.773        1.661      286.749       51.155        0.032      348.820       28.791      862.568
07/15/2014  22:06:00     -331.844     -149.819       -3.370      153.923      111.807       69.692    23692.261    12500.888     4857.033        8.681        2.053      364.097       65.177        0.032      348.829       28.806      862.597
07/15/2014  22:07:00     -244.024      -25.249       -9.136      122.612      118.973       62.338    15033.692    14154.547     3886.070        4.666        1.654      245.327       55.175        0.051      348.832       28.812      862.630
07/15/2014  22:08:00     -169.231       24.151      -13.808       58.718       52.632       39.985     3447.804     2770.111     1598.821        1.861        0.391      170.946       30.701        0.032      348.850       28.847      862.631
07/15/2014  22:09:00      -53.466       -1.617       17.341       62.056       44.193       34.767     3850.993     1953.043     1208.773        0.509        0.351       53.490       35.743        0.447      348.773       28.713      862.638
07/15/2014  22:10:00     -186.924      -52.582      -12.890       62.778       40.091       27.890     3941.027     1607.320      777.832        2.210        0.316      194.179       31.825        0.027      348.807       28.772      862.660
07/15/2014  22:11:00     -215.863      -55.128      -16.947       96.516       81.795       48.378     9315.314     6690.476     2340.397        3.413        0.917      222.791       50.286        0.051      348.797       28.750      862.655
07/15/2014  22:12:00     -356.169     -156.314       -7.985      112.438      110.260       65.350    12642.415    12157.240     4270.669        9.021        1.454      388.961       62.864        0.026      348.815       28.783      862.642
07/15/2014  22:13:00     -154.085      -81.055       24.113      173.835       91.581       66.314    30218.593     8387.027     4397.496        3.694        2.150      174.103       83.838        0.232      348.801       28.762      862.652
07/15/2014  22:14:00     -262.937      -11.928      -23.738      103.285       89.793       50.420    10667.797     8062.755     2542.175        4.555        1.064      263.207       49.915        0.036      348.840       28.825      862.648
07/15/2014  22:15:00     -200.095        2.709       -8.387       87.579       90.030       45.798     7669.997     8105.342     2097.451        2.899        0.894      200.114       36.001        0.032      348.800       28.755      862.646
07/15/2014  22:16:00     -199.867      -27.963       -3.110      127.998       75.741       44.482    16383.494     5736.761     1978.649        3.241        1.205      201.814       52.421        0.067      348.803       28.762      862.651
07/15/2014  22:17:00     -171.368     -129.430        3.992      100.440       86.784       53.129    10088.198     7531.490     2822.667        3.328        1.022      214.754       59.685        0.077      348.823       28.796      862.670
07/15/2014  22:18:00     -294.340     -125.975      -10.950      121.123       93.100       57.081    14670.862     8667.678     3258.209        6.461        1.330      320.165       56.037        0.031      348.808       28.770      862.684
07/15/2014  22:19:00     -135.744      -69.597       24.841      165.077      109.936       73.873    27250.395    12085.959     5457.226        3.433        2.240      152.546       80.129        0.276      348.767       28.700      862.708
07/15/2014  22:20:00      -85.067      -35.907       12.710      141.619      111.666       60.025    20055.937    12469.264     3603.017        2.240        1.806       92.334       71.873        0.606      348.769       28.704      862.723
07/15/2014  22:21:00       -7.742      -22.018       14.193       55.901       48.493       36.674     3124.919     2351.531     1344.947        0.378        0.341       23.340       28.270        1.467      348.749       28.672      862.763
07/15/2014  22:22:00      -96.039      -29.774        8.860       59.669       58.329       37.979     3560.408     3402.218     1442.407        0.930        0.420      100.548       34.470        0.118      348.725       28.630      862.777
07/15/2014  22:23:00      -68.074      -11.353       10.992       42.790       45.150       27.127     1830.968     2038.491      735.851        0.474        0.230       69.014       22.612        0.107      348.720       28.621      862.791
07/15/2014  22:24:00     -103.596      -56.618        3.519       57.230       55.626       31.154     3275.274     3094.273      970.599        1.064        0.367      118.058       23.014        0.038      348.768       28.703      862.819
07/15/2014  22:25:00      -58.197       -4.919        0.672       26.597       35.474       21.738      707.421     1258.410      472.520        0.292        0.122       58.405       13.269        0.052      348.727       28.635      862.818
07/15/2014  22:26:00      -77.493       -1.853        5.768       76.891       75.189       37.395     5912.182     5653.339     1398.374        0.950        0.648       77.516       40.106        0.268      348.728       28.635      862.845
07/15/2014  22:27:00      -43.017      -30.004       22.841       70.360       50.511       32.882     4950.513     2551.384     1081.219        0.593        0.429       52.447       37.574        0.513      348.657       28.513      862.862
07/15/2014  22:28:00     -257.107     -153.317      -15.168      109.638       99.426       54.680    12020.426     9885.437     2989.908        5.736        1.245      299.350       54.752        0.033      348.785       28.730      862.888
07/15/2014  22:29:00     -230.747     -129.629      -12.198       84.514       75.884       40.017     7142.693     5758.321     1601.368        4.235        0.725      264.666       28.397        0.012      348.776       28.715      862.889
07/15/2014  22:30:00      -96.104      -39.752       -4.416       83.873       58.683       27.970     7034.637     3443.658      782.336        1.105        0.563      104.000       29.661        0.081      348.697       28.580      862.902
07/15/2014  22:31:00     -194.285      -32.114       -9.296       69.396       51.827       39.705     4815.757     2686.029     1576.513        2.397        0.454      196.921       42.762        0.047      348.755       28.680      862.921
07/15/2014  22:32:00     -127.214      -22.074        0.140       73.397       71.680       32.506     5387.185     5138.059     1056.669        1.412        0.579      129.115       28.205        0.048      348.693       28.573      862.949
07/15/2014  22:33:00      -50.920      -30.998        1.199       55.297       60.508       30.538     3057.724     3661.207      932.576        0.560        0.383       59.613       23.275        0.152      348.683       28.559      862.970
07/15/2014  22:34:00      -57.610      -50.532       12.635       86.677       51.940       50.231     7512.911     2697.715     2523.164        0.938        0.637       76.631       42.686        0.310      348.679       28.550      862.980
07/15/2014  22:35:00      -53.904      -12.439       -5.009       44.423       35.815       21.278     1973.382     1282.707      452.743        0.340        0.185       55.321       12.136        0.048      348.643       28.490      862.997
07/15/2014  22:36:00      -46.636        1.073        4.611       32.415       32.145       19.849     1050.717     1033.305      393.997        0.234        0.124       46.648       18.355        0.155      348.601       28.417      863.001
07/15/2014  22:37:00     -135.111      -28.777      -10.440       52.341       40.202       22.201     2739.600     1616.198      492.884        1.202        0.242      138.142       17.738        0.016      348.649       28.498      863.001
07/15/2014  22:38:00     -185.497      -36.947      -13.708       41.598       37.490       26.962     1730.355     1405.497      726.923        1.991        0.193      189.141       21.475        0.013      348.719       28.617      863.005
07/15/2014  22:39:00     -198.392      -61.041      -24.476       84.512       54.896       42.660     7142.347     3013.558     1819.868        2.783        0.599      207.570       46.059        0.049      348.712       28.607      862.976
07/15/2014  22:40:00     -223.004      -37.085       -8.282      111.715       82.206       50.805    12480.194     6757.795     2581.128        3.649        1.091      226.067       53.529        0.056      348.666       28.526      862.971
07/15/2014  22:41:00     -215.221      -46.645       -5.168      111.957       85.467       48.219    12534.422     7304.613     2325.099        3.534        1.108      220.218       50.074        0.052      348.681       28.551      862.955
07/15/2014  22:42:00     -318.187      -82.928        1.771      148.938       94.303       60.874    22182.414     8893.044     3705.679        7.145        1.739      328.816       71.307        0.047      348.685       28.558      862.947
07/15/2014  22:43:00     -276.186      -24.088      -15.687      106.368       86.381       51.190    11314.214     7461.703     2620.369        4.925        1.070      277.234       53.887        0.038      348.713       28.609      862.945
07/15/2014  22:44:00     -281.569      -92.169       -3.033      110.864       78.502       45.857    12290.776     6162.598     2102.826        5.417        1.028      296.270       45.108        0.023      348.682       28.554      862.948
07/15/2014  22:45:00     -295.989      -74.378      -23.366      100.228      117.165       58.596    10045.590    13727.650     3433.453        6.044        1.360      305.191       58.975        0.037      348.723       28.624      862.950
07/15/2014  22:46:00     -174.961      -30.029        9.086       87.226       91.761       54.299     7608.418     8420.009     2948.348        2.528        0.949      177.519       56.350        0.101      348.687       28.561      862.950
07/15/2014  22:47:00     -124.794      -60.326       18.150      129.864       58.479       53.672    16864.695     3419.763     2880.664        2.135        1.158      138.611       63.007        0.207      348.660       28.516      862.941
07/15/2014  22:48:00     -148.474       65.988       -7.888       89.807       81.798       38.685     8065.246     6690.918     1496.510        2.135        0.813      162.477       34.131        0.044      348.633       28.470      862.924
07/15/2014  22:49:00     -280.015      -12.858      -30.535      120.898       83.165       49.965    14616.389     6916.494     2496.515        5.176        1.201      280.310       58.303        0.043      348.649       28.495      862.916
07/15/2014  22:50:00     -205.810      -33.367      -14.807       90.450       59.579       43.044     8181.163     3549.639     1852.764        2.863        0.679      208.497       39.399        0.036      348.638       28.479      862.903
07/15/2014  22:51:00     -171.367        2.486      -19.006      102.295       77.880       41.702    10464.293     6065.284     1739.094        2.400        0.913      171.385       35.300        0.042      348.622       28.450      862.905
07/15/2014  22:52:00     -285.969      -30.879      -18.048      125.604       85.601       55.822    15776.269     7327.580     3116.107        5.463        1.311      287.632       60.933        0.045      348.590       28.392      862.901
07/15/2014  22:53:00     -402.296      -44.268      -21.717       94.120       99.168       60.251     8858.548     9834.362     3630.167        9.329        1.116      404.725       38.703        0.009      348.627       28.457      862.882
07/15/2014  22:54:00     -281.674     -109.136        0.026       96.364       81.468       47.924     9286.025     6636.997     2296.694        5.473        0.911      302.077       49.180        0.027      348.633       28.468      862.858
07/15/2014  22:55:00     -323.517      -85.072      -19.943      137.103       86.006       62.158    18797.133     7397.094     3863.671        7.117        1.503      334.516       59.221        0.031      348.643       28.484      862.847
07/15/2014  22:56:00     -153.578      -49.044        3.126       98.862       78.570       52.452     9773.762     6173.286     2751.247        2.235        0.935      161.219       50.156        0.097      348.569       28.357      862.839
07/15/2014  22:57:00     -272.138       19.500      -15.376       99.862      122.148       52.493     9972.325    14920.171     2755.496        5.116        1.382      272.836       51.358        0.035      348.614       28.436      862.830
07/15/2014  22:58:00     -229.292      -40.286      -10.914       77.142       68.635       44.838     5950.818     4710.773     2010.475        3.349        0.634      232.805       43.938        0.036      348.604       28.418      862.831
07/15/2014  22:59:00     -245.747      -50.376       -7.973       93.674       85.898       45.286     8774.857     7378.436     2050.864        4.059        0.910      250.857       43.411        0.030      348.584       28.381      862.834
07/15/2014  23:00:00     -311.525       -8.825      -28.054       93.552       80.759       53.041     8751.983     6521.942     2813.336        5.800        0.904      311.649       47.567        0.023      348.609       28.425      862.830
07/15/2014  23:01:00     -223.354      -69.325      -14.740      110.161       82.556       49.613    12135.504     6815.470     2461.447        3.816        1.071      233.865       53.692        0.053      348.578       28.371      862.831
07/15/2014  23:02:00     -368.922      -24.575      -18.085      116.670      134.061       53.597    13611.858    17972.268     2872.690        8.574        1.723      369.740       56.917        0.024      348.586       28.385      862.828
07/15/2014  23:03:00     -221.214      -38.348       -7.758       90.285       72.936       47.082     8151.464     5319.690     2216.749        3.307        0.784      224.513       47.109        0.044      348.538       28.303      862.828
07/15/2014  23:04:00     -244.577      -28.347      -15.389       70.795       74.409       40.722     5011.974     5536.736     1658.311        3.653        0.610      246.215       38.790        0.025      348.550       28.325      862.842
07/15/2014  23:05:00     -285.793      -50.067      -27.887       96.484       88.854       46.388     9309.107     7895.069     2151.871        5.216        0.968      290.145       34.413        0.014      348.567       28.352      862.852
07/15/2014  23:06:00     -266.151       -9.270      -18.868       94.634       84.808       39.801     8955.512     7192.385     1584.111        4.450        0.887      266.312       33.439        0.016      348.581       28.377      862.860
07/15/2014  23:07:00     -244.074     -123.603      -12.578       74.627       84.051       42.161     5569.222     7064.580     1777.513        4.471        0.721      273.587       39.510        0.021      348.568       28.353      862.871
07/15/2014  23:08:00     -165.312      -45.043      -13.158       76.004       66.495       38.760     5776.543     4421.616     1502.329        2.061        0.585      171.339       29.740        0.030      348.528       28.289      862.880
07/15/2014  23:09:00     -250.782     -118.171       -5.199      136.617       94.148       52.477    18664.319     8863.931     2753.789        5.358        1.514      277.229       58.267        0.044      348.531       28.291      862.891
07/15/2014  23:10:00     -263.598      -27.609      -10.975      127.170      151.516       54.763    16172.241    22957.098     2999.013        5.624        2.106      265.040       59.749        0.051      348.529       28.289      862.899
07/15/2014  23:11:00     -196.641       20.974      -21.215      126.573      134.825       45.910    16020.618    18177.704     2107.700        3.792        1.815      197.757       60.068        0.092      348.538       28.304      862.891
07/15/2014  23:12:00     -204.178       -2.821      -25.435       93.016       95.553       55.842     8651.901     9130.464     3118.306        3.162        1.045      204.197       43.506        0.045      348.509       28.254      862.881
07/15/2014  23:13:00     -115.639       -8.284       -4.169       71.640       67.483       39.083     5132.266     4553.981     1527.452        1.233        0.561      115.935       33.205        0.082      348.450       28.155      862.899
07/15/2014  23:14:00     -103.886        5.379       -0.773       60.995       49.374       34.422     3720.397     2437.782     1184.889        0.908        0.367      104.025       29.376        0.080      348.436       28.133      862.915
07/15/2014  23:15:00     -169.830        0.471        2.456      120.359       78.264       42.425    14486.322     6125.310     1799.860        2.563        1.121      169.831       40.647        0.057      348.450       28.153      862.918
07/15/2014  23:16:00     -304.226     -102.902       -6.351      161.503      109.615       65.800    26083.349    12015.528     4329.645        7.280        2.121      321.158       73.165        0.052      348.541       28.310      862.919
07/15/2014  23:17:00     -183.474      -42.191        6.596      108.921       72.259       45.552    11863.761     5221.316     2075.007        2.732        0.958      188.263       47.268        0.063      348.472       28.189      862.914
07/15/2014  23:18:00     -117.999        5.583       -0.221       84.543       68.104       45.377     7147.516     4638.182     2059.089        1.390        0.692      118.131       42.354        0.129      348.496       28.233      862.889
07/15/2014  23:19:00     -168.060      -74.672        1.688       95.792       99.359       48.588     9176.042     9872.179     2360.839        2.761        1.070      183.902       38.226        0.043      348.462       28.174      862.897
07/15/2014  23:20:00     -135.125      -92.636      -10.193      115.688       68.071       50.816    13383.701     4633.617     2582.292        2.377        1.030      163.830       61.454        0.141      348.456       28.161      862.915
07/15/2014  23:21:00     -253.820      -37.411      -14.425       77.431       89.987       43.730     5995.589     8097.713     1912.286        4.102        0.800      256.562       34.933        0.019      348.471       28.187      862.916
07/15/2014  23:22:00     -265.052       -3.021      -15.807       70.563       71.211       42.996     4979.143     5070.994     1848.614        4.120        0.595      265.070       40.234        0.023      348.492       28.224      862.912
07/15/2014  23:23:00     -219.704      -14.026      -16.180       72.006       57.268       40.823     5184.861     3279.621     1666.550        2.943        0.507      220.152       44.428        0.041      348.485       28.212      862.911
07/15/2014  23:24:00     -228.013      -50.090       -8.539      101.427       79.523       51.994    10287.349     6323.837     2703.339        3.694        0.966      233.450       50.753        0.047      348.449       28.149      862.919
07/15/2014  23:25:00     -137.679      -39.795       -2.698       98.515       62.041       40.009     9705.212     3849.130     1600.700        1.785        0.758      143.315       46.157        0.104      348.393       28.053      862.923
07/15/2014  23:26:00     -144.226       14.968       -8.697       58.861       46.900       29.466     3464.633     2199.592      868.243        1.382        0.327      145.001       23.650        0.027      348.377       28.029      862.925
07/15/2014  23:27:00     -285.717       51.446      -22.996       56.357       55.003       33.889     3176.129     3025.345     1148.446        4.608        0.367      290.312       24.631        0.007      348.415       28.090      862.930
07/15/2014  23:28:00     -242.292       -2.590      -16.215       81.057       63.973       37.119     6570.313     4092.495     1377.828        3.551        0.602      242.306       36.334        0.022      348.390       28.047      862.948
07/15/2014  23:29:00     -219.908      -30.171       -5.234       79.271       72.944       39.745     6283.916     5320.822     1579.699        3.124        0.659      221.968       45.133        0.041      348.348       27.977      862.960
07/15/2014  23:30:00      -98.294      -13.276       11.897       74.288       45.507       29.546     5518.754     2070.850      872.972        0.922        0.423       99.186       36.299        0.134      348.327       27.942      862.957
07/15/2014  23:31:00      -70.850       53.006       -4.090       32.305       28.717       24.062     1043.632      824.669      579.001        0.515        0.122       88.484       15.949        0.032      348.265       27.836      862.983
07/15/2014  23:32:00      -59.287       90.853      -12.845       29.624       25.516       19.813      877.601      651.046      392.560        0.693        0.096      108.486       18.850        0.030      348.248       27.804      863.002
07/15/2014  23:33:00      -67.142       79.606       -6.812       54.750       57.020       36.037     2997.536     3251.239     1298.648        0.922        0.377      104.141       29.168        0.078      348.198       27.718      863.015
07/15/2014  23:34:00     -124.111      127.123      -24.651       61.040       48.726       42.916     3725.939     2374.226     1841.815        2.006        0.397      177.662       33.910        0.036      348.251       27.807      863.018
07/15/2014  23:35:00      -97.340       77.783      -13.222       40.986       38.004       25.641     1679.852     1444.307      657.479        0.974        0.189      124.600       22.861        0.034      348.260       27.827      863.014
07/15/2014  23:36:00      -54.314      181.629      -20.367       74.284       93.090       42.369     5518.122     8665.751     1795.104        2.616        0.799      189.576       50.616        0.071      348.282       27.862      863.009
07/15/2014  23:37:00      -15.510      263.136      -35.644       30.294       35.114       18.715      917.734     1232.964      350.259        3.663        0.125      263.593        9.833        0.001      348.267       27.832      863.004
07/15/2014  23:38:00       -3.151      200.585      -33.264       54.241       56.705       27.275     2942.129     3215.511      743.901        2.412        0.345      200.610       32.686        0.027      348.240       27.788      863.015
07/15/2014  23:39:00      -52.745       66.953       -1.816       38.409       56.785       24.356     1475.290     3224.509      593.208        0.628        0.265       85.233       13.470        0.025      348.072       27.500      863.031
07/15/2014  23:40:00        7.306      133.338      -17.424       41.748       62.149       29.431     1742.914     3862.461      866.187        1.230        0.324      133.538       28.627        0.046      348.137       27.612      863.011
07/15/2014  23:41:00      -99.476      119.097      -27.866       50.779       55.878       28.334     2578.495     3122.329      802.812        1.568        0.325      155.176       21.452        0.019      348.040       27.446      863.014
07/15/2014  23:42:00      -68.669      100.304      -19.082       31.786       53.939       23.679     1010.369     2909.364      560.689        0.981        0.224      121.558       18.810        0.024      348.021       27.413      863.033
07/15/2014  23:43:00      -88.030      112.738      -12.683       48.565       73.091       36.696     2358.601     5342.268     1346.616        1.483        0.452      143.036       23.943        0.028      348.065       27.488      863.046
07/15/2014  23:44:00      -25.738      205.994      -23.312       41.136       63.569       32.337     1692.157     4040.980     1045.666        2.521        0.339      207.596       26.746        0.017      348.158       27.646      863.019
07/15/2014  23:45:00      -80.590      120.896      -20.702       55.796       91.414       25.492     3113.143     8356.449      649.821        1.683        0.606      145.295       28.064        0.037      348.101       27.549      863.001
07/15/2014  23:46:00      -61.709       43.780      -13.489       34.846       27.759       20.622     1214.209      770.560      425.272        0.416        0.121       75.662       15.195        0.040      348.077       27.509      863.005
07/15/2014  23:47:00     -113.140       25.892      -17.557       36.010       39.778       20.377     1296.716     1582.295      415.225        0.854        0.165      116.064       12.194        0.011      348.020       27.411      863.015
07/15/2014  23:48:00      -97.185       83.227      -11.158       44.769       70.304       35.282     2004.250     4942.592     1244.843        1.234        0.410      127.952       43.052        0.113      348.071       27.500      863.013
07/15/2014  23:49:00      -95.736       94.257      -24.343       30.934       56.610       25.627      956.901     3204.647      656.752        1.173        0.241      134.350       25.333        0.036      348.071       27.500      863.008
07/15/2014  23:50:00      -94.712       53.058      -13.958       59.303       54.947       24.055     3516.835     3019.216      578.654        0.955        0.356      108.561       28.163        0.067      348.037       27.441      863.005
07/15/2014  23:51:00     -135.057      -18.500        5.686       66.213       59.738       39.529     4384.187     3568.665     1562.518        1.406        0.476      136.318       42.296        0.096      348.062       27.485      862.987
07/15/2014  23:52:00      -66.122        0.247       -9.300       32.652       29.719       21.658     1066.179      883.203      469.076        0.344        0.121       66.123       19.898        0.091      347.994       27.365      862.981
07/15/2014  23:53:00      -92.357       75.623      -16.597       36.898       52.833       24.823     1361.435     2791.339      616.175        0.965        0.238      119.368       16.755        0.020      348.053       27.470      862.988
07/15/2014  23:54:00     -142.259       -4.057      -16.205       32.329       30.119       21.730     1045.191      907.150      472.209        1.147        0.121      142.317        8.650        0.004      348.100       27.549      862.994
07/15/2014  23:55:00      -99.656       -9.035      -28.972       35.160       35.605       25.776     1236.203     1267.700      664.377        0.701        0.158      100.065       25.335        0.064      348.069       27.496      862.997
07/15/2014  23:56:00      -80.920        3.517      -10.469       40.167       49.021       25.744     1613.402     2403.068      662.755        0.567        0.234       80.996       19.752        0.059      348.006       27.387      862.999
07/15/2014  23:57:00      -72.257       13.086       -1.264       37.300       43.996       29.734     1391.284     1935.684      884.103        0.480        0.211       73.433       15.809        0.046      347.978       27.338      863.003
07/15/2014  23:58:00     -114.898       14.222      -13.958       66.033       39.181       29.782     4360.368     1535.176      886.976        1.019        0.339      115.775       11.524        0.010      348.073       27.504      863.002
07/15/2014  23:59:00     -142.029        3.686       -7.833       37.361       45.146       18.828     1395.878     2038.193      354.508        1.202        0.189      142.077       15.824        0.012      347.996       27.370      863.003
